GFSGBSN_prec_radar_072.txt.gz
Reflectivity
-20 -20 -20 -20 -20 -20 -16 -20 -20 -20 -20 -20 -20 -20 -20 -20 -20 -20 -20 -20 -20 -20 -20 -20 -20 -4 -20 -20 4 -19 -20 -20 -20 -20 -20 -20 -20 -20 -20 -20 -20 -20 -20 -20 -20 -20 -20
-20 -20 -20 -20 -20 3 -20 -12 -20 -20 -20 -20 -20 -20 -20 -20 -20 -20 -20 -20 -20 -20 -20 -20 -20 6 -17 -17 4 1 -18 -10 -19 -20 -20 -20 -20 -20 -20 -20 -20 -20 -20 -20 -20 -20 -20
-20 -1 -9 9 -18 -20 -20 -20 4 -3 -20 -20 -20 -20 -20 -20 -20 -20 -20 -20 -20 -20 -20 -20 -20 -17 1 6 0 1 15 5 -18 -20 -20 -20 -20 -20 -20 -20 -20 -20 -20 -20 -20 -20 -20
-20 -17 10 10 6 -13 12 9 12 -16 -3 -20 -20 -20 -20 -20 -20 -20 -20 -20 -20 -20 -20 -20 -15 -18 -18 8 -2 -18 0 11 2 -11 -20 -20 -20 -20 -20 -20 -20 -20 -20 -20 -20 -20 -20
5 -20 -20 -20 -20 -20 -20 -20 -20 -14 -20 -20 -8 4 -20 -20 -20 -20 -20 -20 -20 -20 -20 -20 -11 -17 -20 -19 -20 -20 -3 14 11 4 -14 -16 -20 -20 -20 -20 -20 -20 -20 -20 -20 -20 -20
9 -20 -20 -20 -20 -4 -20 -20 -20 -20 -20 -20 -8 -20 -20 -20 -20 -20 -20 -20 -20 -20 -20 -20 -20 -20 -20 -8 2 -20 -20 -17 -3 9 5 -2 -11 -20 -6 -18 -20 -20 -20 -20 -20 -20 -20
-20 -20 9 -20 -20 -20 -20 -20 -11 -5 -20 -20 -20 -20 -20 -20 -20 -20 -20 -20 -20 -20 -20 -20 -20 -20 -19 -20 -9 -6 -3 10 3 -10 -20 -20 -20 -20 1 -19 -20 -20 -20 -20 -20 -20 -20
-18 -13 -0 7 4 8 10 14 13 -20 -20 -20 -20 -20 -20 -20 -20 -20 -20 -17 -16 -20 -20 -20 -20 -20 -20 -16 -18 -10 -5 -8 -7 -8 -9 -20 -20 4 -16 -20 -20 -20 -20 -20 -20 -20 -20
8 0 3 7 7 -20 -20 -20 -7 -20 -20 -20 -20 -20 -20 -20 -20 -20 -20 -20 -20 -20 -20 -18 -20 -20 -20 -20 -19 12 5 -14 -1 -18 -20 -20 -20 -20 -20 -20 -20 -20 -20 -20 -20 -20 -20
2 2 -17 -20 3 -20 -20 -20 -20 -20 -20 -20 -20 -20 -20 -20 -20 -20 -20 -20 -20 -20 -20 -20 -20 -20 -20 -20 -20 -20 -16 -11 -12 -10 -20 -20 -20 -20 -20 -20 -20 -20 -20 -20 -20 -20 -20
-11 -20 -20 -20 -20 -20 -20 -20 -20 -20 -20 -20 -20 -20 -20 -20 -20 -20 -20 -20 -20 -20 -20 -20 -20 -20 -20 -20 -20 -20 -20 -20 -20 -20 -20 -20 -20 -20 -20 -20 -20 -20 -20 -16 -2 -20 -20
-10 -20 -20 -20 -20 -20 -14 -4 -20 -20 -20 -20 -20 -20 -20 -20 -20 -20 -20 -20 -20 -20 -20 -20 -20 -20 -20 -20 -20 -20 -20 -20 -20 -20 -20 -20 -20 -20 -20 -20 -20 -20 -17 -9 -20 -20 -1
-19 -20 -20 -20 -20 -20 -20 -6 -20 -20 -20 -20 -20 -20 -20 -20 -20 -20 -20 -20 -20 -20 -20 -20 -20 -20 -20 -20 -20 -20 -20 -20 -20 -20 -20 -20 -20 -20 -20 -20 -20 -20 13 0 -15 1 -20
-20 -20 -20 -0 -20 8 -6 -15 -20 -20 -20 -20 -20 -20 -20 -20 -20 -20 -20 -20 -20 -20 -20 -20 -20 -20 -20 -20 -20 -20 -20 -20 -20 -20 -20 -20 -20 -20 -20 -20 -20 -20 0 -20 4 -20 -20
-2 -20 -20 -20 3 6 -6 -20 -20 -20 -20 -20 -20 -20 -20 -20 -20 -20 -20 -20 -20 -20 -20 -20 -20 -20 -20 -20 -20 -20 -20 -20 -20 -20 -20 -20 -20 -20 -20 -20 -20 -17 15 -8 24 -11 2
-20 -20 -2 -11 9 -20 -20 -20 -20 -20 -17 -20 -20 -20 -20 -20 -20 -20 -20 -20 -20 -20 -20 -20 -20 -20 -20 -20 -20 -20 -20 -20 -20 -20 -20 -20 -20 -20 -20 -20 -20 -20 23 9 6 1 -14
-20 -20 -20 -17 -2 6 -20 -2 -20 1 -20 -20 -20 -20 -20 -20 -20 -20 -20 -20 -20 -20 -20 -20 -20 -20 -20 -20 -20 -20 -20 6 -9 -20 -20 -20 -20 -20 -20 -20 -20 -20 9 6 18 -9 14
3 -9 -20 -20 6 3 -20 -20 -20 -2 -20 -20 -20 -20 -20 -20 -20 -20 -20 -20 -20 -20 -20 -20 -20 -20 -20 -20 -20 -20 -20 -20 -19 -11 15 -20 -8 -20 -20 -20 -20 -1 -19 -19 11 25 6
8 6 -15 5 4 -20 -20 -20 -20 -6 -20 -20 -20 -20 -20 -20 -20 -20 -11 -2 -17 -20 -20 -20 -16 -20 -20 -20 -20 -20 -20 4 -20 -8 27 8 22 -7 -19 -15 -13 6 15 -15 -3 28 32
17 -2 -17 -14 -20 -20 -20 -20 -20 -16 -12 -20 -20 -20 -20 -20 -20 -20 -8 -6 -9 -20 -20 -16 -14 -10 -14 -20 -20 -20 -20 22 -15 30 18 3 -20 -20 -17 -18 -20 -15 -19 -1 35 24 19
5 -19 9 -20 -20 -20 -20 -20 -20 -17 -20 -20 -20 -20 -20 -20 -14 -20 -20 -20 -20 4 30 -5 7 13 19 -17 -5 -13 -20 18 2 29 -3 -20 -20 -20 -20 -20 -20 -20 -20 -20 -13 16 23
-0 9 -20 -20 -20 -20 -20 -20 -20 -19 8 -20 -13 -20 -20 -20 -20 -20 -20 -20 -20 -14 -20 -10 19 7 -7 -20 -20 8 -20 -18 27 18 -15 -20 -20 -20 -20 -20 -20 -20 -20 -20 -20 -20 -20
6 -20 -20 5 -15 -12 -20 -20 -20 15 -20 -20 6 7 -19 -20 -20 -20 -20 -20 -20 -20 -20 -20 -12 -5 -20 -20 -20 -20 -20 20 21 16 18 16 -20 -20 -20 -20 -20 -20 -20 -20 -20 -19 -20
-20 -18 11 2 -20 -20 -20 -20 17 4 -20 -20 -20 15 -14 -20 -20 -20 -20 -20 -20 -20 -20 -20 -20 -3 8 5 -20 -20 -19 13 11 -5 20 2 -10 -20 -20 -20 -20 -20 -20 -20 -8 -12 -20
5 5 15 -18 -20 -4 -13 -20 -20 -9 -6 -20 -20 -5 -20 -20 -20 -20 -20 -20 -20 -20 -20 -20 -20 -2 -20 -7 10 12 11 19 -14 -20 -20 -20 -20 -20 -20 -20 -20 -20 -20 -20 5 -20 -20
13 10 -20 -20 -20 -16 -18 2 -18 16 -2 -20 -20 3 7 -20 -20 -20 -20 -20 -20 -20 -20 -20 -20 -20 8 20 27 11 -20 -20 -20 -20 -20 -20 -20 -20 -20 -20 -20 -20 -20 -20 -20 -20 -20
11 -20 3 10 -20 3 -20 -2 -5 19 19 -20 -20 -20 -2 -6 -20 -20 -20 -20 -20 -20 -20 -20 -20 -16 -9 28 31 7 13 -4 -2 3 13 -20 -20 -18 -20 -20 -20 -20 -20 -20 -20 -20 -20
11 14 -4 -20 -20 -18 -14 -20 -20 -20 7 -20 -20 -20 -20 -3 -20 -20 -20 -20 -20 -20 -20 -20 -20 -20 -6 14 -8 -10 -20 -20 -20 -20 -20 -20 -20 -20 -10 -16 -16 -20 -20 -20 -20 -20 -20
9 -17 -20 -20 -20 -20 -16 -17 -20 -20 -15 17 -12 -20 -20 -5 -20 -20 -20 -20 -20 -20 -20 -20 -20 -6 8 6 -0 -20 -16 -20 -20 -20 -16 -20 -20 -20 -20 -20 -20 -20 -20 2 10 12 -9

GFSGBSN_prec_radar_075.txt.gz
Reflectivity
-14 -20 -20 -20 -20 -20 -20 -20 -20 -20 -20 -20 -20 -20 -20 -20 -20 -20 -20 -20 -20 -20 -20 -20 -20 -1 -10 -20 -20 -20 -20 -20 -20 -12 -4 -19 -20 -20 -20 -20 -20 -20 -20 -20 -20 -20 -20
-1 -20 -20 -20 -20 4 -20 -20 -20 -20 -20 -20 -20 -20 -20 -20 -20 -20 -20 -20 -20 -20 -20 -20 -15 11 -19 -20 -20 -20 -20 -20 -20 -20 0 -7 -8 -20 -20 -20 -20 -20 -20 -20 -20 -20 -20
8 -18 10 5 -20 -20 -20 -20 -20 3 -14 -20 -18 -5 -20 -20 -20 -20 -20 -20 -20 -20 -20 -20 5 -14 -20 -20 -20 -20 -20 -20 -20 -16 7 7 1 -19 -20 -20 -20 -20 -20 -20 -20 -20 -20
26 -3 8 11 11 10 -0 -3 -7 -19 -20 -20 -20 -20 -20 -20 -20 -20 -20 -20 -20 -20 -20 -20 15 -20 -20 -20 -20 -20 -20 -20 -20 -2 7 7 7 -3 -20 -20 -20 -20 -20 -20 -20 -20 -20
12 10 -11 -19 -20 -20 -20 -20 -20 -20 -20 -20 -20 -20 -20 -20 -20 -20 -20 -20 -20 -20 -20 -20 -12 -20 -20 -20 -20 -20 -20 -20 -12 -5 0 3 10 12 -4 -20 -11 -20 -20 -20 -20 -20 -20
20 16 -14 -20 -20 -20 -20 -20 -20 -20 -20 -20 -20 -20 -20 -20 -20 -20 -20 -20 -20 -20 -20 -20 -20 -10 -20 -20 -20 -20 -20 -20 -20 -18 -4 -16 -17 -14 5 -4 -3 -20 -20 -20 -20 -18 -20
19 14 -2 -20 -20 -20 -20 -20 1 -4 -20 -20 -20 -20 -20 -20 -20 -20 -20 -20 -20 -20 -20 -20 -20 -20 -20 -20 -20 -20 -20 -20 -20 -20 -20 -16 -20 -20 12 19 8 -20 -20 -20 -20 -20 -20
8 2 -12 8 7 0 4 10 6 -20 -20 -20 -20 -20 -20 -20 -20 -20 -20 -20 -20 -20 -20 -7 -11 -20 -20 -20 -20 -20 -20 -20 -16 -18 3 -18 -20 -19 -18 -10 -20 -20 -20 -20 -20 -20 -20
11 -2 -9 4 -1 -17 -19 -20 -20 -20 -20 -20 -20 -20 -20 -20 -20 -20 -20 -20 -20 -20 -20 -20 -20 -20 -20 -20 -20 -20 -20 -20 -20 -20 -15 -13 -20 -2 -5 -20 -20 -20 -20 -20 -20 -20 -20
19 -14 -20 4 -15 -20 -20 -20 -20 -20 -20 -20 -20 -20 -20 -20 -20 -20 -20 -20 -20 -20 -20 -20 -20 -20 -20 -20 -20 -20 -20 -20 -17 -4 -20 -20 -15 -6 -20 -20 -20 -20 -20 -20 -20 -20 -20
5 -12 -15 -6 -0 -6 -6 -20 -20 -20 -20 -20 -20 -20 -20 -20 -20 -20 -20 -20 -20 -20 -20 -20 -20 -20 -20 -20 -20 -20 -20 -20 -20 -9 -15 -20 -15 -9 -20 -3 -20 -20 -20 -20 -20 -18 -0
19 9 -1 3 3 0 -20 2 -20 -20 -20 -20 -20 -20 -20 -20 -20 -20 -20 -20 -20 -20 -20 -20 -20 -20 -20 -20 -20 -20 -20 -20 -20 -20 -20 -19 -20 -20 -20 -20 -20 -20 -20 -20 -20 -0 3
7 6 8 -3 -11 -19 -20 -5 4 -20 -20 -20 -20 -20 -20 -20 -20 -20 -20 -20 -20 -20 -20 -20 -20 -20 -20 -20 -20 -20 -20 -20 -20 -20 -20 -20 -20 -20 -20 -20 -20 -20 -20 -6 -6 4 -20
13 10 -11 5 4 9 4 -19 -20 -20 -20 -20 -20 -20 -20 -20 -20 -20 -20 -20 -20 -20 -20 -20 -20 -20 -20 -20 -20 -20 -20 -20 -20 -20 -20 -20 -20 -20 -20 -20 -20 -20 -20 -19 -0 -20 -20
6 -17 -20 -20 0 -13 -7 -17 -20 -20 -20 -20 -20 -20 -20 -20 -20 -20 -20 -20 -20 -20 -20 -20 -20 -20 -20 -20 -20 -20 -20 -20 -20 -20 -20 -20 -20 -20 -20 -20 -20 -20 -2 -11 17 -20 13
-12 -16 -13 -20 11 -20 -20 -20 -20 -20 -20 -20 -20 -20 -20 -20 -20 -20 -20 -20 -20 -20 -20 -20 -20 -20 -20 -20 -20 -20 -20 -20 -20 -20 -20 -20 -20 -20 -20 -20 -20 -20 -3 18 6 -12 3
-20 -20 -13 -17 5 6 -1 -20 -19 -20 -20 -20 -20 -20 -20 -20 -20 -20 -20 -20 -20 -20 -20 -20 -20 -20 -20 -20 -20 -20 -20 -16 -20 -20 -20 -20 -20 -20 -20 -20 -20 -0 -20 6 27 4 -18
-19 -20 -20 -19 9 6 -20 -19 10 -20 -20 -20 -20 -20 -20 -20 -20 -20 -20 -20 -20 -20 -20 -20 -20 -20 -20 -20 -9 -20 -20 -20 -20 -20 -5 -20 17 -20 -20 -20 -20 1 3 -19 12 -8 24
8 -20 -20 -20 11 -4 -20 -16 -14 -20 -20 -20 -20 -20 -20 -20 -20 -20 -20 -20 -20 -20 -20 -20 -20 -5 -15 -20 -20 -20 -20 -20 -5 -20 14 -6 16 8 -14 -12 -20 -20 5 32 28 24 -5
19 -17 -20 -20 -20 10 -20 -20 -20 -20 -20 -20 -20 -20 -20 -20 -20 -20 -20 -20 -20 -5 -7 14 -7 -20 -5 -20 2 -20 -20 -20 -20 30 3 -9 -20 14 17 -9 -20 -20 -20 -20 -3 15 15
0 3 -20 -20 -20 -2 -20 -20 -20 -20 -20 -20 -20 -20 -20 -20 -2 -20 -20 -20 -20 -19 -20 -19 25 20 12 19 20 -18 -20 -20 -20 19 32 5 -20 20 18 -20 -20 -20 -20 -20 -20 1 -18
-20 -20 -16 -20 -20 -12 -15 -20 -20 -12 -20 -20 -20 -20 -20 -20 -20 -20 -20 -20 -20 -10 -20 -20 -20 8 -10 10 -10 9 1 -20 -19 -2 34 35 -1 27 5 -20 -20 -20 -20 -20 -20 -20 -16
-18 -7 10 -20 9 -20 -20 -16 -12 -16 -20 -18 1 -16 -20 -20 -20 -20 -20 -20 -20 -20 -20 -20 -20 -20 1 17 -7 6 -20 -7 8 15 35 27 29 13 -20 -20 -20 -20 -20 -20 -20 -20 3
15 10 -20 -20 12 -20 -13 -20 15 -7 -20 -20 -20 -8 7 -20 -13 -20 -20 -20 -20 -20 -20 -20 -20 -20 -7 -20 -20 -20 -20 -20 -13 -9 11 20 14 14 -7 -20 -20 -20 -20 -20 -4 -5 -20
13 -19 -20 -1 16 -20 -20 -20 6 16 -20 -20 -20 -20 -20 -20 -20 -20 -20 -20 -20 -20 -20 -20 -20 -20 -20 -20 -2 -13 -20 -19 -5 -10 16 -13 12 11 -20 -20 -20 -20 -20 -20 -16 -20 -20
-20 -20 -3 18 -20 -2 -12 -20 -20 7 12 -20 -20 -13 -20 -20 -20 -20 -20 -20 -20 -20 -20 -20 -20 -20 -20 8 11 16 9 -20 -20 -0 -17 -20 -20 -20 -20 -19 -20 -20 -20 -20 -20 -20 -19
-20 -15 11 -20 -20 -20 -5 0 -20 8 1 -20 -20 -20 -11 -2 -20 -20 -20 -20 -20 -20 -20 -20 -20 -20 -20 -9 18 25 14 -17 4 13 -6 -19 -20 -20 4 4 -20 -20 -20 -20 -20 -20 -20
10 13 -9 -6 16 -20 -20 -20 -9 13 15 -20 -20 -20 -20 -13 -20 -20 -20 -20 -20 -20 -20 -20 -20 -20 -20 7 13 23 -14 -11 -3 -17 17 19 -20 -20 -2 2 -20 -20 -20 -20 -12 2 -12
-20 15 -16 16 -20 -20 -20 -20 -4 -11 -6 -18 -20 -12 -20 -20 -20 -20 -20 -20 -20 -20 -20 -20 -20 -19 -0 3 -12 -18 5 -19 -19 15 -20 -20 -18 16 -20 -20 -20 -20 -20 -2 14 -2 6

GFSGBSN_prec_radar_078.txt.gz
Reflectivity
-20 -16 -12 -18 -14 -20 -20 -20 -20 -20 -20 -20 -20 -20 -20 -20 -20 -20 -20 -20 -20 -20 -20 -20 -20 -4 -19 -20 -20 -20 -20 -20 -20 -20 -20 -20 -20 -20 -20 -20 -20 -20 -20 -20 -20 -20 -20
11 11 16 5 -18 -20 -20 -20 -20 -20 -20 -20 -20 -20 -20 -20 -20 -20 -20 -20 -20 -20 -20 -20 -20 -16 -20 -20 -20 -20 -20 -20 -20 -20 -20 -20 -20 -20 -20 -20 -20 -7 -20 -20 -20 -20 -20
24 14 16 14 -20 -5 -4 -20 -20 -20 -20 -20 -20 -20 -20 -20 -20 -20 -20 -20 -20 -20 -20 -20 -14 -14 -20 -20 -20 -20 -20 -20 -20 -20 -20 -20 -20 -20 -20 -17 -6 -11 -20 -20 -20 -20 -20
22 17 11 15 14 5 -0 -20 -20 -20 -20 -20 -20 -20 -20 -20 -20 -20 -20 -20 -20 -20 -20 -20 -12 -20 -20 -20 -20 -20 -20 -20 -20 -20 -20 -20 -20 -20 -17 -9 5 11 -10 -20 -20 -20 -20
18 22 17 19 22 9 -14 -20 -20 -20 -20 -20 -20 -20 -20 -20 -20 -20 -20 -20 -20 -20 -20 -20 -20 -20 -20 -20 -20 -20 -20 -20 -20 -20 -20 -20 -18 -13 -15 -2 -7 -4 -1 -11 -16 -20 -20
29 27 30 25 13 1 -20 -20 -20 -20 -20 -20 -20 -20 -20 -20 -20 -20 -20 -20 -20 -20 -17 -1 -20 -13 -20 -20 -20 -20 -20 -20 -20 -20 -20 -20 -20 -20 3 -5 -0 -19 -18 -20 -20 -11 -5
34 34 26 15 -2 -20 -20 -20 -20 -20 -20 -20 -20 -20 -20 -20 -20 -20 -20 -20 -20 -20 -20 -20 -20 -20 -20 -20 -20 -20 -20 -20 -20 -20 -20 -20 -20 -20 -8 10 -12 -20 -20 6 -1 7 9
36 31 25 17 11 4 1 9 -20 -20 -20 -20 -20 -20 -20 -20 -20 -20 -20 -20 -20 -20 -20 -20 -20 -20 -20 -20 -20 -20 -20 -20 -20 -20 -20 -20 -20 -20 -20 -20 -20 -20 -20 -20 9 9 -3
34 32 29 16 6 -11 -20 -20 -20 -20 -20 -20 -20 -20 -20 -20 -20 -20 -20 -20 -20 -20 -20 -20 -20 -20 -20 -20 -20 -20 -20 -20 -20 -20 -20 -20 -20 -20 -20 -20 -20 -20 -20 -20 -20 1 -20
33 31 27 18 8 -14 -20 -20 -20 -19 -11 -20 -20 -20 -20 -20 -20 -20 -20 -20 -20 -20 -20 -20 -20 -20 -20 -20 -20 -20 -20 -20 -20 -20 -20 -20 -20 -20 -20 -20 -20 -20 -20 -20 -20 -20 -20
32 31 25 -6 -14 -20 -20 -19 -10 -0 -11 -20 -20 -20 -20 -20 -20 -20 -20 -20 -20 -20 -20 -20 -20 -20 -20 -20 -20 -20 -20 -20 -20 -20 -20 -20 -20 -20 -20 -20 -20 -20 -20 -20 -20 -20 -20
29 30 13 2 8 5 -7 -6 -5 -7 -18 -20 -20 -20 -20 -20 -20 -20 -20 -20 -20 -20 -20 -20 -20 -20 -20 -20 -20 -20 -20 -20 -20 -20 -20 -20 -20 -20 -20 -20 -20 -20 -19 -20 -20 -20 -13
23 23 16 9 1 4 4 -1 -12 -12 -20 -20 -20 -20 -20 -20 -20 -20 -20 -20 -20 -20 -20 -20 -20 -20 -20 -20 -20 -20 -20 -20 -20 -20 -20 -20 -20 -20 -20 -20 -20 -20 -20 -20 -14 3 -20
8 12 15 9 0 12 9 -8 -8 -20 -20 -20 -20 -20 -20 -20 -20 -20 -20 -20 -20 -20 -20 -20 -20 -20 -20 -20 -20 -20 -20 -20 -20 -20 -20 -20 -20 -20 -20 -20 -20 -18 -20 -20 -13 -5 -18
9 11 8 4 -1 -16 -8 -20 -12 -20 -20 -20 -20 -20 -20 -20 -20 -20 -20 -20 -20 -20 -20 -20 -20 -20 -20 -20 -20 -20 -20 -20 -20 -20 -20 -20 -19 -20 -20 -20 -20 8 -1 -20 9 -17 6
8 1 -5 -11 -5 -20 -20 -20 -20 -20 -20 -20 -20 -20 -20 -20 -20 -20 -20 -20 -20 -20 -20 -20 -20 -20 -20 -20 -20 -20 -20 8 7 -20 -20 -20 -20 -20 -20 -20 -20 1 -20 -8 17 10 4
-9 -18 -20 -16 3 -20 -20 -14 -15 -20 -20 -20 -20 -20 -20 -20 -20 -20 -20 -20 -20 -20 -20 -20 -20 -20 -20 -20 -20 -20 -20 -12 -20 -16 -20 -20 -20 9 -19 -6 -8 -16 14 -12 -4 13 12
-20 -20 -20 -20 -19 -20 -19 -20 -15 -20 -20 -20 -20 -20 -20 -20 -20 -20 -20 -20 -20 -20 -20 -20 -20 -20 -20 -20 -20 -20 -20 -20 -20 -20 -16 10 21 19 -20 -20 -20 -20 17 18 18 22 15
-15 -20 -20 -20 -14 -1 5 -20 -20 -20 -20 -20 -20 -20 -20 -20 -20 -20 -20 -20 -20 -20 -2 -15 3 1 -20 -2 1 -20 -20 -20 14 -10 9 -2 10 20 19 -11 -9 -9 21 -20 -19 -16 11
16 -13 -20 -20 -20 11 -10 -20 -20 -20 -20 -20 -20 -20 -20 -20 -20 -20 -20 -20 -20 -15 -4 -20 -1 10 0 4 13 -12 -20 -8 -20 -20 6 30 4 -15 13 2 18 23 1 -20 -20 -20 -9
14 9 -20 -20 -20 -9 -20 -20 -20 -20 -20 -20 -20 -20 -20 2 -3 -20 -20 -20 -20 -20 -20 -20 8 -17 2 -2 -4 19 7 -20 -20 -1 5 14 31 16 -20 -9 -1 7 -20 -20 -20 -20 -20
-20 -18 -20 -20 -20 -20 -20 -20 -20 -20 -20 -20 0 -13 -20 -6 -20 -20 -20 -20 -20 -12 -20 -20 -15 -20 -20 -5 4 19 22 19 17 23 20 18 30 8 4 -6 17 -20 -20 -20 -20 -20 -20
-20 -20 -15 -20 -20 -5 -20 -20 -20 -20 -20 -18 -6 -18 -13 -18 -9 -20 -20 -20 -20 -20 -20 -13 -20 -20 -20 -14 4 -20 -20 -20 -12 5 15 28 33 15 17 9 11 -20 -20 -20 -20 -20 -0
-20 -20 7 -20 -20 5 -20 -20 -20 -20 -20 -20 -2 -17 -3 -12 -20 -20 -20 -20 -20 -20 -0 -20 -20 6 -10 -20 -20 -20 -20 -20 -20 -20 12 28 30 7 4 -20 -20 -20 -20 -20 -20 -20 -12
-20 -6 -20 -20 -20 5 -14 1 -20 -20 -20 -20 -20 -18 5 5 -17 -20 -20 -20 -20 -20 -20 -20 -20 -15 -20 -8 5 -15 22 -12 -20 -20 5 20 32 21 11 -20 -20 -20 -20 -20 -20 -14 -20
10 8 -20 -20 10 13 -20 9 -20 -20 -20 -18 -15 -20 -20 -20 -20 -20 -20 -20 -16 1 -20 -20 -20 -20 6 7 7 17 21 18 -19 6 -19 12 7 24 15 -14 -20 2 -20 -20 -20 -20 -20
14 -20 -20 -19 17 -7 -20 -20 -20 -20 -13 9 4 -20 -6 2 -20 -20 1 3 -11 -10 1 -20 -20 -20 -18 10 7 18 20 -17 7 8 21 -2 6 18 17 5 -12 -20 -20 -20 -20 4 -20
-8 -20 -9 16 -8 -20 -20 -20 -2 21 5 -3 7 -20 -3 1 -20 -20 -20 -20 -7 3 6 -20 -16 -3 -3 10 10 21 24 18 10 15 -10 16 17 12 12 6 5 -20 -20 -20 -2 -13 -20
-20 -20 15 17 -20 16 -20 -20 -20 9 -0 -20 13 -20 8 9 -18 -20 -20 -20 -20 -20 -11 -19 -6 6 9 15 8 9 19 4 -1 21 25 18 11 23 21 20 -20 -20 -20 -6 -20 -8 -2

GFSGBSN_prec_radar_084.txt.gz
Reflectivity
10 22 18 18 4 3 -3 -14 -20 -20 -19 -20 -20 -20 -20 -20 -20 -20 -20 -20 -20 -20 -20 -20 -20 -20 -20 -20 -20 -20 -20 -20 -20 -20 -20 -20 -20 -20 -20 -20 -20 -20 -20 -20 -20 -20 -20
14 17 11 11 18 14 -0 10 -18 3 -5 -3 -20 -20 -20 -20 -20 -20 -20 -20 -20 -20 -20 -20 -20 -20 -20 -20 -20 -20 -20 -20 -20 -20 -20 -20 -20 -20 -20 -20 -20 -20 -20 -20 -20 -20 -20
21 10 22 16 15 13 18 16 10 13 15 -4 -20 -15 -20 -20 -20 -20 -20 -20 -20 -20 -20 -20 -20 -20 -20 -20 -20 -20 -20 -20 -20 -20 -20 -20 -20 -20 -20 -20 -20 -20 -20 -20 -20 -20 -20
20 30 27 24 22 22 23 28 12 10 4 11 -20 -20 -7 -20 -20 -20 -20 -20 -20 -20 -20 -20 -20 -20 -20 -20 -20 -20 -20 -20 -20 -20 -20 -20 -20 -20 -20 -20 -20 -20 -20 -20 -20 -20 -20
21 14 34 20 23 18 23 23 24 18 20 17 11 -7 -20 -16 -20 -20 -20 -20 -20 -20 -20 -20 -20 -20 -20 -20 -20 -20 -20 -20 -20 -20 -20 -20 -20 -20 -20 -20 -20 -20 -20 -20 -20 -20 -20
26 26 26 22 22 24 27 24 26 26 28 26 22 12 -7 -13 -20 -20 -20 -20 -20 -20 -20 -20 -20 -20 -20 -20 -20 -20 -20 -20 -20 -20 -20 -20 -20 -20 -20 -20 -20 -20 -20 -20 -20 -20 1
30 31 31 24 22 21 22 18 21 26 23 13 -2 -10 4 6 -15 -20 -20 -20 -20 -20 -20 -20 -20 -20 -20 -20 -20 -20 -20 -20 -20 -20 -20 -20 -20 -20 -20 -20 -20 -20 -20 -20 -20 -20 -20
28 31 27 30 27 23 17 15 12 12 5 -9 -17 -14 9 7 0 -17 -20 -20 -20 -20 -20 -20 -20 -20 -20 -20 -20 -20 -20 -20 -20 -20 -20 -20 -20 -20 -20 -20 -20 -20 -20 -20 -20 -20 -20
22 22 23 24 23 29 26 18 15 6 -17 -19 -16 5 -5 1 0 -19 -20 -20 -20 -20 -20 -20 -20 -20 -20 -20 -20 -20 -20 -20 -20 -20 -20 -20 -20 -20 -20 -20 -20 -20 -20 -20 -20 -20 -20
33 30 27 28 27 33 25 24 18 -20 -20 -14 8 8 -13 -8 -18 -20 -20 -20 -20 -17 -18 -20 -20 -20 -20 -20 -20 -20 -20 -20 -20 -20 -20 -20 -20 -20 -20 -20 -20 -20 -20 -20 -20 -20 -20
29 35 34 31 31 28 23 18 12 2 -11 9 6 3 -0 -6 -10 -20 -20 -20 -18 -20 -20 -20 -20 -20 -20 -20 -20 -20 -20 -20 -20 -20 -20 -20 -20 -20 -20 -20 -20 -20 -20 -20 -20 -20 -20
29 35 35 35 33 25 26 21 10 9 10 14 5 -8 -5 -8 -9 -20 -19 -4 -1 -20 -19 -20 -20 -20 -20 -20 -20 -20 -20 -20 -20 -20 -20 -20 -20 -20 -20 -20 -20 -20 -20 -20 -20 -20 -20
33 32 31 32 33 28 20 17 28 20 15 10 8 -6 -11 -10 -20 -19 -13 -4 -2 -4 -20 -20 -20 -20 -20 -20 -20 -20 -20 -20 -20 -20 -20 -20 -20 -20 -20 -20 -20 -20 -20 -20 -17 -9 -19
27 27 30 31 29 29 23 15 12 7 3 8 -3 6 -10 -20 -20 -20 -20 -17 -6 -3 -20 -20 -20 -20 -20 -20 -20 -20 -20 -20 -20 -20 -20 -20 -20 -20 11 -20 -20 -20 -20 -1 -5 11 -20
22 26 28 30 30 19 10 20 18 13 9 2 -16 -20 -20 -12 -3 -12 -15 1 -2 -20 -20 -20 -20 -20 -20 -20 -20 -20 -20 -20 -20 -20 -20 -20 -11 -7 -8 -20 -20 -20 -20 -20 -18 -20 -20
21 18 16 18 12 -1 3 6 -2 1 3 6 -7 1 -3 1 -7 -0 -1 -20 -20 -20 -20 -20 -20 -20 -20 -20 -20 -20 -20 -20 -20 -11 -20 -20 -14 -20 -20 -20 -20 -20 -20 14 21 11 -20
14 13 13 22 11 7 -16 -20 -20 -7 -6 3 -6 -11 -17 -20 -3 -8 -20 -20 -20 -20 -20 -20 -20 -20 -20 -20 -20 -20 -20 -20 -20 -20 -4 -1 -12 -20 -19 15 -20 -20 -20 -20 13 13 14
5 10 3 6 1 -6 -4 2 -1 2 7 -3 -20 -11 -19 -20 -20 -20 -20 -20 -20 -20 -20 -20 -20 -20 -20 -20 -20 -20 -20 -20 -20 -20 -20 -8 -6 14 -20 -20 10 -9 -13 1 16 -20 8
-19 -0 4 3 7 -4 -5 3 -5 -16 -17 -15 -9 -4 -18 -20 -20 -20 -20 -20 -20 -20 -20 -20 -20 -20 -20 -20 -20 -20 -20 -20 -20 -20 -20 -20 4 -0 -20 -1 -16 -11 -0 13 16 22 -19
-20 -19 2 -5 1 -14 -18 -20 -20 -20 -13 -20 -18 -13 -20 -20 -20 -20 -20 -20 -20 -20 -20 -20 -20 -20 -20 -20 -20 -20 -20 -20 -20 -20 -20 -12 -20 11 -9 22 15 0 23 21 -8 21 13
-20 -20 -20 -20 -20 -20 -20 -20 -20 -6 -19 -20 -20 -18 -20 -20 -20 -20 -20 -20 -20 -20 -20 -20 -14 -20 -20 -5 -20 -20 -20 -20 -20 -20 -20 -18 4 -18 -2 -20 16 8 23 4 -17 24 13
-20 -20 -20 -20 -20 -20 -20 -12 -20 -20 -20 -20 -20 -7 -20 -20 -20 -20 -20 -20 -20 -20 -20 -19 -20 -20 -20 -20 -20 -11 -20 -20 -20 -20 -20 -8 -3 -6 -20 -20 -20 14 16 -4 -17 30 -2
7 -8 -19 -20 -20 -20 -17 -20 -20 -20 -20 -20 -20 -20 -20 -20 -20 -20 -20 -20 -20 -20 -20 -20 -20 -20 -20 -20 -20 -20 -20 -20 -20 -20 -20 10 21 19 -20 -19 -17 -20 -20 -20 7 25 24
-4 -20 -16 -16 -17 -20 -20 -20 -20 -20 -20 -20 -20 -20 -14 -6 -20 -20 -20 -20 -20 -20 -20 -20 -20 -20 -20 -20 -20 -20 -20 -20 -20 -20 -20 -5 4 19 8 -5 -13 -20 -20 -20 -12 26 20
-20 -20 -20 6 -20 -20 -20 -20 -20 -20 -20 -20 -20 -20 -18 -16 -20 -20 -20 -20 -20 -20 -20 -20 -20 -20 -20 -20 -6 -15 -20 -20 -18 9 19 -7 13 22 17 9 5 25 -20 -20 13 12 -19
-20 -20 -20 5 -10 4 -20 -20 -20 -20 -20 -18 -20 -20 -20 9 -20 -20 -20 -20 -20 -20 -15 -19 -16 -20 -20 8 3 4 -1 -20 10 25 -9 -20 1 15 2 20 33 35 9 -20 -20 16 21
-20 -20 -18 -16 -20 -4 -20 -20 -20 -20 -20 -20 -6 -20 -13 -20 -20 -20 -5 -19 -20 -10 -20 -8 -20 -14 -4 -3 6 12 6 -8 14 20 -20 -5 1 3 15 21 37 28 12 -20 -20 15 -3
-20 -20 8 14 -20 16 -20 -20 -20 -20 -20 -20 13 -20 -6 -14 -7 -20 -20 -20 -7 -20 7 -10 -12 -8 -3 11 22 5 8 7 18 25 -20 -18 16 5 8 23 25 14 4 -13 8 6 2
-20 -20 10 -19 -20 1 14 -14 -20 -20 -20 -20 15 -20 -20 -10 -17 -20 -20 -20 -20 -20 -20 -20 -17 4 11 18 5 7 4 27 19 24 25 21 21 25 9 20 14 -4 1 -7 -19 -13 -20

GFSGBSN_prec_radar_087.txt.gz
Reflectivity
8 10 12 1 8 1 -20 4 -20 0 -7 -20 -20 -20 3 -12 -20 -20 -20 -20 -20 -20 -20 -20 -20 -20 -20 -20 -20 -20 -20 -20 -20 -20 -20 -20 -20 -20 -20 -20 -20 -20 -20 -20 -20 -20 -20
9 1 24 14 24 12 3 17 1 -20 -10 6 8 3 -3 2 1 -20 -20 -20 -20 -20 -20 -20 -20 -20 -20 -20 -20 -20 -20 -20 -20 -20 -20 -20 -20 -20 -20 -20 -20 -20 -20 -20 -20 -20 -20
8 -6 20 12 18 29 14 9 14 22 7 -2 8 -5 -18 -6 12 -15 -19 -20 -20 -20 -20 -20 -20 -19 -20 -20 -20 -20 -20 -20 -20 -20 -20 -20 -20 -20 -20 -20 -20 -20 -20 -20 -20 -20 -20
14 15 16 26 14 32 21 23 26 23 25 17 1 14 16 -4 7 3 -18 -19 -20 -20 -20 -20 -17 -20 -20 -20 -20 -20 -20 -20 -20 -20 -20 -20 -20 -20 -20 -20 -20 -20 -20 -20 -20 -20 -20
8 18 19 21 19 17 30 26 14 25 25 24 18 13 25 24 8 -8 -20 -20 -19 -20 -20 -20 -20 -20 -20 -20 -20 -20 -20 -20 -20 -20 -20 -20 -20 -20 -20 -20 -20 -20 -20 -20 -20 -20 -20
15 15 15 23 24 23 23 21 25 17 23 28 31 28 26 18 23 4 -11 -20 -20 -20 -20 -20 -20 -8 -20 -20 -20 -20 -20 -20 -20 -20 -20 -20 -20 -20 -20 -20 -20 -20 -20 -20 -20 -20 -20
14 15 17 23 27 20 23 19 20 16 24 22 23 28 24 28 14 7 13 -10 -20 -20 -20 -20 -20 -20 -20 -20 -20 -20 -20 -20 -20 -20 -20 -20 -20 -20 -20 -20 -20 -20 -20 -20 -20 -20 -20
-18 16 29 31 27 19 27 23 12 6 15 25 6 10 7 3 -4 9 4 -20 -15 -19 -20 -20 -20 -20 -20 -20 -20 -20 -20 -20 -20 -20 -20 -20 -20 -20 -20 -20 -20 -20 -20 -20 -20 -20 -20
17 24 26 25 23 28 29 22 25 22 15 7 -20 -15 -4 -20 -20 -20 -19 -13 -17 -20 -20 -20 -20 -20 -20 -20 -20 -20 -20 -20 -20 -20 -20 -20 -20 -20 -20 -20 -20 -20 -20 -20 -20 -20 -20
29 30 31 31 29 31 28 32 26 20 14 -18 2 13 -13 -18 -19 -18 -5 -8 -19 -20 -20 -20 -20 -20 -20 -20 -20 -20 -20 -20 -20 -20 -20 -20 -20 -20 -20 -20 -20 -20 -20 -20 -20 -20 -20
29 29 28 31 29 29 30 29 30 22 -4 -20 -15 -19 -7 -17 -7 -18 0 -4 -10 -20 -12 -20 -20 -20 -20 -20 -20 -20 -20 -20 -20 -20 -20 -20 -20 -20 -20 -20 -20 -20 -20 -20 -20 -20 -20
34 33 34 31 31 34 27 23 27 12 5 -9 -3 -14 -10 -3 1 7 3 -10 -14 -20 -10 -20 -20 -20 -20 -20 -20 -20 -20 -20 -20 -20 -20 -20 -20 -20 -20 -20 -20 -20 -20 -20 -20 -20 -20
37 37 38 34 31 27 22 25 25 21 14 -3 12 8 5 10 13 15 3 -0 -20 -20 -4 -20 -20 -20 -20 -20 -20 -20 -20 -20 -20 -20 -20 -20 -20 -20 -20 -20 -20 -20 -20 -20 -20 -20 -20
32 30 31 29 27 17 14 15 23 23 17 11 14 8 13 13 12 -1 9 -1 -15 5 -19 -20 -20 -20 -20 -20 -20 -20 -20 -20 -20 -20 -20 -20 -20 -20 -20 -20 -20 -20 -20 -20 -20 -20 -20
19 25 29 22 21 21 21 20 19 16 23 20 18 6 -3 4 8 -3 -20 -19 -7 -19 -20 -6 2 -20 -20 -20 -20 -20 -20 -20 -20 -20 -20 -20 -20 -20 -20 -20 -20 -20 -20 -20 3 -20 -20
11 16 21 19 20 15 19 14 16 21 25 20 24 19 16 -1 -19 -20 -8 0 -20 -18 -2 -13 -20 -20 -20 -20 -20 -20 -20 -20 -20 -20 -20 -20 -20 -20 -20 12 -18 -20 -20 -0 19 1 -10
-4 11 5 20 20 4 -18 -4 -0 20 19 14 11 9 6 5 -12 -7 -16 -12 -15 -6 -20 -20 -20 -20 -20 -20 -20 -20 -20 -20 -20 -20 -20 -20 -20 -20 -20 -20 -20 -20 -20 -20 -12 14 -13
-13 -9 -10 17 -20 -20 -2 1 -7 11 12 5 -3 3 7 -11 -17 -2 -9 -18 -19 -20 -20 -20 -20 -20 -20 -20 -20 -20 -20 -20 -20 -20 -20 -20 -20 -20 -20 -20 -20 18 -3 14 20 9 5
-14 -3 10 9 -20 -20 -18 -8 -2 -1 -11 -4 -6 -6 -19 -19 -19 -18 -20 -20 -20 -20 -20 -20 -20 -20 -20 -20 -20 -20 -20 -20 -20 -20 -20 -20 -13 -20 -20 -20 -20 -20 7 33 0 17 22
-20 -20 -13 -10 -20 -20 -19 -18 3 5 -9 -15 -6 -15 -10 -18 -17 -20 -20 -20 -20 -20 -20 -20 -20 -20 -20 -20 -20 -20 -20 -20 -20 -20 -20 -20 -20 -20 9 -20 -19 -2 -11 17 7 27 29
-20 -20 -20 -14 -15 -0 -7 -20 -20 -18 -20 -9 2 0 -18 -20 -20 -20 -20 -20 -20 -20 -20 -20 -20 -20 -20 -20 -20 -20 -20 -20 -20 -20 -20 -20 -20 -20 -20 -20 -13 15 -11 0 7 8 21
-20 -20 -20 -20 -20 -19 -9 -20 -20 -4 3 2 -20 -20 -20 -20 -20 -20 -20 -20 -20 -20 -20 -20 -20 -20 -20 -20 -20 -20 -20 -20 -20 -20 -20 -20 -20 -20 -20 -20 -20 -17 -20 -20 16 7 -17
-20 -20 -20 -20 -20 -20 -20 -20 -20 -17 -20 -20 -20 -20 -20 -20 -20 -20 -20 -20 -20 -20 -20 -20 -20 -20 -20 -20 -20 -20 -20 -20 -20 -20 -20 -20 -20 -8 -20 3 12 -4 -15 10 -6 22 -19
-19 -20 -20 -20 -20 -20 -15 -19 -20 -20 -20 -20 -20 -20 -20 -20 -20 -20 -20 -20 -20 -20 -20 -20 -20 -20 -20 -20 -20 -20 -20 -20 -20 -20 -20 -20 -20 5 -19 -14 3 -20 17 2 2 33 27
13 -18 -20 -20 -20 -20 -4 -20 -20 -20 -20 -20 -20 -20 -20 -20 -20 -20 -20 -20 -20 -20 -20 -20 -20 -20 -20 -20 -20 -20 -20 -20 -20 -20 -20 -19 -17 9 13 16 -20 -20 27 32 13 23 -16
21 -20 6 -17 -20 8 -18 -20 -20 -20 -20 -20 -20 -20 -20 -20 -20 -20 -20 -20 -20 -20 -20 -18 -20 -20 -20 -20 -20 -6 -20 -20 -18 -19 -20 -20 -9 -14 10 8 -9 23 29 17 35 13 23
11 -20 -20 5 9 9 -20 -20 -20 -20 -20 -20 -20 -20 -20 -20 -20 -20 -20 -20 -20 -20 -20 -20 -20 -20 -20 -20 -20 13 -19 -20 -6 25 -20 -20 3 -15 -20 -11 15 32 37 24 18 15 -20
-20 -20 -20 -20 -20 -2 -20 -20 -20 -20 -20 -20 -20 -20 -20 -20 -20 -20 -20 -20 -20 -20 -20 -20 -20 -20 -20 -20 4 -20 -20 -20 24 33 14 5 10 5 12 18 20 16 20 13 25 -2 -13
-20 -20 1 4 -20 11 -20 -20 -20 -20 -20 -20 -20 -20 -20 -20 -19 -20 -20 -20 -20 -20 -20 -20 -20 -20 -20 -20 -20 -20 -11 -1 13 16 32 30 32 20 19 20 30 9 4 7 1 11 -18

GFSGBSN_prec_radar_090.txt.gz
Reflectivity
16 7 -20 -20 -20 -13 -6 -2 -18 -20 -16 1 -5 -20 -20 -20 -20 -3 -17 -20 -20 -20 -20 -20 -20 -20 -20 -20 -20 -20 -20 -20 -20 -20 -20 -20 -20 -20 -20 -20 -20 -20 -20 -20 -20 -20 -20
2 12 6 1 -9 -9 3 10 22 10 13 1 6 -18 -20 -3 -16 4 -10 -14 -20 -20 -20 -20 -20 3 -19 -20 -20 -20 -20 -20 -20 -20 -20 -20 -20 -20 -20 -20 -20 -20 -20 -20 -20 -20 -20
-3 7 3 10 -12 12 19 15 22 10 22 26 14 15 4 15 12 -15 0 10 -18 -20 -20 -20 -20 1 -18 -20 -20 -20 -20 -20 -20 -20 -20 -20 -20 -20 -20 -20 -20 -20 -20 -20 -20 -20 -20
-12 -5 5 10 10 9 -1 14 25 21 28 23 10 21 19 11 8 12 -11 -4 11 18 -2 -20 -15 11 -20 -20 -20 -20 -20 -20 -20 -20 -20 -20 -20 -20 -20 -20 -20 -20 -20 -20 -20 -20 -20
-20 -20 -3 9 9 10 14 25 21 23 20 23 26 15 17 -4 21 18 7 14 13 21 -5 -20 4 -8 -20 -20 -20 -20 -20 -20 -20 -20 -20 -20 -20 -20 -20 -20 -20 -20 -20 -20 -20 -20 -20
15 -20 -16 -4 12 13 20 24 20 22 25 22 19 11 19 18 21 15 23 12 -7 0 -20 -1 -19 4 -20 -20 -20 -20 -20 -20 -20 -20 -20 -20 -20 -20 -20 -20 -20 -20 -20 -20 -20 -20 -20
15 15 7 -1 13 22 22 26 14 18 21 15 -5 23 24 20 19 17 22 15 16 -1 6 -16 -15 -20 -20 -20 -20 -20 -20 -20 -20 -20 -20 -20 -20 -20 -20 -20 -20 -20 -20 -20 -20 -20 -20
2 6 14 17 14 22 20 16 18 26 21 20 -15 2 8 18 11 10 -17 -14 -20 -13 -7 -20 -13 -20 -20 -20 -20 -20 -20 -20 -20 -20 -20 -20 -20 -20 -20 -20 -20 -20 -20 -20 -20 -20 -20
-4 7 -4 5 29 28 28 27 31 27 25 14 7 18 19 8 -18 -20 -20 -20 -14 -13 -20 -20 -20 -20 -20 -20 -20 -20 -20 -20 -20 -20 -20 -20 -20 -20 -20 -20 -20 -20 -20 -20 -20 -20 -20
7 7 12 13 22 24 25 31 19 23 20 19 13 -8 15 -16 -20 -20 -20 8 -4 -20 -20 -20 -20 -20 -20 -20 -20 -20 -20 -20 -20 -20 -20 -20 -20 -20 -20 -20 -20 -20 -20 -20 -20 -20 -20
-10 18 36 31 34 34 28 34 30 28 25 11 17 -13 -20 -20 -20 -20 -14 -20 -3 -12 -20 -20 -20 -20 -20 -20 -20 -20 -20 -20 -20 -20 -20 -20 -20 -20 -20 -20 -20 -20 -20 -20 -20 -20 -20
5 19 24 43 28 28 33 34 33 32 20 -1 -11 -20 -20 -20 -20 -7 9 -14 -18 -13 -17 -20 -20 -18 -20 -20 -20 -20 -20 -20 -20 -20 -20 -20 -20 -20 -20 -20 -20 -20 -20 -20 -20 -20 -20
5 9 19 37 33 31 35 34 31 32 26 17 -10 -20 -20 -4 -13 14 7 -17 4 2 -20 -20 -20 -17 -11 -20 -20 -20 -20 -20 -20 -20 -20 -20 -20 -20 -20 -20 -20 -20 -20 -20 -20 -20 -20
12 -5 2 27 29 27 25 14 10 1 18 19 -6 -5 3 8 12 1 -0 8 -4 -1 4 -20 -20 3 5 -8 -20 -20 -20 -20 -15 -20 -20 -20 -20 -20 -20 -20 -20 -20 -20 -20 -20 -20 -20
3 2 5 20 21 19 25 2 5 9 -1 -13 1 -1 19 22 15 9 5 3 -4 -9 -1 -9 -4 3 0 -18 -20 -20 -13 -20 -20 -20 -20 -20 -20 -20 -20 -20 -20 -20 -20 -20 -18 -20 -18
16 10 -9 13 14 -4 1 2 1 -11 -20 -4 6 19 20 20 14 11 10 9 -16 7 7 -9 -20 -17 -18 -20 -20 -20 -20 -20 -20 -20 -20 -20 -20 -20 -20 -20 -20 -20 -11 -10 -20 -2 -12
-10 -5 -9 8 9 11 12 -20 -20 -14 5 6 2 14 16 18 16 14 1 -17 -15 -3 6 1 -20 -20 -20 -20 -20 -20 -20 -20 -20 -20 -20 -20 -20 -20 -20 -20 -20 -5 -20 -2 -8 9 9
-1 5 13 19 14 7 -20 -20 -20 -4 -2 -8 -2 13 14 5 0 -5 4 7 5 -4 -19 -18 -20 -20 -20 -20 -20 -20 -20 -20 -20 -20 -20 -20 -20 -20 -20 -20 -20 -10 8 -19 13 -16 -18
-20 -2 6 -2 -5 -20 -20 -20 -20 -20 -16 -3 -11 11 12 9 6 -10 -12 -1 -11 -19 -20 -20 -20 -20 -20 -20 -20 -20 -20 -20 -20 -20 -20 -20 -20 -20 -20 -20 -20 -20 -6 -3 -5 -1 1
-20 -18 3 1 -20 -20 -20 -20 -20 -20 -20 -16 -9 -13 -7 -20 -16 -13 -4 -20 -20 -20 -20 -20 -20 -20 -20 -20 -20 -20 -20 -20 -20 -20 -20 -20 -20 -20 -20 -20 -20 -20 -20 6 0 6 -2
-20 -16 -13 7 -20 -20 -20 -20 -20 -20 -20 -20 -20 -20 -20 -20 -20 -20 -20 -20 -20 -20 -20 -20 -20 -20 -20 -20 -20 -20 -20 -20 -20 -20 -20 -20 -20 -20 -20 -20 -20 -20 -20 -20 -14 -20 25
-20 -20 6 -20 -20 -20 -17 -20 -20 -20 -20 -20 -20 -20 -20 -20 -20 -20 -20 -20 -20 -20 -20 -20 -20 -20 -20 -20 -20 -20 -20 -20 -20 -20 -20 -20 -20 -20 -20 -20 -20 -20 -20 -20 -20 -20 -2
-20 -20 -20 5 -20 -20 -20 -20 -20 -20 -19 -16 -19 -20 -20 -20 -20 -20 -20 -20 -20 -20 -20 -20 -20 -20 -20 -20 -20 -20 -20 -20 -20 -20 -20 -20 -20 -20 -20 -20 -20 -20 -20 -20 -18 3 8
-20 -20 -20 -20 -20 -17 -14 -20 -20 -20 -17 -20 -20 -20 -20 -20 -20 -20 -20 -20 -20 -20 -20 -20 -20 -20 -20 -20 -20 -20 -20 -20 -20 -20 -20 -20 -20 -20 -12 -20 -16 11 24 -6 7 11 34
-0 -20 -20 -20 -20 -20 -20 -20 -20 -20 -20 -20 -20 -20 -20 -20 -20 -20 -20 -20 -20 -20 -20 -20 -20 -20 -20 -20 -20 -20 -20 -20 -20 -20 -20 -20 1 16 7 -17 -18 -8 22 22 10 20 10
15 -10 -4 -20 -20 -20 -20 -20 -20 -20 -20 -20 -20 -20 -20 -20 -20 -20 -20 -20 -20 -20 -20 -20 -20 -20 -20 -20 -20 -20 -20 -20 -20 -20 -20 -11 -2 11 6 8 -1 0 -19 18 31 22 32
30 14 -20 -11 -20 -20 -20 -20 -20 -20 -20 -20 -20 -20 -20 -20 -20 -20 -20 -20 -20 -20 -20 -20 -20 -20 -20 -20 -20 -14 -20 -20 8 -7 15 -20 -8 -8 -20 2 -10 9 9 33 23 18 14
18 16 -20 -20 -20 -20 -20 -20 -20 -20 -20 -20 -20 -20 -20 -20 -20 -20 -20 -20 -20 -20 -20 -20 -20 -20 -20 -20 -20 -20 -20 -19 8 22 9 17 13 4 12 16 7 4 18 24 26 28 -10
12 -18 -20 -20 13 -17 -20 -20 -20 -20 -20 -20 -20 -20 -20 -20 -20 -20 -20 -20 -20 -20 -20 -20 -20 -20 -20 -20 -20 -20 -20 -18 -12 18 23 19 21 21 1 11 18 17 12 31 25 1 -2

GFSGBSN_prec_radar_093.txt.gz
Reflectivity
-20 -20 0 3 13 -0 -15 3 -3 -5 -10 7 -20 -20 -10 -14 -10 -20 -20 -20 -20 -20 -20 -20 -20 -20 -20 -20 -13 -20 -20 -20 -20 -20 -20 -20 -20 -20 -20 -20 -20 -20 -20 -20 -20 -20 -20
-20 -20 -20 -12 9 12 13 -3 -20 12 13 -4 7 15 -7 15 -5 -9 -20 -16 -20 -20 -20 -20 -20 -20 -20 -18 -0 -20 -20 -20 -20 -20 -20 -20 -20 -20 -20 -20 -20 -20 -20 -20 -20 -20 -20
-20 -20 -20 -8 -6 6 10 3 -2 16 8 23 23 19 13 -20 -15 4 -14 11 4 -20 2 -20 -20 -20 -20 -4 -2 -20 -20 -19 -20 -20 -20 -20 -20 -20 -20 -20 -20 -20 -20 -20 -20 -20 -20
-20 -20 -20 -20 -4 -4 -3 16 18 10 11 10 16 29 10 22 11 15 6 11 11 11 -5 -20 -20 -4 -20 6 -13 -20 -20 -20 -20 -20 -20 -20 -20 -20 -20 -20 -20 -20 -20 -20 -20 -20 -20
-20 -20 -20 -20 -4 -0 -3 4 12 -4 22 18 22 21 22 25 22 19 16 17 14 -5 8 -20 4 -9 -20 -20 -14 -19 -20 -20 -20 -20 -20 -20 -20 -20 -20 -20 -20 -20 -20 -20 -20 -20 -20
-20 -20 -20 -1 17 8 5 5 8 20 22 16 18 23 18 19 32 24 22 10 24 4 2 -20 -12 -18 -20 -20 -20 -20 -20 -20 -20 -20 -20 -20 -20 -20 -20 -20 -20 -20 -20 -20 -20 -20 -20
-20 -20 -9 13 18 6 12 -6 10 9 18 20 22 22 -8 27 18 24 28 30 10 11 -10 -20 -9 -20 -20 -20 -20 -20 -20 -20 -20 -20 -20 -20 -20 -20 -20 -20 -20 -20 -20 -20 -20 -20 -20
-20 -20 -18 10 17 13 10 19 16 18 19 21 26 6 -4 -16 18 6 24 31 21 27 -0 -20 -20 -20 -20 -20 -7 -16 -20 -20 -20 -20 -20 -20 -20 -20 -20 -20 -20 -20 -20 -20 -20 -20 -20
-20 -20 -20 -2 15 12 14 3 17 15 12 21 15 21 14 2 -1 -13 -18 16 9 13 -18 -20 -20 -20 -4 -20 -20 -14 -20 -20 -20 -20 -20 -20 -20 -20 -20 -20 -20 -20 -20 -20 -20 -20 -20
-20 -20 -20 -19 1 19 4 18 26 27 25 24 25 23 28 1 6 -12 -15 -20 -2 13 -0 -20 -20 -20 -20 -20 -20 -20 -20 -20 -20 -20 -20 -20 -20 -20 -20 -20 -20 -20 -20 -20 -20 -20 -20
-20 -20 -20 -14 15 25 20 25 28 25 22 25 35 25 17 9 -1 -20 -20 -20 -2 11 4 -20 -20 -20 -20 -20 -20 -20 -20 -20 -20 -20 -20 -20 -20 -20 -20 -20 -20 -20 -20 -20 -20 -20 -20
-20 -20 -20 -20 -3 22 32 33 35 30 29 26 30 34 15 25 11 -5 -1 -4 -14 -19 -10 -20 -20 -20 -20 -20 -20 -20 -20 -20 -20 -20 -20 -20 -20 -20 -20 -20 -20 -20 -20 -20 -20 -20 -20
-16 -20 -20 -20 -4 -9 25 39 30 34 33 36 35 11 28 24 -4 -12 -3 -4 -0 -17 -20 -20 -20 -20 -20 -20 -20 -20 -20 -20 -20 -20 -20 -20 -20 -10 -5 -17 -20 -20 -20 -20 -20 -20 -20
16 12 7 1 2 -1 3 15 7 13 25 23 22 17 12 5 19 20 -10 7 -18 -20 -7 -20 7 2 -13 -20 -20 -5 -17 -20 -20 -20 -20 -20 -11 -20 -20 -20 -20 -20 -20 -20 -20 -20 -20
14 13 11 13 6 -0 -15 -0 7 -17 24 14 -20 -8 -10 -20 -20 7 4 1 -20 -16 -3 -18 6 11 -18 -20 -20 -20 -20 -13 -12 -10 -8 -20 -18 -7 -20 -20 -20 -20 -20 -20 -20 -20 -20
5 11 12 -14 -20 -5 -20 -20 -20 -11 -10 -14 -20 -20 -20 -16 2 -6 -9 -15 -5 11 11 11 11 4 -11 -15 -12 -7 -1 -15 -20 -20 -20 -20 -20 -20 -16 -20 -20 -20 -20 -20 -20 -6 -8
8 11 8 6 4 7 -13 -20 -20 -20 -19 -20 -20 -20 -20 -20 -19 -5 -20 -5 2 14 5 11 11 7 8 7 3 -0 -20 -20 -20 -20 -20 -20 -20 -20 -20 -20 -20 -20 -20 -10 -20 -13 3
-8 12 -10 11 6 14 3 3 -20 -20 -20 -20 -20 -20 -20 -13 0 -2 -10 -1 11 14 11 13 15 7 5 8 -1 -20 -20 -20 -20 -20 -20 -20 -20 -20 -20 -20 -20 -20 -17 -20 -3 14 -20
-20 11 18 15 3 -20 -20 -20 -20 -20 -20 -20 -20 -20 -20 -20 2 -5 -4 8 12 7 8 2 1 2 -3 -20 -20 -20 -20 -20 -20 -20 -20 -20 -20 -20 -20 -20 -20 -20 -20 -20 -20 -13 -11
-20 11 9 -10 -20 -20 -20 -20 -20 -20 -20 -20 -20 -20 -19 -20 -15 -9 1 9 8 0 -1 -1 -6 -16 -20 -20 -20 -20 -20 -20 -20 -20 -20 -20 -20 -20 -20 -20 -20 -20 -20 -20 -20 -20 -20
-20 -2 2 9 12 -20 -20 -20 -20 -20 -20 -20 -20 -20 -20 -20 -20 -20 -4 -3 -20 -20 -20 -20 -20 -20 -20 -20 -20 -20 -20 -20 -20 -20 -20 -20 -20 -20 -20 -20 -20 -20 -20 -20 -20 -20 -20
-20 7 17 11 -19 -20 -20 -20 -20 -20 -20 -20 -20 -20 -20 -20 -20 -20 -20 -20 -20 -20 -20 -20 -20 -20 -20 -20 -20 -20 -20 -20 -20 -20 -20 -20 -20 -20 -20 -20 -20 -20 -20 -20 -20 -20 -20
-20 -20 13 -20 -20 -20 -20 -20 -20 -20 -20 -19 -20 -20 -20 -20 -20 -20 -20 -20 -20 -20 -20 -20 -20 -20 -20 -20 -20 -20 -20 -20 -20 -20 -20 -20 -20 -20 -20 -20 -20 -20 -11 -7 -17 -20 -7
-20 -20 -19 -2 -20 -20 -20 -20 -20 -16 -19 -20 -20 -20 -20 -20 -20 -20 -20 -20 -20 -20 -20 -20 -20 -20 -20 -20 -20 -20 -20 -20 -20 -20 -20 -20 -20 -20 -20 -20 -20 -20 -17 32 13 -12 13
-20 -20 -17 -20 -20 -20 -20 -20 -20 -20 -20 -20 -20 -20 -20 -20 -20 -20 -20 -20 -20 -20 -20 -20 -20 -20 -20 -20 -20 -20 -20 -20 -20 -20 -20 -20 -20 -20 -20 -20 -20 -20 4 25 23 15 13
-18 -20 -20 -20 -20 -17 -20 -20 -20 -20 -20 -20 -20 -20 -20 -20 -20 -20 -20 -20 -20 -20 -20 -20 -20 -20 -20 -20 -20 -20 -20 -20 -20 -20 -20 -20 -15 3 12 -20 -20 -18 -14 -11 29 20 7
10 13 3 -20 -20 -20 -20 -20 -20 -20 -20 -20 -20 -20 -20 -20 -20 -20 -20 -20 -20 -20 -20 -20 -20 -20 -20 -20 -20 -20 -20 -20 -11 -20 5 -20 3 -18 -20 -18 -17 -6 -4 29 21 11 5
14 16 -19 -20 -20 -20 -20 -20 -20 -20 -20 -20 -20 -20 -20 -20 -20 -20 -20 -20 -20 -20 -20 -20 -20 -20 -20 -20 -20 -20 -20 -20 -16 -9 1 14 -3 3 3 9 8 6 19 16 19 11 15
29 15 11 -20 -20 -20 -20 -20 -20 -20 -20 -20 -20 -20 -20 -20 -20 -20 -20 -20 -20 -20 -20 -20 -20 -20 -20 -20 -20 -20 -20 -20 -20 -18 6 10 12 6 7 11 12 9 19 14 26 11 5

GFSGBSN_prec_radar_096.txt.gz
Reflectivity
-20 -20 -20 -20 -20 -20 -7 12 7 9 -10 -20 -19 -3 9 13 5 14 10 7 -20 -20 -20 -20 -20 -20 -20 -20 -20 -20 -20 -20 -20 -20 -20 -20 -20 -20 -20 -20 -20 -20 -20 -20 -20 -20 -20
-3 -20 -20 -20 -20 -20 -20 -20 8 4 -4 10 -12 -20 11 18 6 21 18 13 9 -20 -20 -20 -20 -20 -20 -20 -10 -20 -20 -20 -20 -20 -20 -20 -20 -20 -20 -20 -20 -20 -20 -20 -20 -20 -20
9 -20 -20 -20 -20 -20 -20 -20 -8 5 -14 0 -20 -19 16 19 25 5 -1 13 4 4 -20 -20 -20 -20 -20 -20 -13 -20 -20 -20 -20 -20 -20 -20 -20 -20 -20 -20 -20 -20 -20 -20 -20 -20 -20
6 -20 -20 -20 -20 -16 -13 -10 -1 -1 8 2 13 5 6 18 16 14 13 34 8 18 -3 16 -17 -7 -20 -20 -20 -20 -20 -20 -20 -20 -20 -20 -20 -20 -20 -20 -20 -20 -20 -20 -20 -20 -20
8 -20 -20 -2 -20 -11 16 17 16 7 -2 7 6 12 18 7 15 -7 10 31 16 27 22 6 1 6 -20 -20 -20 -20 -20 -20 -20 -20 -20 -20 -20 -20 -20 -20 -20 -20 -20 -20 -20 -20 -20
6 -20 -18 -20 -20 -19 -8 15 14 15 16 7 15 16 17 18 14 5 6 11 15 21 23 21 3 -17 -20 -20 -20 -20 -20 -20 -20 -20 -20 -20 -20 -20 -20 -20 -20 -20 -20 -20 -20 -20 -20
8 -20 -20 -20 -20 -13 -3 17 15 11 6 -7 14 19 19 17 5 11 11 11 21 16 11 -1 26 -20 -20 -20 -20 -20 -20 -20 -20 -20 -20 -20 -20 -20 -20 -20 -20 -20 -20 -20 -20 -20 -20
-20 -20 -20 -20 -20 -2 9 17 15 16 18 12 17 18 17 6 14 17 -11 -8 -15 1 30 28 6 21 -20 8 -20 -20 -20 -20 -20 -20 -20 -20 -20 -20 -20 -20 -20 -20 -20 -20 -20 -20 -20
-20 -7 -20 -20 -20 -11 -3 14 -7 15 17 15 21 24 21 21 19 22 -10 -20 -9 12 9 1 -20 6 4 26 5 -10 -20 -20 -14 -20 -20 -20 -20 -20 -20 -20 -20 -20 -20 -20 -20 -20 -20
-5 3 -20 -20 -20 -20 -20 8 11 13 10 21 28 27 22 23 14 -19 -8 3 14 -12 -16 -20 -14 -16 3 5 -18 -15 -20 -15 -9 -20 -20 -20 -20 -20 -20 -20 -20 -20 -20 -20 -20 -20 -20
-9 12 -20 -20 8 16 6 4 19 21 26 21 27 25 31 26 8 -1 20 23 9 -19 -3 -20 -20 -20 -20 -20 -20 -20 5 -20 -20 -15 -20 -20 -20 -20 -20 -20 -20 -20 -20 -20 -20 -20 -20
4 9 12 -20 -20 -13 -9 12 24 26 29 30 26 25 18 25 9 34 29 25 4 -4 -11 -20 -20 -20 -20 -20 -20 -20 -20 -20 -20 -20 -20 -20 -20 -20 -20 -20 -20 -20 -20 -20 -20 -20 -20
10 2 10 5 -3 -14 16 6 17 28 33 33 35 41 22 23 27 31 20 17 19 -8 -12 12 -18 -20 -20 -20 -20 -20 -9 -20 -20 -20 -20 -20 -20 -20 -20 -20 -20 -20 -20 -20 -20 -20 -20
19 16 15 15 14 -13 -18 12 -3 12 25 30 33 33 12 26 30 33 31 19 12 -16 -20 -20 -20 -20 -20 -20 -19 -20 -13 -20 -20 -20 -20 -20 -12 -20 -20 -7 -6 -8 -20 -20 -20 -20 -20
12 9 14 17 21 11 10 -13 -20 -20 -20 -20 -20 -20 -11 19 27 21 14 16 -20 -17 8 -19 8 11 -19 -20 -20 -20 -20 -20 -20 -20 -19 -17 -14 -6 -18 -20 -11 -1 -20 -20 -20 -20 -20
12 14 11 6 1 8 -1 -20 -20 -19 2 -9 -20 -17 -20 -20 -16 10 22 -20 -17 3 -20 2 13 25 9 6 9 2 2 6 -2 1 7 -4 4 13 -4 -20 -20 -20 -20 -20 -20 -20 -20
-10 10 11 10 14 10 12 7 -0 7 8 -14 -20 -20 -14 -20 -15 24 11 3 -7 -18 -19 9 7 29 9 6 -20 1 1 3 3 13 10 4 -1 -5 0 -13 -20 -20 -20 -20 -20 -20 -4
-20 -1 -12 5 12 16 9 -16 -20 -20 -17 -20 -20 -20 -11 -19 -6 16 7 5 9 -5 6 -3 19 20 11 0 -18 -20 -20 -15 9 10 1 -10 -20 -20 -16 -13 -8 -20 -8 -20 -20 -19 -20
-18 -15 -13 11 9 19 7 -7 -20 -20 -20 -20 -20 -13 -15 -20 5 8 -6 -20 -8 4 6 7 11 12 13 -10 -20 -16 -6 -3 -1 -0 -18 -20 -20 -20 -20 -20 -13 -16 -20 -20 -20 -20 -20
-12 -20 -3 18 12 -16 6 -20 -20 -20 -20 -20 -20 -20 -20 -4 -18 -20 -20 -12 1 9 12 -6 10 14 9 -0 -0 -5 -11 -20 -20 -20 -20 -20 -20 -20 -20 -20 -20 -20 -20 -20 -20 -20 -20
-20 -16 -14 -19 -20 -20 -19 -20 -20 -20 -20 -4 -20 -20 -20 -20 -20 -20 -20 -20 -20 -8 -1 14 -2 -1 -3 -13 -20 -20 -20 -20 -20 -20 -20 -20 -20 -20 -20 -20 -20 -20 -20 -20 -20 -20 -20
-20 -20 9 -14 7 -16 -20 -20 -20 -20 -20 -17 -20 -20 -17 -20 -16 -20 -20 -20 -20 -8 -20 -20 -19 -20 -20 -20 -20 -20 -20 -20 -20 -20 -20 -20 -20 -20 -20 -20 -20 -20 -20 -20 -20 -20 -20
-20 -4 9 14 -20 -20 -20 -20 -20 -20 -18 1 -14 -20 -20 -20 -20 -20 -20 -20 -20 -20 -20 -20 -20 -20 -20 -20 -20 -20 -20 -20 -20 -20 -20 -20 -20 -20 -20 -20 -20 -20 -20 -20 -16 -20 -20
-20 -20 13 -12 -20 -20 -20 -20 -20 -14 -16 -13 -7 -11 -12 -20 -20 -20 -20 -20 -20 -20 -20 -20 -20 -20 -20 -20 -20 -20 -20 -20 -20 -20 -20 -20 -20 -20 -20 -20 -20 -20 -20 -20 -20 5 8
-20 -5 0 -14 -20 -20 -20 -20 -20 -20 -20 -13 -19 -20 -20 -20 -20 -20 -20 -20 -20 -20 -20 -20 -20 -20 -20 -20 -20 -20 -20 -20 -20 -20 -20 -20 -20 -20 -20 -20 -20 -20 -0 -18 -2 -19 12
-20 -20 -19 -20 -20 -20 -20 -20 -19 -3 -20 -20 -20 -20 -20 -20 -20 -20 -20 -20 -20 -20 -20 -20 -20 -20 -20 -20 -20 -20 -20 -20 -20 -20 -20 -20 -20 -20 -5 -20 -20 -20 -20 -13 8 4 7
-20 -12 -20 -20 -20 -20 -20 -7 -20 -20 -20 -20 -20 -20 -20 -20 -20 -20 -20 -20 -20 -20 -20 -20 -20 -20 -20 -20 -20 -20 -20 -20 -20 -20 -1 -20 0 -20 -20 -17 -20 -20 -18 -14 10 8 13
16 14 -20 -20 -20 -20 -17 -20 -20 -20 -15 -20 -20 -20 -20 -20 -20 -20 -20 -20 -20 -20 -20 -20 -20 -20 -20 -20 -20 -20 -20 -20 -20 -20 -20 -9 -20 -13 -6 -20 -20 -20 -20 -8 11 13 21
20 15 -20 10 -20 -20 -20 -20 -7 -20 -20 -20 -20 -20 -20 -20 -20 -20 -20 -20 -20 -20 -20 -20 -20 -20 -20 -20 -20 -20 -20 -20 -20 -17 -20 -20 -14 -20 -20 -20 2 -3 9 14 12 17 20

GFSGBSN_prec_radar_099.txt.gz
Reflectivity
11 -0 -15 -20 -20 -20 -20 -20 -20 -20 -8 5 -9 5 8 -17 -3 14 10 -11 8 2 6 4 -17 -20 -20 -20 -20 -20 -20 -20 -20 -20 -20 -20 -20 -20 -20 -20 -20 -20 -20 -20 -20 -20 -20
-9 4 7 -17 -20 -20 -20 -20 -20 -20 -20 2 9 -16 -2 13 -9 16 10 -4 2 -12 4 -12 -12 -20 -20 -20 -20 -20 -20 -20 -20 -20 -20 -20 -20 -20 -20 -20 -20 -20 -20 -20 -20 -20 -20
9 -19 -16 -20 -20 -20 -20 -19 -20 -8 7 -17 4 11 -2 -18 14 18 19 -16 18 -17 14 3 3 -16 -20 -20 -20 -20 -20 -20 -20 -20 -20 -20 -20 -20 -20 -20 -20 -20 -20 -20 -20 -20 -20
-7 -20 -9 2 -20 -20 -20 -20 -20 -20 -8 6 4 8 14 13 19 12 22 10 17 -18 -18 7 -20 -15 -20 -20 -20 -20 -20 -20 -20 -20 -20 -20 -20 -20 -20 -20 -20 -20 -20 -20 -20 -20 -20
-20 -5 5 -14 -20 -20 -20 -20 -20 -20 -1 14 2 13 4 10 11 13 6 7 -6 14 23 -2 -20 -15 -20 -20 -20 -20 -20 -20 -20 -20 -20 -20 -20 -20 -20 -20 -20 -20 -20 -20 -20 -20 -20
-18 -4 6 4 -20 -20 -20 -20 -20 -20 5 14 6 18 16 11 15 21 9 19 7 15 3 -20 -9 -18 -18 -20 -15 -20 -20 -20 -20 -20 -20 -20 -20 -20 -20 -20 -20 -20 -20 -20 -20 -20 -20
-20 -9 8 -20 -20 -20 -2 -20 -9 -10 12 13 6 15 15 14 18 10 -4 18 -9 -9 1 -20 -14 -20 -20 -20 -20 -19 5 7 -20 -20 -20 -20 -20 -20 -20 -8 -15 -20 -20 -20 -20 -20 -20
-20 9 -20 -20 -20 -1 -20 8 -15 8 17 14 7 16 14 17 16 8 16 -0 -11 0 -17 -20 -20 -20 -20 -20 1 4 5 15 -15 -20 -14 -20 -20 -20 -19 -20 -20 -20 -20 -20 -20 -20 -20
12 -3 6 -20 -20 -20 -5 9 -6 17 15 11 -3 9 16 20 22 20 9 -10 -1 8 12 -20 -20 -20 -20 -20 -4 -14 9 28 19 18 16 -5 -20 -20 -20 -20 -20 -20 -20 -20 -20 -20 -20
9 7 -1 -6 0 -20 -20 -20 -20 5 11 16 5 13 17 20 15 17 13 21 0 22 18 -20 -20 -20 -20 -20 -20 -20 12 20 22 16 15 6 -20 -20 -20 -20 -20 -20 -20 -20 -20 -20 -20
12 17 16 4 -20 -20 -20 2 -18 -12 -18 11 21 24 28 27 -6 4 -17 6 10 -20 7 -20 -20 -20 -20 -20 -20 -20 -11 8 22 25 27 15 13 19 14 -18 -17 -20 -20 -20 -20 -20 -20
16 16 9 20 -13 -20 -20 -14 13 6 20 20 23 25 20 11 13 17 22 33 17 16 28 18 -20 -20 -20 -20 -20 -20 -20 11 -7 15 19 9 10 -12 3 3 -3 -20 -20 -20 -20 -20 -20
9 9 -1 7 4 -14 -16 10 9 20 20 20 25 25 26 24 28 36 24 26 17 7 1 -0 3 -20 -20 -20 -20 -20 -13 -19 -14 -19 -20 -20 -20 1 1 -11 -20 -20 -20 -20 -20 -20 -20
12 16 10 3 -1 9 16 16 14 15 21 22 23 27 34 33 36 33 26 13 9 2 14 -6 -20 -20 -20 -20 -20 -20 6 -8 -20 -20 -20 -20 -7 -3 -19 -20 -20 -20 -20 -20 -20 -20 -20
-10 17 4 17 17 16 14 10 2 10 15 8 -17 -17 -20 16 30 21 -0 -3 -18 -3 1 6 -10 -18 -20 -20 -20 -20 -20 -20 -9 -14 -11 7 -4 -20 -20 -20 -20 -20 -20 -20 -20 -20 -20
26 -8 7 7 5 9 12 18 14 -4 -17 -19 -20 -20 -20 7 24 24 7 -16 -20 -20 -20 -20 -17 20 -19 -20 -20 -20 -20 -20 -14 6 2 9 -1 -17 -20 -20 -20 -20 -20 -8 -20 -20 -20
25 1 -17 4 10 4 9 11 10 12 9 -5 2 -20 -20 -3 28 17 -7 -20 -11 -20 -16 -20 -20 2 12 -20 -3 -1 -10 -9 1 22 0 -9 -4 -10 -20 -20 -20 -20 -20 -20 -20 -20 -20
27 15 -20 -20 17 14 10 10 3 -20 0 -20 -20 -13 -3 23 6 23 -20 -20 -9 -16 -10 -20 -14 11 10 -3 -9 9 -2 14 13 17 5 1 -5 2 -7 -20 -20 -20 -20 -20 -20 -20 -20
29 24 -16 -20 -6 19 2 5 -5 -1 -15 -20 -15 15 -9 3 -2 -20 -20 -20 -20 -20 -20 -2 2 12 -5 10 -5 -4 5 15 7 1 -6 -8 -20 -20 -20 -20 -20 -20 -20 -20 -20 -20 -20
34 18 9 -20 5 13 4 4 -20 6 -20 -19 -20 1 22 -3 17 -12 -20 -20 -20 -20 -4 -3 -17 11 1 -8 -18 -20 -20 -5 4 -2 -13 -20 -20 -12 -9 -16 -20 -20 -20 -20 -20 -20 -20
34 36 8 -20 15 14 -20 -8 -20 -20 -20 -14 -20 -20 -16 -20 -20 -20 -20 -20 -20 -19 -1 -20 -12 -6 4 -12 1 -9 -20 -20 -20 -20 -20 -20 -19 -19 -20 -20 -20 -20 -20 -20 -20 -20 -20
36 34 20 15 11 -20 -20 -1 -20 -20 -20 -19 -20 -20 -20 -20 -16 -20 -20 -20 -20 -20 -11 -4 -20 -15 -17 -10 -20 -20 -20 -20 -20 -20 -20 -20 -20 -20 -20 -20 -20 -20 -20 -20 -20 -20 -20
36 23 14 9 -10 -13 -20 -19 -20 -20 -20 2 -20 -20 -20 -20 -20 -17 -20 -20 -20 6 -3 -20 -20 -20 -20 -20 -20 -20 -20 -20 -20 -20 -20 -20 -20 -20 -20 -20 -20 -20 -20 -20 -20 -20 -13
23 17 18 14 8 12 -18 -5 -20 -20 -20 -7 -20 -20 -20 -20 -20 -20 -20 -13 -20 -20 -20 -20 -20 -20 -20 -20 -20 -20 -20 -20 -20 -20 -20 -20 -20 -20 -20 -20 -20 -11 -20 -15 -15 4 -20
14 22 15 8 5 -20 -18 -5 -20 -20 17 -6 -20 -20 -20 -20 -20 -20 -20 -20 -20 -20 -20 -20 -20 -20 -20 -20 -20 -20 -20 -20 -20 -20 -20 -20 -20 -20 -20 -20 -20 -1 -18 -15 -0 -2 -17
12 14 9 8 -20 -20 -15 -20 -20 -20 -18 -20 8 -17 -20 -20 -20 -20 -20 -20 -20 -20 -20 -20 -20 -20 -20 -20 -20 -20 -20 -20 -20 -20 -20 -20 -20 -20 -6 -20 -20 -20 -20 -20 -3 -17 -20
16 18 15 -20 -20 -20 -20 -20 -20 -19 -3 -7 -20 -20 -20 -20 -20 -20 -20 -20 -20 -20 -20 -20 -20 -20 -20 -20 -20 -20 -20 -20 -20 -20 -3 -20 -9 -20 -20 -20 -20 -20 -20 -20 -6 -9 -3
13 -18 -20 -20 -20 -20 -20 -20 -19 -8 -20 -20 -14 -20 -20 -20 -20 -20 -20 -20 -20 -20 -20 -20 -20 -20 -20 -20 -20 -20 -20 -20 -20 -20 6 -12 -11 -19 -7 -11 -20 -20 -20 -20 -14 4 6
12 -15 -4 -20 -20 -20 -18 -15 -20 -20 -20 -10 -20 -20 -20 -20 -20 -20 -20 -20 -20 -20 -20 -20 -20 -20 -20 -20 -20 -20 -20 -20 -20 -17 -20 -20 -20 -20 -20 -20 2 -5 -4 -3 1 5 17

GFSGBSN_prec_radar_102.txt.gz
Reflectivity
-19 5 -3 -18 -20 -20 -20 -20 -20 -20 -20 -20 -19 2 2 -8 -10 -20 2 7 12 14 11 -16 -13 -20 -9 -20 -20 -20 -20 -20 -20 -20 -20 -20 -20 -20 -20 -20 -20 -20 -20 -20 -20 -20 -20
9 0 -7 -20 -20 -20 -20 -20 -20 -20 -20 -20 -20 -17 7 4 -6 -20 -16 9 -16 -19 -4 -19 -20 -3 -19 -20 -20 -20 -20 -20 -20 -20 -20 -20 -20 -20 -20 -20 -20 -20 -20 -20 -20 -20 -20
-20 -20 -20 -20 -20 -7 -20 -20 -20 -20 -20 -18 -20 -14 -20 10 9 4 -17 13 -20 -20 -20 -20 -20 -20 -20 -20 -20 -20 -20 -20 -20 -20 -20 -20 -20 -20 -20 -20 -20 -20 -20 -20 -20 -20 -20
-20 -20 -20 -20 -20 -20 -20 -20 -20 -20 -19 -1 -1 -14 -1 10 -4 5 2 10 -5 -20 -19 3 -14 -20 -20 -20 -20 -20 -20 -20 -20 -20 -20 -20 -20 -20 -20 -20 -20 -20 -20 -20 -20 -20 -20
-20 -20 -20 -20 -20 1 -20 -20 -20 -20 -7 13 2 -20 -0 9 14 13 8 1 -2 -4 -19 3 -7 -20 -20 -20 -20 -20 -20 -20 -20 -20 -20 -20 -20 -20 -20 -20 -20 -20 -20 -20 -20 -20 -20
-16 -20 -20 -20 -20 -20 -20 -20 -20 -20 6 12 -15 -18 11 5 11 15 14 11 11 4 -3 -20 -20 -5 -20 -20 -20 -20 -20 -20 -20 -20 -20 -20 -20 -20 -20 -20 -20 -20 -20 -20 -20 -20 -20
1 -20 -20 -9 -12 -20 -20 -20 -20 -14 10 -6 -20 -15 3 14 15 23 3 12 16 -14 -13 -20 -20 -20 -20 -20 -20 -20 -20 -20 -20 -20 -11 -8 -20 -20 -20 -20 -20 9 -20 -20 -20 -20 -20
-20 -20 -15 -20 -20 -20 -20 -17 -20 -20 -20 -20 -1 3 -11 10 22 4 -14 -1 -2 -20 -20 -20 -20 -20 -20 -20 -20 -20 -20 -20 -20 -14 -18 28 3 7 0 6 1 5 -20 -20 -20 -20 -20
-20 5 -20 -20 -20 -20 -11 -20 -20 -20 -20 -20 -9 6 -6 21 9 22 -15 12 -16 -15 15 -20 -20 -20 -20 -20 -20 -20 -20 -20 -20 7 11 1 6 19 15 -16 8 10 -19 -20 2 -12 -20
-20 -17 -16 -2 -20 -4 4 -20 -20 -20 -20 -20 -20 2 20 24 21 -14 5 3 -5 20 29 -20 -20 -20 -20 -20 -20 -20 -20 -20 -20 -20 16 16 12 21 11 -7 8 2 2 -13 -4 -20 -20
7 -20 4 -18 10 -7 -8 -20 -20 -19 -20 -20 -19 16 9 2 -20 -15 2 -5 -4 31 17 -20 -20 -20 -20 -20 -20 -20 -20 -20 -13 -16 0 9 3 15 32 24 14 -12 6 14 -11 -20 -20
-0 -11 -11 13 -18 -15 13 -20 -9 2 3 11 21 19 13 4 -19 -3 -4 -17 13 21 15 -13 -20 -20 -20 -20 -20 -20 -20 -20 -8 31 28 20 19 23 3 19 26 16 6 -20 -20 -20 -20
-6 -16 10 16 16 -9 -9 -20 -13 1 14 20 22 20 13 13 19 -3 10 25 28 26 7 -15 -20 -20 -20 -20 -20 -20 -15 -20 -6 23 11 15 16 9 2 -2 8 16 19 15 10 2 -12
19 13 28 4 8 15 5 -2 -11 -13 10 21 21 24 20 10 21 28 30 29 20 21 -0 -20 -20 -20 -20 -20 -20 -20 7 9 16 -3 3 11 6 -13 -18 -20 -8 -19 9 14 5 -8 -20
16 17 24 19 6 13 5 5 2 -6 2 11 17 12 21 23 14 7 9 16 7 7 6 -20 -20 -20 -14 -20 -20 -20 -20 4 -20 -20 -3 -16 7 -19 -9 -20 -15 -1 2 -13 -1 -20 -20
17 24 23 24 -5 19 6 4 6 -6 -20 13 9 -7 1 -1 -2 14 14 -20 -19 -11 -16 -20 -20 -20 9 -20 -20 -20 -20 2 -18 -20 -13 -20 10 -19 -20 -16 -1 -16 5 4 -5 8 7
-15 19 25 9 -15 -5 9 8 11 -16 -20 -20 -20 -20 5 21 16 25 6 -20 -20 -20 -20 -20 -13 -20 -17 -20 -12 3 2 -20 -20 -7 16 -1 3 -15 -8 -9 -1 -20 -20 5 5 10 10
-18 -11 41 20 -0 -20 -18 4 15 12 -18 -16 -16 -12 14 23 26 23 8 -20 -20 -20 -20 -20 -20 -20 -20 -8 18 -20 -20 -20 -20 -20 -4 12 -13 -9 -2 -20 -19 -20 -20 -20 -20 -20 -20
19 -20 34 36 4 18 -5 12 5 9 -20 -20 12 4 6 23 15 10 4 -20 -20 -18 -12 8 -20 -20 -20 -9 -20 -20 7 18 -9 18 22 -8 -20 -18 -20 -20 -20 -20 -20 -20 -20 -20 -20
-3 -19 35 41 19 14 8 -16 -4 -6 7 7 2 5 25 29 14 11 4 0 -4 -20 -18 -20 8 -19 -18 -3 -19 -20 -20 -10 -4 -16 8 -4 -20 -20 -20 -20 -20 -16 -20 -20 -20 -20 -20
-15 1 11 41 18 14 8 -20 -20 17 -9 -1 -20 10 -20 7 12 10 -7 1 8 -4 -1 -20 -20 -20 16 -1 -20 -20 -20 -19 -12 8 -20 -20 -20 -20 -20 -20 -20 -20 -20 -20 -20 -20 -20
-18 -0 22 38 21 20 13 5 -20 16 -2 2 17 -20 -20 -20 -20 9 11 -20 9 -6 -20 -20 -20 -20 4 -16 -11 -17 -20 -15 -20 -20 -20 -20 -20 -20 -20 -20 -20 -20 -20 -20 -20 -20 -20
-20 2 22 37 36 21 8 3 -18 21 2 0 -20 -20 -20 -18 -15 12 1 -14 1 -20 -20 8 -20 -20 -20 -20 -20 -20 -20 -20 -20 -20 -20 -20 -20 -20 -20 -20 -20 -20 -20 -20 -20 -20 -4
13 -0 29 35 30 12 6 7 -20 -8 4 20 -13 -20 -20 -2 -20 -14 -20 -17 -20 -19 -13 -19 -20 -20 -20 -20 -20 -20 -20 -20 -20 -20 -20 -20 -20 -20 -20 -20 -20 -4 -10 -4 -20 -20 -11
35 17 36 30 14 12 3 -20 -20 -4 -9 20 -18 -20 -20 -18 -20 -20 -20 -20 -20 -20 -20 -20 -20 -20 -20 -20 -20 -20 -20 -20 -3 -20 -20 -20 -20 -20 -20 -20 -20 -17 -9 -20 -4 -4 -7
35 27 21 24 -6 14 8 -2 -20 -2 -19 23 -13 -13 -17 -16 -20 -19 -20 -20 -20 -20 -20 -20 -20 -20 -20 -20 -20 -20 -20 -20 1 2 -20 -20 -20 -20 -3 4 0 6 -20 -20 2 6 -20
27 22 16 -5 11 -20 -16 -10 -20 -1 -12 27 -14 -7 -20 -20 -18 -20 -20 -20 -20 -20 -20 -20 -20 -20 -20 -20 -20 -20 -20 -20 -6 7 8 -1 -10 4 6 8 7 -20 -20 -20 9 6 -7
19 18 9 2 -20 -20 -17 -20 -18 12 -6 8 -4 -20 -20 -20 -20 -20 -20 -20 -20 -20 -20 -20 -20 -20 -20 -20 -20 -20 -1 2 -9 -9 13 8 7 3 5 6 11 -20 -19 -6 2 4 -1
12 2 12 -20 -20 -20 -18 -20 -20 -20 9 -12 -14 -9 -20 -20 -20 -20 -20 -20 -20 -20 -20 -20 -20 -20 -20 -20 -20 -20 -20 -4 0 6 -3 5 -10 12 -11 5 -12 -4 -1 -2 3 3 4

GFSGBSN_prec_radar_105.txt.gz
Reflectivity
7 -11 -17 -14 -9 -20 -20 -20 -20 -20 -20 -20 -20 -20 -20 -20 -3 5 11 -6 -20 -12 -17 -20 -20 -20 -20 -20 -20 -20 -20 -20 -20 -20 -20 -20 -20 -20 -20 -20 -20 -20 -20 -20 -20 -20 -20
-15 2 3 -20 -20 -20 -20 -20 -20 -20 -20 -20 -20 -20 -20 -20 -20 11 10 10 6 -14 -20 -20 -20 -10 -20 -20 -20 -20 -20 -20 -20 -20 -20 -20 -20 -20 -20 -20 -20 -20 -20 -20 -20 -20 -20
-18 -20 -20 -20 -20 -20 -20 -20 -20 -20 -20 -20 -20 -20 -15 -20 -19 -9 9 -20 9 -19 -18 -20 9 -20 -20 -20 -20 -20 -20 -20 -20 -20 -20 -20 -20 -20 -20 -20 -20 -20 -20 -20 -20 -20 -20
-12 -20 -20 -20 -20 -20 -20 -20 2 -20 -20 -20 -20 3 7 -20 -20 -20 15 -20 20 -7 4 10 7 -20 -20 -20 -20 -20 -20 -20 -20 -20 -20 -20 -20 -20 -20 -20 -20 -20 -20 -20 -20 -20 -20
-1 -3 -20 -18 -20 -20 -20 -20 -20 -20 -20 -20 -18 5 11 -4 -17 -20 -1 11 19 -7 15 8 -20 -20 -20 -20 -20 -20 -20 -20 -20 -20 -20 -20 -20 -20 -20 -20 -20 -20 -20 -20 -20 -20 -20
-20 -20 -20 -20 -20 -20 -4 -20 -20 -20 -20 -20 -20 3 -10 -20 -17 -3 9 17 23 11 3 -20 -20 -20 -20 -20 -20 -20 -20 -20 -20 -20 -20 -20 -20 -20 -20 -20 -20 -20 -19 -20 -20 4 -20
-4 -20 -20 -20 -20 -20 -20 -20 -20 -20 -20 -20 -20 -6 -20 -20 -17 14 19 10 10 -18 -9 -20 -20 -20 -20 -20 -20 -20 -20 -20 -20 -20 -20 -20 -20 -20 -20 -20 -20 -20 5 3 -20 -15 1
-20 -20 -20 -20 -20 -20 -20 -20 -20 -20 -20 -20 -20 -20 -20 -20 1 -8 -11 1 -20 -17 -20 -20 -20 -20 -20 -20 -20 -20 -20 -20 -20 -20 -20 -17 -6 -20 -20 -15 13 11 -9 -20 -4 18 0
-20 -20 -20 -20 -20 -20 -20 -20 -20 -20 -20 -20 -20 -20 -20 5 8 1 4 8 -16 -20 -12 -20 -20 -20 -20 -20 -20 -20 -20 -20 -20 -20 -20 -20 -20 -20 -20 6 3 -10 10 3 -8 21 10
-20 -20 -20 -20 -20 -20 -20 -20 -20 -20 -20 -20 -20 -20 -20 11 19 10 16 7 -15 -17 17 -20 -20 -20 -20 -20 -20 -20 -20 -20 -20 -20 -20 -1 -20 -20 -20 -19 9 28 13 18 15 5 5
-20 -20 -20 -20 -20 -20 -20 -20 -11 -20 -20 -20 -20 -20 0 -16 -16 14 7 -13 -20 -3 15 -20 -20 -20 -20 -20 -20 -20 -20 -20 -20 -20 -15 -20 -19 -20 -20 -20 6 24 11 24 28 8 -3
-10 -20 -20 -20 -20 -20 -20 -20 -20 -20 -20 -20 -20 -19 14 21 1 -17 -20 -20 1 21 -7 -20 -20 -20 -20 -20 -20 -20 -20 -20 -20 2 15 0 17 -18 -20 -10 3 19 19 11 18 11 14
-19 -20 -20 -15 5 -20 3 -19 -20 -20 7 19 22 18 16 -17 -20 -20 -20 -12 20 11 -20 -20 -20 -20 -20 -20 -20 -20 -20 1 -12 11 4 4 1 -20 -3 10 0 25 29 15 15 19 9
13 6 -3 5 12 11 -12 -3 -19 -7 1 18 20 20 15 -12 -20 -18 8 17 10 -19 -20 -20 -20 -20 -20 -20 -20 -20 -20 6 -10 4 14 18 19 1 -18 -8 15 -7 13 10 9 10 11
15 6 12 13 13 23 -14 24 2 -3 13 18 19 7 0 16 18 21 21 25 16 7 4 7 -16 -13 -20 -19 -20 -6 -20 9 -20 -20 16 6 -10 -20 -20 -18 12 20 11 2 18 16 8
-20 -20 -11 1 16 28 14 2 9 18 7 16 5 17 26 18 22 30 33 21 5 -20 -20 -19 -19 -6 -3 -2 -16 -20 -16 -7 -11 26 -11 1 16 -13 -0 -20 -20 -6 12 11 13 15 10
-20 -20 8 -20 18 36 -4 -15 14 -20 17 14 24 22 16 17 26 31 12 1 -20 -20 -20 -20 -20 6 -15 5 -1 -2 12 6 6 -20 -20 -17 5 -3 -18 -20 -19 -5 26 4 25 -3 13
-5 -4 -20 -20 21 33 15 -20 -20 7 6 -18 16 19 10 17 29 21 -1 -19 -20 -20 -20 -20 -20 -20 -5 1 -8 1 2 -1 -20 -20 -20 -20 3 19 -16 -20 -9 -4 -12 7 6 9 27
-20 0 2 2 22 37 19 -20 -20 16 -7 18 20 17 24 21 12 7 -10 -5 -20 -20 -20 -15 5 -18 -20 6 -0 -12 -3 -16 -20 -20 -5 -17 -13 9 -15 -16 -20 -20 -20 -20 -20 -20 -20
-20 -3 14 17 17 38 39 8 -19 23 18 25 22 15 32 33 5 10 -0 5 -1 -20 -20 -6 7 -15 1 8 -20 15 5 -20 -20 -20 -20 -20 -20 -6 11 14 -1 -20 -20 -20 -20 -20 -20
4 -16 8 16 17 26 40 17 10 -20 21 26 21 13 -14 10 -0 6 12 -17 5 6 -20 -20 14 13 12 11 4 4 -18 -20 -14 -8 -5 -8 -12 -20 -20 -20 -20 -20 -20 -20 -20 -20 -20
8 22 -20 -20 2 26 36 16 -10 14 22 20 18 7 1 5 -0 7 14 14 7 8 -1 9 8 15 18 13 2 -19 -20 -20 -20 -9 -1 -20 -20 -16 -20 -20 -20 -20 -20 -20 -20 -20 -20
23 12 -20 -11 6 33 44 20 -20 5 23 10 3 1 4 3 7 14 15 -2 11 10 -17 7 11 6 14 -8 -20 -4 -15 -20 -20 -20 -20 -20 -20 -20 -20 -20 -20 -20 -20 -20 -20 -20 -20
18 -20 -20 -20 5 18 36 -19 -20 8 17 16 20 22 16 12 6 -8 8 10 10 16 -14 -20 5 -11 -5 -20 -19 -16 -20 -20 -20 -20 -20 -20 -20 -20 -20 -20 -20 -20 -20 -20 -20 -20 -20
-19 -20 -18 -1 -3 21 34 1 -20 -10 23 20 27 18 21 25 -18 12 12 -12 17 10 9 -20 -20 -20 -20 -20 -20 -20 -20 -20 -20 -20 -20 -20 -20 -20 -20 -20 -4 -20 -12 -17 -19 1 -20
-4 -2 11 -15 -0 33 27 10 7 12 25 17 -5 22 18 25 7 -2 -4 14 13 3 -18 -20 -20 -20 -20 -20 -20 -20 -20 -20 -20 -11 -20 -20 -20 -20 -3 7 5 -2 -20 -20 -6 -17 -16
28 24 17 30 24 32 8 -20 -19 -3 8 20 2 19 7 27 -20 -13 15 -6 5 -16 3 -20 -20 -20 -20 -20 3 1 -12 -20 -6 2 3 -1 2 6 4 6 1 -6 -20 -20 4 6 -8
31 33 23 27 7 -3 -20 -20 -20 10 7 7 28 -15 10 24 -20 -18 -20 -18 -20 -20 3 -20 -20 -20 -20 -19 -3 -16 4 -7 6 -8 7 0 3 -3 7 11 17 -20 -20 -1 -3 -5 -20
29 24 -5 -20 -20 -20 -20 -20 -10 1 15 21 29 -2 -20 11 -20 -10 -20 -20 -20 -20 -20 -20 -20 -20 -20 -4 -20 -20 6 -11 -4 5 -20 5 -0 22 -1 7 -18 -7 -20 -19 -20 -5 2

GFSGBSN_prec_radar_108.txt.gz
Reflectivity
-15 5 5 0 -7 -20 -20 -20 -20 -20 -20 -20 -20 -20 -20 -20 -20 -20 -6 6 -4 -13 1 -11 -17 -2 -20 -20 -20 -20 -20 -20 -20 -20 -20 -20 -20 -20 -20 -20 -20 -20 -20 -20 -20 -20 -20
6 4 -13 -2 -20 -20 -20 -20 -20 -20 -20 -20 -20 -20 -20 -20 -20 -20 -20 4 -20 -20 11 -2 -20 -20 -20 -20 -20 -20 -20 -20 -20 -20 -20 -20 -20 -20 -20 -20 -20 -20 -20 -20 -20 -20 -20
2 2 -18 -3 -6 -20 -20 -20 -20 -20 -9 -20 -20 -20 -20 -20 -4 -1 -20 -20 -20 -20 12 9 -20 -20 -20 -20 -20 -20 -20 -20 -20 -20 -20 -20 -20 -20 -20 -20 -20 -20 -20 -20 -20 -20 -20
1 2 2 -1 -20 -20 -20 -20 -20 -20 -20 -20 -20 -20 -20 -20 -13 -20 1 -3 13 -19 13 1 -20 -20 -20 -20 -20 -20 -20 -20 -20 -20 -20 -20 -20 -20 -20 -20 -20 -20 -20 -20 -20 -20 -20
1 -6 -7 -20 -11 -20 -20 -20 -20 -20 -20 -20 -20 -20 -20 -15 -5 -14 6 8 18 9 15 10 -19 -20 -20 -20 -20 -20 -20 -20 -20 -20 -20 -20 -20 -20 -20 -20 -20 -20 -20 -20 -20 -20 -20
-16 -3 -20 1 -20 -20 -20 -20 -20 -20 -20 -20 -20 -18 -19 -20 9 -9 11 17 19 6 8 -20 -20 -20 -20 -20 -20 -20 -20 -20 -20 -20 -20 -20 -20 -20 -20 -20 -20 -20 -20 -20 -20 -20 -20
-20 -20 -20 -20 -20 -20 -20 -20 -20 -20 -20 -20 -20 -20 -16 12 8 7 14 3 -3 -18 1 -20 -20 -20 -20 -20 -20 -20 -20 -20 -20 -20 -20 -20 -20 -20 -20 -20 -20 -20 -20 -20 -20 -20 0
-20 -20 -20 -20 -20 -20 -20 -20 -20 -20 -20 -20 -20 -20 -20 -20 -19 14 -10 3 -17 -20 -20 -20 -20 -20 -20 -20 -20 -20 -20 -20 -20 -20 -20 -20 -20 -20 -20 -20 -20 -20 -19 -20 -20 -20 -20
-20 -20 -20 -20 -20 -20 -20 -20 -20 -20 -20 -20 -20 -20 -20 -20 5 17 -18 7 -20 -20 -17 -20 -20 -20 -20 -20 -20 -20 -20 -20 -20 -20 -20 -20 -20 -20 -20 -20 -20 -20 -20 -20 -7 -9 -20
11 -3 -20 -20 -20 -20 -20 -20 -20 -20 -20 -20 -20 -20 -9 9 22 -3 22 -9 2 -20 -18 -20 -20 -20 -20 -20 -20 -20 -20 -20 -20 -20 -20 -20 -20 -20 -20 -20 -20 -20 -20 -20 -20 -11 2
3 -20 -20 -20 -20 -20 -20 -20 -20 -20 -20 -20 -20 -19 14 -18 -20 -4 -7 11 -4 15 -14 -20 -20 -20 -20 -20 -20 -20 -20 -20 -20 -20 -20 -20 -20 -20 -20 -20 -9 13 -20 -11 -1 11 9
-1 -6 -16 -12 -20 -20 -20 -20 -20 -20 -20 -20 -15 10 6 15 -19 -20 -20 -10 17 5 -18 -20 -20 -20 -20 -20 -20 -20 -20 -20 -20 -20 4 -20 -20 -20 -20 -20 -20 -14 -12 -16 21 18 16
11 -6 -20 -15 -0 -20 -20 -20 -20 8 -20 -20 -5 1 11 -20 -20 -20 -20 22 27 7 -20 -20 -20 -20 -20 -20 -20 -20 -20 -20 -7 -5 -20 -20 -20 -20 -20 -20 -20 -20 -10 17 17 16 -11
-20 -10 10 -20 -15 -20 -20 -20 -20 9 -20 9 15 23 12 -19 -20 -20 16 28 20 -20 -20 -20 -20 -20 -20 -20 -20 -20 -20 -20 -20 -12 -20 6 -0 -20 -20 -20 -11 -20 -9 -4 17 12 8
-13 14 15 -9 -20 -19 15 -19 -20 -2 -5 0 9 14 -13 -19 1 20 32 19 13 -20 -20 -20 -20 -20 -20 -20 -20 -5 3 -19 -20 -20 -5 13 -5 -1 -20 -20 -20 -1 9 15 -6 -2 23
-6 16 15 12 -20 -20 -13 19 4 5 -18 -4 8 10 9 16 30 17 30 14 3 -20 -20 -11 -4 -20 -20 -20 -3 4 -20 -6 -20 -20 -20 14 -12 -17 -20 -16 -19 -20 -20 29 18 17 16
-20 -20 -20 -20 -20 -14 -10 17 27 -4 2 21 8 26 13 17 19 25 29 -2 -5 -20 7 12 -13 -9 -20 -20 -20 12 27 11 -10 -18 -9 -11 -17 -4 1 -8 -20 1 1 16 34 -6 21
-20 -20 -20 -19 -20 -20 -19 -19 26 20 3 21 27 34 0 18 25 38 5 1 -1 26 5 -20 -20 -20 -20 -20 -11 -20 4 28 -11 8 -12 -7 -20 9 -20 6 -20 -20 -17 18 27 29 24
-14 -20 -14 -5 -0 -7 -20 -20 37 26 4 -20 24 26 10 22 19 -9 -16 -0 -2 -18 4 -20 -20 -20 -20 -20 1 -20 16 -20 5 -6 3 -2 -13 -10 -12 -4 -20 -20 -20 -0 -0 -19 -19
-8 -20 -11 -1 -7 7 -13 -20 30 40 -1 -18 35 15 28 36 15 2 -2 -9 9 -20 -20 -20 -20 -20 -20 3 -20 7 12 -20 -20 13 -19 -20 -20 -20 11 -11 -13 -20 -20 -4 -20 -20 -20
-1 -6 -20 -5 -5 -20 -20 20 18 41 -9 6 24 37 -14 7 -5 0 21 -20 1 -4 -20 -20 3 9 -12 5 -2 2 14 3 -20 -14 -2 -19 -20 -2 9 -20 -20 -20 -20 -20 -20 -20 -20
-19 -20 -19 -20 -20 20 -20 6 29 39 28 20 25 35 20 13 -20 3 0 14 9 -9 -12 -20 9 10 -20 6 10 5 16 -0 -20 -20 -20 -20 -20 -2 -20 -20 -20 -20 -20 -20 -20 -20 -20
5 -17 -4 4 -18 -11 5 10 29 37 31 31 2 -5 27 15 31 8 -20 -2 15 5 2 -8 1 7 12 12 -4 -20 16 -20 -20 -20 2 -10 -16 -18 -20 -11 -17 -19 -20 -20 -20 -20 -20
-4 -10 -8 -2 20 -20 17 6 30 35 9 -20 15 22 18 -0 16 13 -14 -20 -11 14 7 16 -20 7 16 -4 -16 -20 -20 -20 -20 -7 -6 -20 -20 -20 -20 -20 -20 -20 -20 -20 -20 -20 -20
-6 3 21 12 20 8 -18 3 33 26 5 10 19 25 18 23 -14 16 11 3 17 25 5 13 -20 -9 -18 -20 -20 -9 -20 -20 -20 -18 -20 -20 -20 -20 -20 -20 -8 -20 -20 -20 -20 -6 -20
7 -20 12 3 17 15 4 36 35 14 14 25 17 29 11 11 -2 21 18 7 30 25 25 -4 -20 -20 -20 -20 -2 -14 -20 -19 -20 -20 -20 -20 -20 -20 -20 -15 -2 -11 -20 -20 -20 -5 -20
21 17 -7 4 -3 -19 12 30 12 -3 6 23 34 16 21 37 7 17 16 33 11 22 2 -20 -20 -20 -20 -20 13 3 -6 -1 -19 -20 -20 -20 -17 -20 -4 -2 -6 -20 -20 -20 -15 -2 -20
3 11 1 8 -2 12 27 24 3 -18 18 24 24 14 29 38 8 32 13 34 19 -16 -20 -20 -20 -20 -20 -14 -9 11 14 -20 -10 -9 -20 -14 -4 -20 -9 4 9 -20 -20 -18 -8 -20 -20
37 33 7 9 5 18 26 22 2 -20 6 15 20 12 26 33 -6 -6 8 -19 -19 12 23 -20 -19 -20 -20 -20 -20 -20 -16 -20 -4 8 1 7 -18 24 -19 -0 -20 -20 -6 -20 1 -20 -14

GFSGBSN_prec_radar_111.txt.gz
Reflectivity
-20 -1 -20 -18 -20 -20 -20 -20 -20 -20 -20 -20 -20 -20 -20 -20 -20 -20 -20 -20 -20 -9 -2 -12 6 -20 -20 -20 -16 -20 -20 -20 -20 -20 -20 -20 -20 -20 -20 -20 -20 -20 -20 -20 -20 -20 -20
-20 -20 -20 -20 -20 -20 -20 -20 -20 -20 -20 -20 -20 -20 -20 -20 -20 -11 -20 -20 -20 8 -16 -20 -14 -20 -20 -20 -18 -20 -20 -20 -20 -20 -20 -20 -20 -20 -20 -20 -20 -20 -20 -20 -20 -20 -20
-20 -20 -20 -8 -20 -20 -20 -20 -20 -20 -20 -20 -20 -20 -16 -20 -20 -20 -10 -20 -15 -7 9 -20 -3 -20 -20 -20 -20 -20 -20 -20 -20 -20 -20 -20 -20 -20 -20 -20 -20 -20 -20 -20 -20 -20 -20
-4 -18 -2 -0 -3 -10 -9 -5 -2 -10 -20 -20 -15 -12 -20 -20 -20 -0 -19 -20 7 -7 8 -20 -20 -20 -20 -20 -20 -20 -20 -20 -20 -20 -20 -20 -20 -20 -20 -20 -20 -20 -20 -20 -20 -20 -20
-13 -3 -20 -14 -20 -6 -20 -20 -20 -13 -13 -20 -20 -20 -20 -20 -20 6 -15 2 12 3 11 -20 -20 -20 -20 -20 -20 -20 -20 -20 -20 -20 -20 -20 -20 -20 -20 -20 -20 -20 -20 -20 -20 -20 -20
-16 -20 -20 -5 -3 -9 -20 -20 -20 -17 -20 -20 -20 -20 -20 -20 -20 8 11 9 5 9 11 -20 -20 -20 -20 -20 -20 -20 -20 -20 -20 -20 -20 -20 -20 -20 -20 -20 -20 -20 -20 -20 -20 -20 -20
-20 -20 -20 -20 -1 -20 -20 -20 -20 -20 -20 -20 -20 -20 -20 -20 -17 19 13 -14 -10 -20 -20 -20 -20 -20 -20 -20 -20 -20 -20 -20 -20 -20 -20 -20 -20 -20 -20 -20 -20 -20 -20 -20 -20 -20 -20
-7 -3 -20 -20 -20 -20 -20 -20 -20 -20 -20 -20 -20 -20 -20 -20 14 10 -13 -20 -20 -20 -20 -20 -20 -20 -20 -20 -20 -20 -20 -20 -20 -20 -20 -20 -20 -20 -20 -20 -20 -20 -20 -20 -20 -20 -20
6 12 -20 -20 -20 -20 -20 -20 -20 -20 -20 -20 -20 -20 -20 -20 12 7 -20 -20 -20 -20 -20 -20 -20 -20 -20 -20 -20 -20 -20 -20 -20 -20 -20 -20 -20 -20 -20 -20 -20 -20 -20 -20 -20 -20 -20
-20 -20 -3 -20 -20 -20 -20 -20 -20 -20 -20 -20 -20 -20 -20 -20 24 -18 17 -20 -20 -20 -20 -20 -20 -20 -20 -20 -20 -20 -20 -20 -20 -20 -20 -20 -20 -20 -20 -20 -20 -20 -20 -20 -20 -20 -20
-20 -20 -20 -20 14 -20 -20 -20 -20 -20 -20 -20 -20 -20 -20 6 -20 2 -14 -20 -20 -20 -20 -20 -20 -20 -20 -20 -20 -20 -20 -20 -20 -20 -20 -20 -20 -20 -20 -20 -20 -20 -20 -20 -20 -20 -20
4 -18 -20 10 -20 -20 -20 -20 -20 -20 -20 -20 -20 -20 -20 18 7 -17 -20 11 12 1 -20 -20 -20 -20 -20 -20 -20 -20 -20 -20 -20 -20 -20 -20 -20 -20 -20 -20 -20 -20 -20 -20 -20 -19 -10
-20 -18 -20 -20 -0 -20 -20 -20 -20 -20 -20 -13 -20 -20 -5 -20 -15 -20 -3 12 21 -11 -20 -20 -20 -20 -20 -20 -20 -20 -20 -20 -20 -20 -20 -20 -20 -20 -20 -20 -20 -20 -20 -16 -20 5 -20
-20 -20 -20 -20 -20 -19 -5 -20 -20 -20 -20 -19 -19 19 19 -1 -14 4 10 21 6 -19 -20 -20 -20 -20 -20 -20 -20 -20 -20 -20 -20 -20 -20 -20 -20 -20 -20 -20 -20 -20 -20 -19 -20 -20 8
10 -14 -20 -20 -17 -20 10 -20 -20 -20 -20 -20 13 -6 13 -3 5 9 19 20 5 -20 -20 -20 -20 -20 -20 -20 -20 -20 -20 -18 -20 -20 -20 -20 -18 -20 -20 -20 -20 -17 -20 -7 2 -20 -20
-18 -20 -20 -20 16 10 -6 -20 -8 -20 -20 -9 -16 17 10 6 10 29 21 11 -14 -20 -20 -20 -4 -20 -20 -20 -15 -0 -19 -13 -20 4 -15 -6 -12 -20 -20 -20 -20 -20 -20 -19 -7 2 -13
-20 -20 11 -20 -9 14 8 12 -8 -3 24 3 12 -8 -3 8 29 22 21 18 -20 -20 -20 19 -20 2 -20 -20 -20 -20 -2 11 -20 -13 -11 7 -20 -20 -19 -20 -20 -20 -11 2 -6 4 12
-20 -20 -20 -20 -20 -20 -0 20 -16 19 26 30 15 23 -20 5 21 35 26 25 -11 -20 -20 -20 1 -20 -20 -17 -20 -8 -11 -20 -20 -20 31 13 3 3 -20 -20 -20 4 -6 1 12 21 12
-20 14 0 -3 -17 -19 16 -14 -20 19 24 8 26 20 17 10 21 3 15 -18 12 -12 5 27 7 -20 -20 -20 -18 -20 -20 -20 -20 -14 33 24 23 19 -16 -20 -20 -20 -18 -20 -3 4 -10
-1 -0 -2 -3 -20 -13 3 15 -20 -20 -1 33 29 22 24 29 28 13 -12 -8 21 -1 -6 -14 -18 1 -18 -18 -20 -20 -20 -20 -20 -20 4 -6 -13 -20 -20 -20 -20 -20 -18 -20 -15 -19 -20
20 -5 15 -13 -20 -18 -4 -10 1 -20 18 34 40 21 -20 -9 -8 10 14 -1 -19 15 12 -20 -11 -20 -20 -20 -20 -20 6 -20 -20 -20 3 18 -0 -0 -20 -20 -20 -2 -20 -3 1 -19 -20
-17 18 -4 -20 -20 -20 -20 -20 -17 -20 24 28 33 15 12 -20 -20 -20 -3 32 -12 -20 25 9 -6 -20 -20 -20 -20 -20 -17 26 -20 -20 -12 4 9 4 -20 -20 -20 -20 -20 -20 -20 -20 -20
-3 9 -15 -12 -20 -20 -20 -20 18 15 25 36 34 -20 13 25 13 3 -20 -20 -20 8 -20 -20 -20 -17 -0 -20 1 -20 -20 -20 -2 -20 -20 -20 1 -19 -20 -15 3 -20 -20 -20 -20 -20 -20
5 0 -2 -5 -20 -4 -2 21 4 16 22 18 21 -15 10 9 40 4 -3 -20 -20 10 26 -12 -6 -20 -6 -17 7 5 -19 2 -8 -20 -20 -18 -11 4 1 -20 -20 -20 -20 -20 -20 -20 -20
-20 -20 -20 -2 9 -12 5 12 19 19 19 34 29 13 22 14 -12 12 -13 -20 -20 13 18 24 15 -20 16 -19 -11 -4 -13 -20 -15 -20 -20 -5 -3 -20 -20 -20 -13 -20 -20 -20 -20 -20 -20
5 18 17 4 -5 14 -11 -13 16 5 27 28 7 -20 15 -3 -20 -13 16 21 17 25 29 36 -1 -10 8 -18 -16 -19 -20 -20 -20 -20 -19 -20 -20 -20 -20 -20 -20 -20 -20 -20 -20 -20 -20
19 -5 12 -20 -2 8 18 20 7 1 24 30 8 -15 23 13 -20 -10 -13 22 14 10 29 23 6 -17 -16 -20 -20 -20 -20 -20 -20 -20 -20 -20 -20 -20 -20 -18 -20 -20 -20 -20 -20 -20 -20
15 21 15 7 16 7 12 11 27 29 22 24 -3 20 1 23 36 33 -20 -19 2 21 23 -1 -20 -20 -20 -20 -20 3 9 -14 -20 -20 -20 -20 -20 -20 -20 -20 -3 -20 -20 -20 -20 -20 -20
2 4 -10 -16 -2 -19 11 23 37 28 16 -20 11 22 9 35 30 29 22 31 33 -2 -10 -9 -20 -18 -19 -18 -15 -14 5 -12 -20 -18 -20 -11 -20 -20 -20 -20 -20 -20 -20 -13 -20 -20 -20

GFSGBSN_prec_radar_114.txt.gz
Reflectivity
-20 -20 -20 -20 6 -20 -13 -20 -20 -20 -20 -20 -20 -20 -20 -20 -20 -20 -20 -20 -20 -20 -0 4 -20 -20 -20 -20 -20 -20 -20 -20 -20 -20 -20 -20 -20 -20 -20 -20 -20 -20 -20 -20 -20 -20 -20
-13 -20 -20 -20 -20 -20 -20 -20 -20 -20 -20 -20 -20 -20 -20 -20 -20 -20 -20 -20 -20 -20 -0 16 -17 -20 -20 -20 -20 -20 -20 -20 -20 -20 -20 -20 -20 -20 -20 -20 -20 -20 -20 -20 -20 -20 -20
-20 -20 -20 -20 -20 -20 -20 -20 -20 -20 -20 -20 -20 -20 -20 -20 -20 -20 10 -0 -16 -19 6 12 -13 -19 -20 -20 -20 -20 -20 -20 -20 -20 -20 -20 -20 -20 -20 -20 -20 -20 -20 -20 -20 -20 -20
-20 -20 -20 -20 -20 -20 -20 -20 -20 -20 -20 -20 -20 -20 -20 -20 -20 -11 2 -20 11 6 -5 10 -5 -7 -20 -20 -20 -20 -20 -20 -20 -20 -20 -20 -20 -20 -20 -20 -20 -20 -20 -20 -20 -20 -20
2 -20 -20 -20 -20 -20 -20 -20 -20 -10 -1 -20 -3 2 -9 -20 -20 -20 11 11 5 12 -16 -10 -20 -12 -20 -20 -20 -20 -20 -20 -20 -20 -20 -20 -20 -20 -20 -20 -20 -20 -20 -20 -20 -20 -20
-20 -20 -20 -10 -0 -8 -2 -20 -20 -16 -13 -20 -20 -20 -20 -20 -20 -20 10 14 -8 -4 -4 -20 -20 -15 -20 -20 -20 -20 -20 -20 -20 -20 -20 -20 -20 -20 -20 -20 -20 -20 -20 -20 -20 -20 -20
-20 1 -8 -11 -1 -8 -2 -20 -19 -5 -20 -20 -20 -20 -20 -20 -20 10 10 -20 -20 -20 -20 -20 -20 -20 -20 -20 -20 -20 -20 -20 -20 -20 -20 -20 -20 -20 -20 -20 -20 -20 -20 -20 -20 -20 -20
-19 -2 -9 -13 -20 -20 -20 -6 -20 -20 -20 -20 -20 -20 -20 -20 -10 14 -11 -20 -20 -20 -20 -20 -20 -20 -20 -20 -20 -20 -20 -20 -20 -20 -20 -20 -20 -20 -20 -20 -20 -20 -20 -20 -20 -20 -20
10 10 10 5 -20 -20 -20 -20 -20 -20 -20 -20 -20 -20 -20 -20 -14 8 -20 -19 -20 -14 -20 -20 -20 -20 -20 -20 -20 -20 -20 -20 -20 -20 -20 -20 -20 -20 -20 -20 -20 -20 -20 -20 -20 -20 -20
12 -17 1 -12 10 -20 -20 -20 -20 -20 -20 -20 -20 -20 -20 -20 17 -20 -18 -8 -9 -2 -20 -20 -20 -20 -20 -20 -20 -20 -20 -20 -20 -20 -20 -20 -20 -20 -20 -20 -20 -20 -20 -20 -20 -20 -20
-16 7 -19 -18 -20 -20 -20 -20 -20 -20 -20 -20 -20 -20 -20 11 -20 4 -20 -7 -3 -20 -20 -20 -20 -20 -20 -20 -20 -20 -20 -20 -20 -20 -20 -20 -20 -20 -20 -20 -20 -20 -20 -20 -20 -20 -20
16 11 8 -20 -20 -17 -5 -20 -20 -20 -20 -20 -20 -20 -20 12 13 -20 -20 -20 -20 -20 -20 -20 -20 -20 -20 -20 -20 -20 -20 -20 -20 -20 -20 -20 -20 -20 -20 -20 -20 -20 -20 -20 -20 -20 -20
14 3 -6 -20 -20 -20 -20 -17 -20 -6 -20 -20 -20 -20 -1 -20 -14 -20 15 -9 12 -20 -20 -20 -20 -20 -20 -20 -20 -20 -20 -20 -20 -20 -20 -20 -20 -20 -20 -20 -20 -20 -20 -5 -20 -19 -20
10 -17 -9 -10 -20 -20 -20 9 -20 -20 -20 -20 -20 -18 4 -18 -20 2 10 20 -15 -20 -20 -20 -20 -20 -20 -20 -20 -20 -20 -20 -20 -20 -20 -20 -20 -20 -20 -20 -20 -20 -20 -20 -20 -20 -20
17 19 -20 -20 -20 -20 -20 -20 -20 -20 -20 -20 -20 -20 9 -3 -14 16 14 17 -8 -14 -20 -20 -20 -20 -20 -20 -20 -20 -20 -20 -20 -20 -20 -20 -20 -20 -20 -20 -20 -20 -20 -20 -15 -20 -20
-5 -7 -11 -4 -3 -2 18 -20 -19 -20 -20 -20 -20 -20 4 -18 -8 24 22 27 -17 -20 -20 -20 -20 -20 -20 -20 -20 -20 -20 -20 -20 -20 -20 -20 -16 -20 -20 -20 -20 -20 -20 -20 -20 -20 -4
19 16 -20 -20 -20 -13 16 9 -0 -20 -20 -12 -20 -20 -20 -3 16 23 32 -4 -20 -20 -20 -20 -20 -13 -20 -20 -20 -20 -20 -20 -20 -20 -20 -20 -20 -20 -20 -19 -20 -20 -17 -3 -20 -20 3
17 13 -20 -20 -20 17 -3 12 5 -19 -18 -13 16 9 -20 -20 32 36 19 -20 -20 -20 -20 -20 -20 -20 -20 -20 -20 -20 -20 -20 -20 -20 -8 11 -3 -20 -20 -19 -20 -20 -20 3 -7 -20 14
12 2 -20 -20 -20 -20 21 17 -11 -20 6 12 24 30 -19 26 8 -8 6 17 -15 -12 -17 -20 7 -4 7 -20 -20 -20 -20 -20 -20 -17 1 -20 8 2 26 -4 -20 -20 -20 -20 -4 7 -12
19 -20 -20 -20 -0 -20 -20 -6 -20 -13 22 21 30 18 25 24 14 11 -10 21 16 -18 -18 10 -8 20 -17 -20 -20 -20 -20 -20 -18 -20 -20 5 -2 11 2 22 1 -20 -20 -19 8 -5 -20
-9 10 -14 -13 -20 -17 -5 -20 15 19 6 25 37 15 -13 -7 4 -20 -15 -20 -20 14 11 4 24 -4 -20 -20 -20 -19 -11 -20 -20 -20 -20 -20 -20 9 12 15 -19 -20 -20 -20 -3 -19 -20
-17 14 -5 14 19 -20 -20 -19 -17 19 19 14 8 24 34 -8 -20 -20 -9 8 -20 -20 16 -12 3 17 6 -20 -20 -10 8 -19 -20 -20 -20 -20 -20 -20 -20 -19 -4 2 -20 -20 -20 -20 -20
13 8 11 16 8 -13 -6 -20 -20 11 21 27 -3 -4 33 -13 -13 -8 -20 -20 -20 -20 6 -20 -20 21 15 -20 -10 -20 -20 -20 -20 -20 -13 -19 -20 -19 14 27 20 -2 -20 -20 -20 -20 -20
16 16 15 13 -2 -20 -20 -20 -20 -20 22 -12 19 -1 19 7 -2 -20 -20 -20 -20 -20 8 23 12 -3 -14 13 11 -20 -20 -20 -20 -20 -20 -20 -20 -20 -10 -4 18 -18 -20 -20 -18 -20 -20
7 9 12 16 15 7 10 -20 -20 -20 5 -14 15 24 22 3 19 10 5 23 -20 -20 -10 -6 26 3 -1 18 1 9 4 -18 1 -20 -20 -20 -20 9 -10 -8 -18 -20 -20 -20 -20 -20 -20
-19 -18 -20 -20 -20 15 15 -19 8 -20 23 17 -15 21 23 15 -20 -20 10 25 12 -20 4 5 32 26 7 6 2 7 4 -20 -20 -20 -20 -16 -19 -7 -20 -20 -20 -20 -20 -20 -20 -20 -20
-13 16 12 2 6 -18 -20 1 13 6 22 7 14 36 33 23 -20 -14 3 -20 -0 -20 -20 -20 -7 37 18 -14 24 -4 -20 -20 -20 -20 -20 -20 -20 -20 -18 -20 -20 -20 -5 -20 -20 -20 -20
21 21 17 17 14 -11 -20 -17 -19 -3 20 27 26 26 23 28 -20 -4 -4 8 -6 -20 -20 12 18 18 15 -20 -20 -20 -20 -20 -20 -20 -20 -9 -20 -20 -20 -20 -20 -20 -20 -20 -20 -20 -20
21 23 30 17 16 18 20 -20 21 7 4 31 24 25 7 -20 -16 -1 20 28 -16 11 -20 -20 11 17 0 -20 -20 -20 -20 -18 -20 -20 -20 -20 -20 -20 -20 -20 -20 -20 -20 -20 -20 -20 -20

GFSGBSN_prec_radar_117.txt.gz
Reflectivity
19 -8 -1 9 12 -17 -18 -20 -20 -20 -20 -20 -20 -20 -20 -20 -20 -20 -20 -20 -20 -20 -20 -6 -20 -20 -20 -20 -20 -20 -20 -20 -20 -20 -20 -20 -20 -20 -20 -20 -20 -20 -20 -20 -20 -20 -20
9 11 6 -20 -20 -20 -20 -17 -20 -20 -20 -20 -20 -20 -20 -20 -20 -20 -20 -20 -20 -20 -20 5 -20 -20 -20 -20 -18 -20 -20 -20 -20 -20 -20 -20 -20 -20 -20 -20 -20 -20 -20 -20 -20 -20 -20
7 11 2 -20 -20 -20 -20 -20 -20 -20 -20 -20 -20 -20 -20 -20 -20 -20 -6 0 -20 -20 -20 9 6 -19 -20 -20 -20 -20 -20 -20 -20 -20 -20 -20 -20 -20 -20 -20 -20 -20 -20 -20 -20 -20 -20
10 -3 2 -16 -20 -20 -20 -20 -20 -20 -20 -20 -20 -20 -20 -20 -20 -20 5 8 -20 -1 6 14 10 -20 -20 -20 -20 -20 -20 -20 -20 -20 -20 -20 -20 -20 -20 -20 -20 -20 -20 -20 -20 -20 -20
-10 -3 -6 2 1 -10 1 -2 -11 -20 -20 -20 -20 -20 -20 -20 -20 -20 6 5 0 13 16 3 -14 -20 -20 -20 -20 -20 -20 -20 -20 -20 -20 -20 -20 -20 -20 -20 -20 -20 -20 -20 -20 -20 -20
14 9 7 0 -20 -20 -11 3 -1 -20 -20 -19 -20 -20 -20 -20 -20 -20 9 5 -7 13 -2 -20 -16 -6 -20 -20 -20 -20 -20 -20 -20 -20 -20 -20 -20 -20 -20 -20 -20 -20 -20 -20 -20 -20 -20
3 7 12 7 5 2 11 13 3 -14 -12 -20 -20 -20 -20 -20 -20 -20 6 -20 -20 -20 -8 -20 -20 -20 -20 -20 -20 -20 -20 -20 -20 -20 -20 -20 -20 -20 -20 -20 -20 -20 -20 -20 -20 -20 -20
-20 -12 4 8 0 -9 -8 -20 1 -20 -14 -20 -20 -20 -20 -20 -15 -15 1 -20 -20 -20 -20 -20 -20 -20 -20 -20 -20 -20 -20 -20 -20 -20 -20 -20 -20 -20 -20 -20 -20 -20 -20 -20 -20 -20 -20
2 -4 1 5 -11 -20 -20 -20 -20 -20 -20 -20 -20 -20 -20 -20 -4 4 -18 -20 -20 -20 -20 -20 -20 -20 -20 -20 -20 -20 -20 -20 -20 -20 -20 -20 -20 -20 -20 -20 -20 -20 -20 -20 -20 -20 -20
17 9 16 20 17 -6 -20 -20 -20 -20 -20 -20 -20 -20 -20 -20 -1 5 0 -20 -20 -20 -20 -20 -20 -20 -20 -20 -20 -20 -20 -20 -20 -20 -20 -20 -20 -20 -20 -20 -20 -20 -20 -20 -20 -20 -20
-14 16 14 -10 -20 19 10 -17 -20 -20 -20 -20 -20 -20 -20 -20 -19 -10 -20 -20 -20 -20 -20 -20 -20 -20 -20 -20 -20 -20 -20 -20 -20 -20 -20 -20 -20 -20 -20 -20 -20 -20 -20 -20 -20 -20 -20
17 -20 -20 7 -4 -20 -11 -2 -20 -20 -20 -18 -20 -20 -10 -9 -2 -20 -20 -20 -20 -20 -20 -20 -20 -20 -20 -20 -20 -20 -20 -20 -20 -20 -20 -20 -20 -20 -20 -20 -20 -20 -20 -20 -20 -20 -20
20 16 15 -13 14 6 6 -20 -20 -4 -20 -20 -20 -20 -2 2 -17 -20 -20 -3 -20 -20 -20 -20 -20 -20 -20 -20 -20 -20 -20 -20 -20 -20 -20 -20 -20 -20 -20 -20 -20 -20 -18 2 -20 -20 -20
24 6 18 18 13 13 19 -20 -20 13 -20 -20 -20 -20 -20 -20 -20 -3 9 22 -20 -20 -20 -20 -20 -20 -20 -20 -20 -20 -20 -20 -20 -20 -20 -20 -20 -20 -20 -20 -20 -20 -19 -20 -20 -20 -20
19 19 19 -19 20 14 5 -1 -20 -20 -20 -13 -20 -20 -20 11 7 8 17 22 -19 -20 -20 -20 -20 -20 -20 -20 -20 -20 -20 -20 -20 -20 -20 -20 -20 -20 -20 -20 -20 -20 -20 -20 -17 -19 -20
22 19 19 20 16 8 -9 1 -9 -20 -16 -20 -20 -17 -20 -20 2 16 23 -1 -11 -20 -20 -20 -20 -20 -20 -20 -20 -20 -20 -20 -20 -20 -20 -20 -20 -20 -20 -20 -20 -20 -20 -20 -17 -20 -14
-20 20 19 18 16 14 17 -9 13 -3 -11 -6 -1 2 -18 -19 15 25 18 1 -16 -20 -20 -20 -20 -20 -20 -20 -20 -20 -20 -20 -20 -20 -20 -20 -2 -20 -19 -20 -20 -20 -20 -20 -20 -20 -20
12 34 19 16 11 14 -20 -20 20 -2 7 9 15 14 -20 -2 12 32 11 -5 -20 -20 -20 -20 -20 -20 -20 -20 -20 -20 -20 -20 -20 -20 -20 -20 20 9 -19 -20 -18 -14 -20 1 -20 -20 -20
21 0 21 16 12 -3 -18 -20 19 21 23 11 15 6 -20 23 14 3 -19 -11 2 -20 -20 -15 -20 -20 -20 -20 -2 -20 -20 -20 -20 -20 -20 -20 -5 -8 -15 -20 -20 27 3 -5 -11 -20 -20
19 -1 -20 -20 16 -12 -20 -20 18 -3 20 19 23 8 29 22 22 -15 -17 2 12 -13 -9 12 -11 -3 -20 -20 -13 -8 -20 -20 -20 -20 -20 -14 -20 -5 -20 -20 -20 -20 26 13 5 -12 -20
17 15 13 12 -2 -20 -20 -20 -19 -1 18 17 27 23 -20 10 13 -15 -1 -19 5 7 -13 -3 -2 -12 -20 15 -18 6 -9 -0 -20 -20 -20 11 -1 -20 -20 -10 -20 -17 25 32 19 -20 -19
33 10 16 -20 -15 6 -19 13 -17 -7 22 28 24 19 8 -20 -20 -9 -6 -1 -20 -20 0 9 12 -20 19 6 -20 -18 -17 10 -20 -20 -20 -20 -20 -20 -20 18 -20 -20 13 -10 -20 -12 -7
28 20 14 -2 -11 -10 -1 11 -18 -20 21 26 12 30 -9 -19 -20 -4 -16 -13 -20 -11 -20 -20 -2 12 15 -20 2 -9 18 8 16 -9 -1 5 -20 -14 -7 -20 12 21 -20 -18 -18 -14 -20
22 15 15 13 -20 13 15 23 -19 8 -6 1 9 -20 5 -17 17 -20 -20 -20 -20 -20 -20 -20 -17 -12 -20 -17 -12 44 35 -7 -20 -20 -12 -19 -20 12 8 -20 7 -20 -14 17 6 -10 -20
13 10 14 14 5 -20 15 -10 13 -20 19 -20 8 25 -14 8 -18 -8 -19 -20 -20 -20 -20 -20 -16 -20 19 20 15 27 23 -4 -17 -20 -20 -19 -20 -20 -9 -20 -20 -20 -20 -20 -20 -20 -20
-20 -20 -5 11 17 16 17 -17 19 8 -16 15 -20 -18 15 15 8 20 18 -17 -20 -20 -20 -20 -7 -5 25 28 21 4 -2 -13 -3 -18 -20 -20 -20 -2 -20 -20 -20 -20 -20 -20 -20 -20 -20
2 -20 -20 -20 -20 11 13 -15 4 12 -15 6 -8 1 15 16 -14 -0 -15 -20 -20 -19 -20 -20 0 3 24 27 -14 -11 -20 -20 -20 -20 -1 1 -1 -20 -20 -20 -20 -20 -20 -20 -20 -20 -20
22 20 -2 -0 -20 -20 -20 -4 16 0 -11 8 -10 16 7 33 15 -20 -20 -20 -16 -9 -20 -19 -2 -11 2 26 19 -13 -20 -20 -20 -20 -7 -20 -20 -20 -20 -20 -20 -20 -20 -20 -20 -20 -20
22 21 4 3 10 -3 -20 -12 2 -18 4 24 15 -8 5 36 24 -20 -20 -20 -20 -20 -20 -20 -20 -20 -20 9 23 -4 21 -17 -20 -20 -20 -20 -20 -20 -20 -20 -20 -20 -20 -20 -20 -20 -20

GFSGBSN_prec_radar_123.txt.gz
Reflectivity
6 -10 -6 -20 -15 12 -15 -2 -19 11 2 -20 -20 -20 -20 -20 -20 -20 -20 -20 -20 -20 -20 -20 -20 -20 -20 -20 -20 -20 -20 -20 -20 -20 -20 -20 -20 -20 -20 -20 -20 -20 -20 -20 -20 -20 -20
26 30 20 29 20 26 15 5 3 -4 1 -20 -20 -20 -20 -20 -20 -20 -20 -20 -20 -20 -20 -20 -20 -20 -20 -20 -20 -20 -20 -20 -20 -20 -20 -20 -20 -20 -20 -20 -20 -20 -20 -20 -20 -20 -20
29 24 29 20 22 15 24 14 18 6 -4 -20 -20 -20 -20 -20 -20 -20 -20 -20 -20 -20 -20 -20 -20 -20 -20 -20 -20 -20 -20 -20 -20 -20 -20 -20 -20 -20 -20 -20 -20 -20 -20 -20 -20 -20 -20
30 30 32 32 26 25 -6 12 14 -4 -10 -20 -20 -20 -20 -20 -20 -20 -20 -20 -20 -20 -20 -20 -20 -20 -20 -20 -20 -20 -20 -20 -20 -20 -20 -20 -20 -20 -20 -20 -20 -20 -20 -20 -20 -20 -20
29 24 22 25 26 28 30 27 22 15 5 -4 -20 -14 -20 -20 -20 -20 -20 -20 -15 -20 1 -20 -20 -20 -20 -20 -20 -20 -20 -20 -20 -20 -20 -20 -20 -20 -20 -20 -20 -20 -20 -20 -20 -20 -20
30 13 24 22 8 20 21 26 24 9 12 7 -17 -7 -20 -20 -20 -20 -20 -17 8 3 -7 -20 -20 -20 -20 -20 -20 -20 -20 -20 -20 -20 -20 -20 -20 -20 -20 -20 -20 -20 -20 -20 -20 -20 -20
30 24 1 23 21 16 -7 24 27 5 3 13 4 -20 -20 -20 -20 -20 -15 -20 -20 -20 -16 -20 -20 -20 -20 -20 -20 -20 -20 -20 -20 -20 -20 -20 -20 -20 -20 -20 -20 -20 -20 -20 -20 -20 -20
18 26 24 20 20 23 18 5 13 3 11 -7 0 -20 -20 -20 -20 -13 -13 -20 -20 -20 -20 -20 -20 -20 -20 -20 -20 -20 -20 -20 -20 -20 -20 -20 -20 -20 -20 -20 -20 -20 -20 -20 -20 -20 -20
9 25 26 21 20 24 -17 10 16 12 11 10 3 -20 -20 -20 -18 1 -18 -20 -20 -20 -20 -20 -20 -20 -20 -20 -20 -20 -20 -20 -20 -20 -20 -20 -20 -20 -20 -20 -20 -20 -20 -20 -20 -20 -20
10 17 30 22 22 -14 11 -11 1 17 13 -3 2 -19 -20 -20 -3 -14 -20 -20 -20 -20 -20 -20 -20 -20 -20 -20 -20 -20 -20 -20 -20 -20 -20 -20 -20 -20 -20 -20 -20 -20 -20 -20 -20 -20 -20
17 11 16 23 16 8 9 21 11 15 20 12 12 11 18 -3 -15 -7 -17 -20 -20 -20 -20 -20 -20 -20 -20 -20 -20 -20 -20 -20 -20 -20 -20 -20 -20 -20 -20 -20 -20 -20 -20 -20 -20 -20 -20
23 -3 4 26 22 22 12 16 15 20 11 22 10 1 -10 -18 -4 12 -1 -19 -20 -20 -20 -20 -20 -20 -20 -20 -20 -20 -20 -20 -20 -20 -20 -20 -20 -20 -20 -20 -20 -20 -20 -20 -20 -20 -20
30 27 19 16 21 19 33 18 19 14 -15 2 16 12 -10 -20 -5 -5 -6 8 -12 -9 -20 -20 -20 -20 -20 -20 -20 -20 -20 -20 -20 -20 -20 -20 -20 -20 -20 -20 -20 -20 -20 -12 -20 -7 -20
24 2 35 22 17 16 13 31 18 24 14 6 6 12 6 7 6 11 17 2 -18 -20 -20 -20 -20 -20 -20 -20 -20 -20 -20 -20 -20 -20 -20 -20 -20 -20 -20 -20 -20 -20 -20 -20 -20 -20 -20
15 21 22 26 30 18 20 36 35 30 16 14 1 12 -6 2 17 15 7 12 -20 -20 -20 -20 -20 -20 -20 -20 -20 -20 -20 -20 -20 -20 -20 -20 -20 -20 -20 -20 -20 -20 -20 -20 -16 -19 -16
-10 -12 -9 31 27 38 22 22 34 18 18 17 -20 -4 3 14 20 21 25 6 -12 -20 -20 -20 -20 -20 -20 -20 -20 -20 -20 -20 -20 -20 -20 -20 -20 -20 -20 -20 -20 -20 -20 -17 -2 12 -11
-4 15 10 22 8 38 37 33 17 17 19 -1 -20 -3 -20 -3 15 25 17 2 -11 -20 -20 -20 -20 -20 -20 -20 -20 -20 -20 -20 -20 -20 -20 -20 -20 -20 -20 -20 -20 -20 -20 -20 -0 -19 -13
16 -4 9 -9 9 15 32 38 26 29 22 29 2 1 -20 21 10 15 14 -6 -20 -20 -20 -20 -20 -20 -20 -20 -20 -20 -20 -20 -20 -20 -20 -20 -20 11 -20 -20 -20 -20 -20 -2 -10 -16 14
-2 -8 -5 5 27 1 25 23 43 35 37 28 7 -20 -5 23 15 3 -20 -20 -20 -20 -17 -20 -20 -20 -20 -19 -20 -20 -20 -20 -20 -20 -20 -20 -17 12 12 -12 -19 -20 -19 5 9 21 -16
-16 16 -10 22 18 -6 7 22 35 32 33 35 30 12 -11 24 19 1 -20 -20 -20 -20 -20 -20 -12 -20 -20 -20 -20 -18 -20 -20 -20 -20 -20 -7 -20 15 11 12 19 6 11 10 20 -1 15
5 13 -4 20 24 27 16 34 34 31 27 24 28 24 -4 10 18 -18 -1 -20 -20 -20 0 -8 -20 -7 -18 -5 -20 -20 -20 -20 -20 -20 -20 -20 -20 7 -20 -7 -20 -16 -20 -7 21 -20 17
4 -3 -5 20 -20 11 27 42 17 28 31 8 22 12 -5 -20 2 14 15 -10 -20 -20 4 15 -8 -20 -20 4 -20 -20 7 -15 -20 -20 21 -20 -9 -20 -20 -20 -9 -16 -20 -20 -20 -20 -20
10 7 -2 15 4 17 31 34 36 22 33 34 5 -5 1 -20 -14 19 11 -20 -20 -17 -19 -19 3 13 2 -20 6 5 7 -20 -1 -20 -20 -20 -15 -20 -5 -20 -7 12 -20 -20 -20 -20 -20
17 8 14 16 -3 38 31 38 31 14 25 8 -6 10 -3 -18 3 -7 -20 -20 -20 -20 -20 -20 -13 -20 -20 -20 -20 -20 -20 -20 -20 -20 -20 -18 -1 21 -3 12 16 -20 -20 -20 -20 -20 -20
14 35 -0 -11 8 15 32 32 27 25 -5 -20 -17 -6 38 23 5 -20 -20 -20 -16 15 -9 -20 -20 -20 -20 3 12 -11 -19 -20 -20 -20 -20 -20 5 11 19 -2 -3 -18 -20 -20 -20 -20 -20
18 34 36 -13 41 39 22 22 23 22 -20 -20 -14 -20 28 -12 -20 -19 -20 -20 -20 -20 -20 -20 -20 -20 -20 11 0 10 6 5 -4 -16 -18 -18 -20 3 21 6 -9 -20 -20 -20 -20 -20 -20
18 29 38 37 28 39 20 -5 -19 9 -17 -20 -20 -20 16 17 -16 20 5 -20 -20 -20 -20 -20 -20 -20 -20 -16 12 6 3 -1 -7 -2 -20 4 11 21 30 23 6 -20 -20 -20 -20 -20 -20
-6 3 12 16 20 22 14 12 14 17 15 -19 -20 -20 -20 8 -3 20 12 14 -20 -20 -20 -13 6 -10 4 16 7 -11 -20 -20 -20 -20 -20 7 6 -6 3 -2 -20 -20 -20 -20 -20 -20 -20
-17 -0 -20 -20 -20 -20 -5 18 12 -4 10 -16 -20 -20 -20 9 -14 -20 -20 -20 -19 -20 14 11 -17 8 -15 -6 -19 -20 -20 -20 -20 -20 -20 9 1 -14 -20 -20 -20 -20 -20 -20 -20 -20 -20

GFSGBSN_prec_radar_129.txt.gz
Reflectivity
16 28 28 15 8 -5 -4 -20 -19 0 -20 4 0 -20 -20 -20 -20 -20 -20 -20 -20 -20 -20 -20 -20 -20 -20 -20 -20 -20 -20 -20 -20 -20 -20 -20 -20 -20 -20 -20 -20 -20 -20 -20 -20 -20 -20
31 28 19 29 24 20 16 -2 16 -4 -13 24 10 3 -15 -20 -20 -20 -20 -20 -20 -20 -20 -20 -20 -20 -20 -20 -20 -20 -20 -20 -20 -20 -20 -20 -20 -20 -20 -20 -20 -20 -20 -20 -20 -20 -20
28 35 29 25 29 24 38 26 19 20 11 6 14 10 -19 -20 -20 -20 -20 -20 -20 -20 -20 -20 -20 -20 -20 -20 -20 -20 -20 -20 -20 -20 -20 -20 -20 -20 -20 -20 -20 -20 -20 -20 -20 -20 -20
22 33 33 27 25 22 24 31 34 28 25 19 20 15 -17 -20 -20 -20 -20 -20 -20 -20 -20 -20 -20 -20 -20 -20 -20 -20 -20 -20 -20 -20 -20 -20 -20 -20 -20 -20 -20 -20 -20 -20 -20 -20 -20
27 26 22 26 30 17 22 19 26 29 28 23 20 22 13 -3 -20 -20 -20 -20 -20 -20 -20 -20 -20 -20 -20 -20 -20 -20 -20 -20 -20 -20 -20 -20 -20 -20 -20 -20 -20 -20 -20 -20 -20 -20 -20
14 19 22 26 24 20 24 27 29 29 23 23 18 17 17 19 8 -8 -20 -20 -20 -20 -20 -20 -20 -20 -20 -20 -20 -20 -20 -20 -20 -20 -20 -20 -20 -20 -20 -20 -20 -20 -20 -20 -20 -20 -20
-20 -2 29 32 32 31 23 19 23 27 24 11 18 17 21 19 -10 6 -13 -20 -20 -20 -20 -20 -20 -20 -20 -20 -20 -20 -20 -20 -20 -20 -20 -20 -20 -20 -20 -20 -20 -20 -20 -20 -20 -20 -20
-20 -20 -2 23 25 33 27 21 28 26 27 20 15 14 -7 18 17 8 -5 -19 -18 -20 -20 -20 -20 -20 -20 -20 -20 -20 -20 -20 -20 -20 -20 -20 -20 -20 -20 -20 -20 -20 -20 -20 -20 -20 -20
-20 -20 -16 -2 15 30 35 29 29 21 10 18 6 13 16 -13 1 -13 -20 0 10 6 -19 -20 -20 -20 -20 -20 -20 -20 -20 -20 -20 -20 -20 -20 -20 -20 -20 -20 -20 -20 -20 -20 -20 -20 -20
-20 -20 -20 -20 -12 11 20 28 31 29 25 -2 10 -17 3 -16 -2 -1 -14 8 19 11 2 -20 -20 -20 -20 -20 -20 -20 -20 -20 -20 -20 -20 -20 -20 -20 -20 -20 -20 -20 -20 -20 -20 -20 -20
-20 -20 -20 -20 -20 -20 -5 25 23 25 28 19 2 9 -3 2 12 -1 9 14 18 14 16 -14 -20 -20 -20 -20 -20 -20 -20 -20 -20 -20 -20 -20 -20 -20 -20 -20 -20 -20 -20 -20 -20 -20 -20
-20 -20 -20 -20 -20 -20 -20 -8 11 28 24 23 16 13 -2 1 -6 0 6 24 25 21 14 -20 -20 -20 -20 -20 -20 -20 -20 -10 -20 -20 -20 -20 -20 -20 -20 -20 -20 -20 -20 -20 -20 -20 -20
-20 -20 -20 -20 -20 -20 -20 -20 21 20 26 27 25 11 6 4 8 11 12 19 25 17 2 -20 -20 -20 -20 -20 -20 -20 -20 -20 -20 -20 -20 -14 -18 -20 -20 -20 -20 -20 -20 -20 -20 -20 -20
-20 -20 -20 -20 -20 -20 -20 -20 -3 24 28 30 31 18 9 4 7 9 18 23 5 4 -19 -18 -20 -20 -20 -20 -20 -20 -20 -20 -20 -20 -20 -20 -20 -20 -20 -20 -20 -20 -20 -20 -20 -20 -20
-20 -20 -20 -20 -20 -20 -20 -20 -5 -4 25 39 34 27 5 -0 -2 16 23 19 -8 -20 -20 -16 -6 -20 -20 -20 -20 -20 -20 -20 -3 4 -6 -11 -18 -20 -20 -20 -20 -20 -20 -20 -20 -20 -20
-20 -20 -20 -20 -20 -20 -20 -20 -20 -3 4 33 38 37 13 -20 6 3 28 19 -8 -8 -20 -20 -20 -20 -18 -18 -20 -20 -20 -20 -20 -14 0 -20 -20 -20 -20 -20 -20 -20 -20 -20 -20 -20 -20
-20 -20 -20 -20 -20 -20 -20 -20 -16 -4 15 35 42 42 30 13 23 24 27 20 -11 -20 -17 -18 -20 -20 -4 9 -17 -20 -20 -16 -20 -9 -18 -20 -20 -19 -20 -20 -20 -20 -20 -20 -20 -20 -20
-20 -20 -20 -20 -20 -20 -20 -20 -20 -0 14 28 45 32 34 31 31 29 25 -19 -20 2 12 -20 -20 -20 -20 6 6 2 -4 4 -20 -20 -20 -20 -20 -20 -20 -20 -20 -9 -20 -20 -18 -20 -20
-20 -20 -20 -17 -20 -20 -20 -20 -9 -18 19 13 42 37 29 28 27 15 -20 -20 -20 2 15 0 -18 -20 -20 -3 -20 -1 0 11 -19 -20 -6 -20 -20 -20 -20 -20 4 -19 -20 -20 -13 -5 -2
-20 -20 -20 -20 -20 -20 -10 -20 -20 -17 6 24 38 31 37 37 34 1 -14 -13 -4 -15 13 11 -4 -6 -20 -20 -20 -0 1 -6 -20 -20 -20 -12 -19 -5 -12 -15 17 22 -20 1 -20 19 9
-20 -20 -20 -16 -20 -20 -8 -18 -20 2 13 25 40 37 39 29 28 26 -19 -20 -20 -6 15 21 22 -6 2 -20 -20 -19 -16 14 -20 -20 -20 -20 2 2 2 -14 21 11 21 11 19 18 20
3 -20 -20 -20 -20 -20 -5 2 -20 -13 27 29 38 21 39 13 -12 6 10 6 -20 -20 -20 -20 -0 -17 1 17 9 7 -13 14 4 16 1 -7 9 0 -20 -20 -20 3 -6 -20 7 -19 -20
-19 -4 -7 -20 -20 -9 3 5 11 9 24 32 37 28 25 23 -6 17 4 -20 -20 -20 -20 -20 -14 -15 15 11 6 5 9 26 19 -13 -12 12 8 13 1 -15 5 -14 -20 -20 -20 -20 -20
-11 -3 -20 -20 -7 -1 6 10 -20 8 26 37 30 33 39 30 18 16 -9 -20 -20 -20 -20 -19 10 -4 2 4 -1 5 9 19 -2 -8 -4 35 26 26 16 5 19 1 -20 -20 -20 -20 -20
-20 -20 7 2 5 1 0 7 -18 14 19 32 24 17 36 29 19 15 17 14 -6 -20 25 32 8 10 29 36 18 17 11 20 -0 -20 1 -3 16 19 18 2 -18 -20 -20 -20 -20 -20 -20
-18 8 -1 3 -3 -3 -20 -6 -5 11 15 10 26 17 26 18 12 3 15 -20 -20 0 18 -17 17 23 -17 8 3 18 11 -3 -19 6 -20 -20 -20 18 12 13 12 -20 -20 -19 0 -1 -20
-20 13 -12 -20 26 15 3 -2 -12 38 21 36 27 11 1 23 5 2 1 -16 -11 -8 9 21 15 19 18 16 13 20 13 -15 17 10 4 -10 -2 9 4 11 -12 -20 -20 -2 18 -20 -20
15 1 -20 22 10 6 -10 11 37 31 27 39 34 24 22 28 3 -12 19 -4 12 18 10 10 15 14 18 12 10 10 6 -15 -6 10 -18 21 21 14 16 17 15 -20 -20 -3 -20 -20 -20
-20 -18 -3 28 40 26 9 12 36 39 37 37 28 25 17 -9 -7 -20 -20 2 16 0 -9 18 -16 16 9 14 -13 12 3 7 -13 -15 -20 5 -16 5 20 19 18 11 -5 -10 -20 -20 -20

GFSGBSN_prec_radar_132.txt.gz
Reflectivity
29 25 26 17 15 26 9 10 -20 -12 -20 -20 -4 -17 15 -18 -20 -20 -20 -20 -20 -20 -20 -20 -20 -20 -20 -20 -20 -20 -20 -20 -20 -20 -20 -20 -20 -20 -20 -20 -20 -20 -20 -20 -20 -20 -20
26 33 34 36 30 22 23 20 4 2 10 11 20 8 -10 15 -20 -20 -20 -20 -20 -20 -20 -20 -20 -20 -20 -20 -20 -20 -20 -20 -20 -20 -20 -20 -20 -20 -20 -20 -20 -20 -20 -20 -20 -20 -20
11 23 33 32 27 18 25 15 24 18 27 26 22 15 8 10 -0 -20 -20 -20 -20 -20 -20 -20 -20 -20 -20 -20 -20 -20 -20 -20 -20 -20 -20 -20 -20 -20 -20 -20 -20 -20 -20 -20 -20 -20 -20
22 15 26 21 24 24 22 30 32 32 31 29 25 21 20 11 -11 -20 -20 -20 -20 -20 -20 -20 -20 -20 -20 -20 -20 -20 -20 -20 -20 -20 -20 -20 -20 -20 -20 -20 -20 -20 -20 -20 -20 -20 -20
-20 -13 18 19 19 26 34 36 32 30 27 26 28 26 25 19 17 13 -13 -20 -20 -20 -20 -20 -20 -20 -20 -20 -20 -20 -20 -20 -20 -20 -20 -20 -20 -20 -20 -20 -20 -20 -20 -20 -20 -20 -20
-7 -17 -14 11 21 9 14 18 31 36 27 27 29 22 16 15 16 9 16 8 -19 -20 -20 -20 -20 -20 -20 -20 -17 -20 -20 -20 -20 -20 -20 -20 -20 -20 -20 -20 -20 -20 -20 -20 -20 -20 -20
-20 -16 2 -20 -8 23 25 20 26 32 28 16 19 8 12 19 13 8 21 17 -7 -20 -20 -20 -20 -20 -20 -20 -20 5 -19 -20 -20 -20 -20 -20 -20 -20 -20 -20 -20 -20 -20 -20 -20 -20 -20
-20 -20 -20 -20 -20 -7 10 29 26 24 29 25 18 9 11 12 -1 -3 13 19 16 -9 -20 -20 -20 -20 -20 -20 -20 -20 -20 -20 -20 -20 -20 -20 -20 -20 -20 -20 -20 -20 -20 -20 -20 -20 -20
-20 -20 -20 -20 -20 -19 -9 1 30 17 26 18 22 23 16 11 6 11 15 14 24 8 -19 -20 -20 -20 -20 -20 -20 -20 -20 -20 -20 -20 -20 -20 -20 -20 -20 -20 -20 -20 -20 -20 -20 -20 -20
-20 -20 -20 -20 -20 -20 -5 -20 18 23 16 16 20 21 25 20 20 20 14 14 13 -4 15 -20 -20 -20 -20 -20 -20 -20 -20 -20 -20 -20 -20 -20 -20 -20 -20 -20 -20 -20 -20 -20 -20 -20 -20
-20 -20 -20 -20 -20 -20 -20 -20 17 32 22 23 25 18 22 18 23 29 21 26 15 8 22 -19 -20 -20 -20 -20 -20 -20 -13 -20 -20 -20 -20 -20 -20 -20 -20 -20 -20 -20 -20 -20 -20 -20 -20
-20 -20 -20 -20 -20 -20 -20 -20 -20 16 24 21 23 20 24 23 20 19 28 24 14 13 18 -20 -20 -20 -20 -20 -20 -18 -20 -20 -13 -11 -20 -20 -20 -20 -20 -20 -20 -20 -20 -20 -20 -20 -20
-20 -20 -20 -20 -20 -20 -20 -20 -20 -20 21 30 21 22 22 5 10 16 19 16 14 16 -9 -20 -20 -20 -20 -20 -20 -9 -20 -7 -20 -1 -20 -20 -20 -10 -20 -20 -20 -20 -20 -20 -20 -20 -20
-20 -20 -20 -20 -20 -20 -20 -20 -20 -20 -20 14 5 31 30 19 13 7 23 27 13 -5 -17 -20 6 -14 -20 -20 -20 -4 -20 -20 -20 -20 -14 -20 -20 -20 -20 -20 -20 -20 -20 -20 -20 -20 -20
-20 -20 -20 -20 -20 -20 -20 -20 -20 -20 -20 -20 25 36 28 21 29 20 31 25 5 4 -10 -19 16 13 -19 -20 -19 -8 -4 -20 -20 -20 -20 -20 -20 -20 -18 -20 -20 -20 -20 -20 -20 -20 -20
-20 -20 -20 -20 -20 -20 -20 -20 -20 -20 -20 -8 -11 34 39 -2 25 31 30 22 4 6 -2 -20 5 7 -3 -20 -20 -19 -20 -20 -20 -20 -19 -19 -14 -20 -20 -20 -20 -20 -20 -20 -20 -20 -20
-20 -20 -20 -20 -20 -20 -20 -20 -20 -1 -13 -17 12 25 34 25 31 32 30 21 -9 -11 -16 4 -1 2 5 -4 1 -19 -20 -20 -20 -20 -18 -16 4 -20 -15 -20 -20 -20 -20 -20 -20 -20 -20
-20 -20 -20 -20 -20 -20 -20 -20 -20 -6 11 -16 -7 8 18 26 38 37 34 3 -20 -20 -20 -6 4 5 -1 -4 4 3 -20 -0 -3 -20 -18 -6 1 -20 -20 -20 -20 -20 -20 -19 -20 -20 -19
-20 -20 -20 -20 -20 -6 -20 -20 -20 -17 6 18 1 -2 1 23 35 29 7 -20 -18 -20 -20 14 9 -3 -2 -0 8 -12 11 23 14 18 -19 -20 -7 -10 -20 -16 -20 -20 -20 -19 -14 -8 -5
-20 -20 -20 -20 -20 -4 3 -18 -20 -11 -4 18 -11 10 -15 15 39 37 7 -18 -1 -20 4 20 9 -13 5 1 10 0 30 31 14 34 -9 -20 -20 -20 -20 -20 -8 7 -20 -20 8 8 -17
-20 -20 -20 -20 -6 -0 1 3 -20 -12 -10 23 -9 1 -20 13 33 34 15 6 -7 2 -7 13 34 -6 -20 -17 14 19 25 18 18 27 9 -18 0 -20 -20 -20 -9 -5 -14 -20 -14 13 26
-20 -20 -20 -20 -20 -20 -2 4 -20 -20 5 -5 10 4 20 8 33 26 7 16 -20 3 4 3 -20 -20 18 -20 -18 -20 3 23 15 18 8 -7 -18 -20 -20 -20 -20 -6 -3 -17 -20 26 -1
-20 -20 -20 -7 2 -0 -20 7 0 -15 17 1 -1 -3 12 18 17 27 23 23 -1 -14 -4 -12 -20 6 -9 -20 -12 12 -15 7 1 -20 -20 -5 0 -20 -20 -20 -15 2 1 -20 -20 -20 -19
-20 -20 -20 -20 -20 -20 -7 9 8 -5 16 -17 3 18 25 6 19 22 13 -20 -17 12 17 6 -3 9 -20 15 -20 -20 -2 13 -7 -20 -20 -11 -10 19 -20 -15 14 14 -14 -20 -20 -20 -15
-20 -20 -20 -20 -20 4 8 10 10 6 10 23 9 20 31 27 13 19 16 -20 6 14 24 -11 -20 2 15 4 -9 -12 -20 -9 -2 -11 -20 -8 -1 14 26 23 12 -15 -20 -20 -5 -2 -20
-20 -20 -19 2 -20 -20 -20 -9 -3 -10 -8 17 15 4 33 33 26 8 -18 3 32 30 26 -17 -20 -20 -20 -6 20 19 16 8 -1 -19 -20 -20 -6 19 25 21 13 -20 -20 -20 -2 16 -13
-20 -3 -1 -13 -20 -20 -12 -0 2 0 -15 24 20 8 31 41 19 34 34 32 23 26 37 21 3 -7 9 13 -20 -1 3 -17 12 -7 14 -5 2 -2 -12 10 -6 -20 -20 -19 7 -12 -20
-20 -20 -20 -20 -20 -20 -8 1 -2 10 6 21 6 13 20 30 21 2 9 2 31 25 29 31 19 9 18 13 -1 8 -20 -7 4 -11 -20 14 19 6 -2 13 10 -20 -20 -20 -2 -20 -20
-0 6 -5 -20 -20 -20 2 -13 -10 24 24 33 21 3 19 32 -4 -17 -17 5 30 -15 -16 -19 -13 -4 -12 -20 -19 4 -15 1 -9 -12 -20 0 -2 16 17 20 -16 -8 -20 1 -3 -20 -20

GFSGBSN_prec_radar_135.txt.gz
Reflectivity
35 23 22 21 -2 -19 -20 7 11 -20 -20 -12 -20 -20 -16 8 -8 -8 -20 -20 -20 -20 -20 -20 -20 -20 -20 -20 -20 -20 -20 -20 -20 -20 -20 -20 -20 -20 -20 -20 -20 -20 -20 -20 -20 -20 -20
29 25 27 31 23 14 22 18 -13 -14 -13 -10 23 13 18 13 -4 -18 7 -20 -20 -20 -20 -20 -20 -20 -20 -20 -20 -20 -20 -20 -20 -20 -20 -20 -20 -20 -20 -20 -20 -20 -20 -20 -20 -20 -20
23 29 27 28 19 25 26 28 19 30 33 29 30 33 22 26 -10 -20 -20 -12 -20 -20 -20 -20 -20 -20 -20 -20 -20 -20 -20 -20 -20 -20 -20 -20 -20 -20 -20 -20 -20 -20 -20 -20 -20 -20 -20
32 26 -0 28 23 23 23 24 32 26 38 31 26 30 28 18 26 6 -6 7 -13 -20 -20 -20 -20 -20 -20 -20 -20 -20 -20 -20 -20 -20 -20 -20 -20 -20 -20 -20 -20 -20 -20 -20 -20 -20 -20
-10 -4 15 5 32 23 16 25 24 19 21 33 30 25 28 17 23 10 16 -0 -2 -19 -20 -20 -20 -20 -20 -20 -20 -20 -20 -20 -20 -20 -20 -20 -20 -20 -20 -20 -20 -20 -20 -20 -20 -20 -20
-20 7 1 -3 5 5 -10 16 28 22 23 29 23 29 34 19 20 10 11 4 14 -17 -18 -20 -20 -20 -20 -20 -20 -20 -20 -20 -20 -20 -20 -20 -20 -20 -20 -20 -20 -20 -20 -20 -20 -20 -20
-20 -20 -20 -2 -5 -1 13 22 5 11 6 19 23 28 37 33 32 21 25 11 -19 -14 -20 -20 -20 -20 -20 -20 -20 -20 -20 -20 -20 -20 -20 -19 -20 -20 -20 -20 -20 -20 -20 -20 -20 -20 -20
-20 -20 -20 -20 13 14 11 -4 18 -8 -6 -20 8 18 25 25 31 29 25 29 9 -15 -12 -20 -20 -20 -20 -20 -20 -20 -20 -20 -20 -20 -20 -20 -20 -19 -19 -20 -20 -20 -20 -20 -20 -20 -20
-20 -20 -20 -20 -18 -2 -2 -9 -17 2 6 -12 -15 9 24 13 20 10 15 19 23 15 -8 -20 -20 -20 -20 -20 -20 -20 -20 -20 -20 -20 -20 -20 -20 -20 -20 -20 -20 -20 -20 -20 -20 -20 -20
-20 -20 -20 -20 -20 -20 -15 -11 -20 -15 5 24 -5 -14 -9 5 8 8 6 27 24 23 13 -20 -20 -20 -20 -20 -20 -20 -20 -20 -20 -20 -20 -20 -20 -20 -20 -20 -20 -20 -20 -20 -20 -20 -20
-20 -20 -20 -20 -20 -20 -20 -20 -20 -20 13 17 19 -12 -7 4 8 16 12 14 25 19 19 2 -20 -20 -20 -20 -20 -20 2 -3 -20 -20 -20 -20 -20 -20 -20 -20 -20 -20 -20 -20 -20 -20 -20
-20 -20 -20 -20 -20 -20 -20 -20 -20 -20 -14 34 30 -13 16 12 2 -11 -5 12 27 17 8 -6 -20 -20 -20 -20 -20 -20 -20 -20 -18 14 3 -20 -20 -20 -20 -20 -20 -20 -20 -20 -20 -20 -20
-20 -20 -20 -20 -20 -20 -20 -20 -20 -20 -13 -4 30 23 23 -11 -17 22 7 9 18 9 1 -20 -19 -10 -19 -20 -20 -9 -9 -7 -20 -19 -16 -19 -20 -20 -20 -20 -20 -20 -20 -20 -20 -20 -20
-20 -20 -20 -20 -20 -20 -20 -20 -20 -20 -20 -20 -20 6 25 25 -11 3 25 26 1 -11 5 -9 -5 14 10 -1 -19 3 17 -1 -20 -20 -20 -20 -20 -20 -20 -20 -20 -20 0 1 -20 -20 -20
-20 -20 -20 -20 -20 -20 -20 -20 -19 -19 -20 -20 -20 -20 16 21 26 22 36 21 -20 -20 -5 -20 -12 11 8 -1 -19 -9 11 9 -20 -20 -20 -20 -20 -20 -20 -12 -20 -20 -20 -20 8 13 -10
-20 -20 -20 -20 -20 -20 -20 -20 -20 -20 -20 -20 -20 -20 -20 -6 32 36 34 26 -20 -20 -19 -20 -12 -4 9 -11 -3 -4 -5 -3 -12 -2 -20 -20 -16 -20 -20 -19 -17 -20 -20 -20 -13 -19 -20
-20 -20 -20 -20 -20 -20 -20 -20 -20 -20 -20 -20 -20 -20 -20 -3 29 37 29 20 -20 -20 -20 -19 0 -2 6 4 -5 8 3 -20 -20 -19 6 -17 -14 -18 -20 -20 -20 -20 -20 -20 -20 -10 -20
-20 -20 -20 -20 -20 -20 -20 -20 -20 -20 -20 -20 -3 -20 -20 16 21 34 26 19 -20 -20 -20 -20 -20 -11 -10 -7 -17 -2 22 9 -19 -20 -19 -4 -20 -20 -20 -20 -20 -20 -20 -20 3 -19 -20
-20 -20 -20 -20 -20 -20 -20 -20 -20 -20 -20 -20 -18 -1 -17 10 -20 12 34 8 -18 -20 -20 1 -8 -20 -20 -14 -10 -6 -9 16 11 27 12 -15 5 -16 -20 -20 -20 -20 -20 -20 -3 -15 -20
-20 -20 -20 -20 -20 -20 -20 -18 -20 -20 -20 -20 -12 -20 -20 14 -20 -20 -2 31 -14 -1 -20 -4 18 -20 -6 -8 -19 -15 -20 -11 24 10 -20 -16 -11 -18 -20 -20 -20 -18 -17 -20 -15 15 -13
-20 -20 -20 -20 -20 -20 -6 -20 -20 -20 -11 -20 -17 -17 -20 -19 -1 -14 -4 4 29 -19 13 -19 32 -20 -20 1 3 16 13 -15 22 36 33 38 20 32 9 -18 17 27 8 14 9 14 7
-20 -15 -8 -20 -20 -11 -11 -20 -20 -20 -4 -19 -17 -6 -20 -20 -20 -20 -9 21 -11 26 -20 11 22 -20 13 -12 1 5 27 16 11 -0 38 37 29 36 18 11 11 1 -0 12 16 13 20
-20 -20 -20 -20 -20 -20 -0 5 -2 -20 -4 -20 -19 -14 -5 -20 -15 20 -18 -20 -10 6 -16 12 21 13 17 -14 4 -20 -18 6 -12 -17 9 17 16 19 20 17 -4 17 15 -2 -5 -19 -18
-20 -20 -20 -20 -20 -20 -20 -7 -20 -20 -7 -20 -6 0 10 -5 -9 -20 -9 16 -20 -16 18 -12 12 19 2 -5 15 -8 -9 -20 2 -5 -19 11 8 11 5 8 12 4 -8 -7 4 7 12
-20 -20 -20 -20 -20 -20 -3 6 7 -20 -20 11 7 13 14 6 -20 -20 -20 -5 -13 -18 12 18 5 4 13 22 7 -5 -20 -20 -20 -20 -20 -20 -16 -3 -16 -18 -9 -13 -20 -20 11 4 -20
-20 -20 -20 -20 -20 -20 4 -16 -20 -20 -20 11 11 -17 -4 9 -20 -18 13 11 18 -4 10 21 33 -1 29 13 -9 -20 -20 -20 -20 -20 -20 -20 -20 -18 -18 -20 1 -19 -20 14 22 1 -11
-10 -20 -20 -20 7 -7 -20 -20 4 11 3 1 0 16 16 12 -19 -20 -4 12 -18 17 21 22 22 26 -1 -13 -20 -20 -20 -20 -20 -20 -20 -20 -20 -9 -19 4 -16 -20 -20 -2 11 -4 -20
25 -13 -20 -12 -20 -20 -20 -20 -8 -4 -3 -9 -8 1 13 3 -7 9 34 36 14 3 -8 -3 34 20 -20 -20 -20 -20 -20 -20 -20 -20 -20 -20 -6 8 -10 15 4 -20 -20 2 8 -2 -20
-19 -20 -20 -20 -20 -20 -4 2 -12 12 15 20 13 9 12 19 11 20 20 39 32 -11 14 3 8 -15 -20 -20 -20 -20 -18 -20 -20 -20 -20 -20 -20 -20 -17 -5 -20 -20 -20 -20 -20 -20 -10

GFSGBSN_prec_radar_138.txt.gz
Reflectivity
17 8 13 14 19 -10 -18 -20 -20 -20 -8 -2 -20 -20 -20 -20 -13 8 -10 -20 -20 -20 -20 -20 -20 -20 -20 -20 -20 -20 -20 -20 -20 -20 -20 -20 -20 -20 -20 -20 -20 -20 -20 -20 -20 -20 -20
30 27 28 26 27 22 22 16 -7 -12 2 -2 0 1 13 21 15 4 3 -6 -20 -20 -20 -20 -20 -20 -20 -20 -20 -20 -20 -20 -20 -20 -20 -20 -20 -20 -20 -20 -20 -20 -20 -20 -20 -20 -20
27 30 26 29 22 26 32 30 16 7 12 23 22 -17 16 -7 24 13 -17 -3 -20 -20 -20 -20 -20 -20 -20 -20 -20 -20 -20 -20 -20 -20 -20 -20 -20 -20 -20 -20 -20 -20 -20 -20 -20 -20 -20
29 33 23 28 31 30 24 25 29 26 21 28 26 25 22 6 3 16 -2 -3 4 -7 3 -20 -20 -20 -20 -20 -20 -20 -20 -20 -20 -20 -20 -20 -20 -20 -20 -20 -20 -20 -20 -20 -2 -20 -20
14 5 34 18 14 26 19 19 20 12 18 27 22 12 4 20 19 -9 17 -20 -20 -17 -19 -20 -20 -20 -20 -20 -20 -20 -20 -20 -20 -20 -20 -20 -20 -20 -20 -20 -20 -20 -20 -20 -20 -20 -20
6 -9 7 -1 14 8 16 22 16 22 26 16 17 15 18 16 14 25 26 25 -1 -17 -20 -20 -20 -20 -20 -20 -20 -20 -20 -20 -20 -20 -20 -20 -20 -20 -20 -20 -19 0 -19 -20 -20 -20 -20
12 -2 3 -13 -18 2 21 22 11 -3 12 12 4 14 28 27 32 31 23 11 28 -19 -20 -20 -20 -20 -20 -20 -20 -20 -20 -20 -20 -20 -20 -20 -20 -20 -17 -6 -13 -20 -20 -20 -20 -20 -20
13 9 11 -5 -14 -20 -2 -13 27 14 1 5 7 -2 5 9 2 0 -7 13 38 9 -19 -20 -20 -20 -20 -20 -20 -20 -20 -20 -20 -20 -20 -20 -20 -20 -17 -9 -20 -20 -20 -20 -20 -20 -20
-6 -8 4 4 -0 -20 -17 4 -2 5 -3 14 8 -5 -20 -16 -5 12 1 17 25 4 -1 -20 -20 -20 -20 -20 -20 -20 -20 -20 -20 -20 -20 -20 -20 -20 -20 -20 -20 -20 -20 -20 -20 -20 -20
-20 -20 -20 -20 -20 -20 -20 -20 -20 -20 -13 -2 6 0 -15 -20 -20 -20 -18 -5 -1 -5 21 7 -20 -20 -20 -20 -20 -20 -20 -20 -20 -20 -20 -20 -20 -20 -20 -20 -20 -20 -20 -20 -20 -20 -20
-20 -20 -20 -20 -20 -20 -20 -20 -20 -20 -20 -2 13 9 -20 -20 -20 -20 -20 -2 -7 -16 5 8 -14 -20 -20 -20 -20 -20 -20 -20 -20 -20 -20 -20 -20 -20 -20 -20 6 -20 -20 -20 -20 -20 -20
-20 -20 -20 -20 -20 -20 -20 -20 -20 -20 -20 -5 13 7 16 -6 -20 -20 -20 -20 -20 -12 -20 -20 -15 -13 -20 -0 -5 -20 -20 -20 -20 -20 -20 -20 -20 -20 -20 -20 -20 -20 -20 -20 -20 -20 -20
-20 -20 -20 -20 -20 -20 -20 -20 -20 -20 -20 -20 26 29 14 -7 -5 -10 -20 -16 11 -8 -20 -20 -20 -20 -10 -12 -12 -13 -20 -20 -20 -20 -20 -20 -20 -20 -0 -18 -20 -19 -20 -20 -20 -20 -20
-20 -20 -20 -20 -20 -20 -15 -20 -20 -20 -20 -20 -20 20 28 13 -3 4 -16 13 -9 -20 -20 -20 -20 -20 -18 1 -20 -20 2 -20 -20 -20 -20 -20 -20 -20 -12 1 -6 17 15 9 -19 -20 -20
-20 -20 -20 -20 -20 -20 -20 -20 -20 -20 -20 -20 -20 -20 5 14 22 30 14 19 -20 -20 -20 -20 -20 -20 -11 -19 -20 -12 -8 1 -19 -3 6 -8 -19 -20 -20 -1 2 14 2 1 -1 6 -11
-20 -20 -20 -20 -20 -20 -20 -20 -20 -20 -20 -20 -20 -20 -20 4 23 29 37 -3 -20 -20 -20 -20 -20 -20 -20 -12 -20 -20 -20 -14 -1 -4 10 12 -17 -20 -20 -15 7 5 -14 3 12 -3 -20
-2 -20 -20 -20 -20 -20 -20 -20 -20 -20 -20 -20 -20 -20 -20 -20 21 36 28 17 -20 -20 -20 -20 -20 -20 -20 -20 -20 -13 6 -19 -15 1 6 9 -3 -20 -20 -20 -20 -18 5 -4 -13 -6 -20
-20 -20 -20 -20 -20 -20 -20 -20 -20 -20 -20 -20 -20 -20 -20 16 8 20 22 13 -20 -20 -20 -20 -20 -20 -20 -20 -20 -4 -20 -2 -19 -20 -6 2 -2 -1 -20 -20 -20 -20 1 -2 2 -7 -20
-15 -20 -20 -20 -20 -20 -20 -20 -20 -20 -11 -20 -20 -20 -20 -7 1 3 -4 -15 15 -20 -20 -20 -11 -20 -20 -20 -20 -20 -20 16 -20 13 4 -11 11 2 -15 -20 -20 -20 -19 -20 -11 0 1
10 -13 -20 -20 -20 -20 -20 -20 -20 -20 -20 -20 -20 -20 -20 -20 -20 -20 -20 -8 9 -20 -20 3 23 -20 -18 -20 -20 -20 -20 17 -0 -3 17 30 17 4 -14 -19 -20 -4 -5 -20 -5 13 -4
10 -9 4 -20 -20 -20 -20 -20 -20 -20 -5 -20 -20 -20 -20 -15 -20 -20 -20 -20 -20 -20 -20 -20 25 32 -16 -1 -20 -20 4 -20 8 31 29 25 28 30 28 22 -15 -20 -9 -10 12 20 11
6 9 10 -20 -20 -20 -20 -20 -20 -20 9 -20 -20 -20 -20 -20 -20 -20 -20 -20 -17 -20 -2 -20 -20 -20 13 9 -20 -20 -17 -6 15 13 3 11 17 25 26 36 34 9 9 22 35 33 30
-19 -2 7 -20 -20 1 -3 -10 -20 -20 7 -20 -20 -20 -20 -20 -20 -15 -20 -20 -20 -18 -20 -20 -20 2 14 -15 -11 -12 17 15 -14 4 16 12 6 20 15 21 21 15 11 21 11 30 26
-4 1 -15 -20 -20 -0 -11 -10 -20 -20 13 -20 -20 -20 -20 -20 -20 -20 -20 -20 -20 -20 -20 -19 17 22 2 -5 15 23 20 23 -18 -20 -20 17 13 7 15 18 17 9 14 13 20 17 23
-20 -2 -20 -20 -20 -20 -5 4 -13 7 6 1 -15 0 -3 -19 -20 -20 -20 -20 -20 -20 -20 -20 -20 -16 27 22 40 23 6 -19 -20 -20 -20 -20 -13 -18 -20 -18 6 12 15 17 11 -12 4
-18 -20 -20 -20 -20 -20 -16 -16 -20 -17 -17 15 -15 -3 -1 8 -20 -20 -20 -20 -20 -20 -20 -20 -20 -18 28 32 21 21 -9 -20 -20 -20 -20 -20 -20 -20 -20 -20 -20 -7 16 13 7 -7 -3
-19 -6 -20 -20 -20 -20 -17 -12 -0 -20 -18 -15 -4 11 19 9 -20 -17 -8 -9 -19 2 -6 -8 13 10 16 27 23 15 4 -20 -20 -20 -20 -20 -20 -15 -20 8 -20 -20 -1 5 -1 -14 -14
10 17 1 -20 -20 -20 -20 -16 -20 -13 10 13 -1 -1 7 3 -9 -7 -11 -20 -17 -8 -20 -19 20 12 23 9 19 8 1 -20 -20 -20 -20 -20 -20 -20 -20 -8 -20 -20 -20 -20 -8 -20 -20
-20 -20 -17 -20 -20 -20 -20 -12 10 6 13 20 10 -4 2 19 7 -20 -20 -20 -20 -15 7 26 37 17 24 26 7 -19 -20 -20 -20 -20 -20 -20 -20 -20 -20 -20 -20 -20 -20 -20 -20 -20 -20

GFSGBSN_prec_radar_144.txt.gz
Reflectivity
-7 4 16 23 21 -3 -18 -20 -20 -20 -20 -20 -20 -20 -20 -20 -20 -20 -20 -11 -3 -7 -20 -20 -20 -20 -20 -20 -20 -20 -20 -20 -20 -20 -20 -20 -20 -20 -20 -20 -20 -20 -20 -20 -20 -20 -20
-19 -20 24 17 2 15 5 -20 -20 -9 -20 -20 -20 -20 -20 -12 0 11 7 -0 -13 7 -7 -16 -19 -20 -20 -20 -20 -20 -20 -20 -20 -20 -20 -20 -20 -20 -20 -20 -20 -20 -20 -20 -20 -20 -20
17 27 13 11 -20 13 4 2 -20 -19 -8 0 2 -1 -20 -20 -7 -9 10 4 -11 -1 8 7 -20 -20 -20 -20 -20 -20 -20 -20 -20 -20 -20 -20 -20 -20 -20 -20 -20 -20 -20 -20 -20 -20 -20
33 38 18 20 7 22 12 19 20 -10 1 24 29 27 32 19 13 14 6 -8 -19 -10 -20 4 4 -20 -20 -20 -20 -20 -20 -20 -20 -20 -20 -20 -20 -20 -20 -20 -20 -20 -20 -20 -20 -20 -20
-10 30 22 33 29 17 21 23 24 26 28 30 32 28 20 16 18 12 12 0 9 -8 -20 -20 -20 -20 -20 -20 -20 -20 -20 -20 -20 -20 -20 -20 -20 -20 -20 -20 -20 -20 -20 -20 -20 -20 -20
-4 24 25 24 27 25 27 25 31 33 30 23 32 29 4 -15 0 9 -7 -20 -20 -20 -20 -20 -20 -20 -20 -20 -20 -20 -20 -20 -20 -20 -20 -20 -20 -20 -20 -20 -20 -20 -20 -20 -20 -20 -20
-14 18 19 27 16 19 18 29 20 21 22 23 18 -9 -20 -0 -0 12 -4 -20 -20 -20 -20 -20 -20 -20 -20 -20 -20 -20 -20 -20 -20 -20 -20 -20 -20 -20 -20 -20 -20 -20 -20 -20 -20 -20 -20
21 20 -11 10 17 27 24 30 24 25 17 17 24 4 4 5 0 -9 -16 -20 -19 -14 -20 -20 -20 -20 -20 -20 -20 -20 -20 -20 -20 -20 -20 -20 -20 -20 -20 -20 -20 -20 -20 -20 -20 -20 -20
-20 -20 18 14 -20 2 24 21 33 27 27 19 18 18 19 20 26 22 11 -15 -20 -20 -20 -20 -20 -20 -20 -20 -20 -20 -20 -20 -20 -20 -20 -20 -20 -20 -20 -20 -20 -20 -20 -20 -20 -20 -20
-18 -20 -20 -12 -7 7 -18 -16 19 6 21 7 2 3 9 -6 11 1 20 6 11 -10 -4 -20 -20 -20 -20 -20 -20 -20 -8 -10 -20 -20 -20 -20 -20 -20 -20 -20 -20 -20 -20 -20 -20 -20 -20
10 4 -17 -1 -20 -20 -20 11 -20 -20 19 17 17 24 -9 -2 -11 -1 -11 8 7 -4 6 -16 -20 -20 -20 2 1 -18 -20 -20 -20 -20 -20 -20 -20 -20 -20 -20 -20 -20 -20 -20 -20 -20 -20
-1 -20 -20 -20 -20 -20 -20 -20 -20 -20 -10 21 18 5 -12 -13 -9 -19 -20 -13 -7 5 2 -9 -20 -20 -20 -1 1 -15 -13 -20 -20 -20 -20 -20 -20 -20 -20 -20 -20 -20 -20 -20 -20 -20 -20
13 9 -4 -20 -20 -20 -20 -20 -20 -20 -20 -16 8 -18 -6 -20 -18 -20 -20 -20 -20 -15 -19 -20 -20 -20 -20 -20 -20 -19 -20 -20 -18 -16 -13 -20 -20 -20 -20 -20 -20 -20 -20 -20 -20 -20 -20
1 -11 -20 -20 -20 -20 -20 -20 -20 -20 -20 -20 13 15 14 20 3 -20 -20 -20 -20 -20 -20 -20 -20 -20 -20 -20 -20 -20 -20 -20 -20 -20 -20 -12 4 -4 -20 -20 -20 -20 13 14 6 -14 -20
-20 -20 -20 -20 -20 -20 -20 -20 -20 -20 -20 -20 -18 20 35 6 20 -18 13 5 -20 -20 -20 -20 -20 -20 -20 -20 -20 -20 -20 -20 -20 -20 -20 -20 -20 -20 -16 -6 1 -5 -11 -20 15 23 21
-19 -20 -20 -20 -20 -20 -20 -20 -20 -20 -20 -20 -12 12 18 23 35 27 32 -20 -20 -20 -20 -20 -20 -20 -20 -20 -20 -20 -20 -20 -20 -20 -20 -20 -20 -20 -20 -20 -20 -18 -15 -17 16 16 12
-20 -20 -20 -20 -20 -20 -20 -20 -20 -20 -20 -20 -20 2 33 27 31 35 20 -20 -20 -20 -20 -20 -20 -20 -20 -20 -20 -20 -20 -20 -20 -20 -20 -12 -2 -20 -20 -20 -20 -20 -20 -13 16 22 15
-20 2 -2 -1 -20 -20 -20 -20 -20 -20 -20 -20 -20 -20 -20 21 22 29 -0 25 -9 -20 -20 -20 -20 -20 -20 -20 -20 -20 -20 -20 -20 -20 -20 -14 29 -8 -20 -20 -20 -20 -20 -20 6 16 13
-20 2 3 4 -1 -10 -20 -20 -20 -20 -20 -20 -20 -20 -19 15 -17 -13 -12 -20 -20 -20 23 -19 -20 -20 -20 -20 -20 -20 -20 -20 -20 -20 -20 -20 -5 -10 -20 -20 -20 -18 -20 -20 -1 25 21
-20 -11 -20 -12 -10 -3 -20 -20 -20 -20 -20 -20 -20 -20 -20 5 -20 -20 -20 -20 -20 -20 -20 -9 -20 -20 -20 -20 -20 -11 -20 -20 -20 -20 -20 -20 -13 -10 13 -8 -0 -13 -15 10 -4 7 -8
-20 -20 -20 -20 -20 -20 -18 -20 -20 -20 -20 -20 -20 -20 -20 -20 -20 -20 -20 -20 -20 -20 -20 -20 -20 -20 -20 -12 -20 -20 -20 -20 -20 -20 -20 -20 -20 -20 -16 -18 -10 -16 -20 -20 10 -8 17
-20 -20 -20 -20 -20 -20 -20 -6 -20 -20 -20 -20 -20 -20 -20 -20 -20 -20 -20 -20 -20 -20 -20 -20 -20 -20 11 -1 -20 -20 0 -18 18 20 13 -20 -8 -18 -20 -20 -20 -20 -20 -5 10 -4 4
-20 -20 -20 -20 -20 -20 -20 -20 3 -17 -20 -20 -20 -20 -20 -20 -20 -20 -20 -20 -20 -20 -20 -20 -20 -20 -20 -20 -20 -20 -20 -20 -20 -4 9 18 7 6 -20 -20 -20 -18 -20 -19 -20 -11 0
-20 -20 -3 -20 -20 -20 -20 -20 -20 -1 -20 -20 -20 -20 -20 -20 -20 -20 -20 -20 -20 -20 -20 -20 -20 -20 -20 -20 -20 -20 -20 -20 -20 -20 -20 9 -8 -2 -20 -7 19 -19 -20 -20 -20 -20 -20
-20 -20 -20 -20 -20 -20 -20 -17 1 -4 6 -20 -20 -20 -20 -20 -20 -20 -20 -20 -20 -20 -20 -20 -20 -20 -20 -20 -20 -20 -20 5 -15 -8 10 8 11 11 15 1 -4 -20 -20 -20 -20 -20 -20
10 -20 -20 -20 -20 -20 -20 -20 -20 -20 16 -20 -20 -20 -20 -20 -20 -20 -20 -20 -20 -20 -20 -20 -20 -20 -20 -20 -20 -20 -20 5 -4 -16 -20 15 9 13 15 18 -20 -20 -20 -20 -20 -20 -20
9 5 -20 -4 -20 -20 -20 -20 -20 -20 -8 -19 -20 -20 -20 6 -20 -20 -20 -20 -20 -20 -20 -20 -20 -20 -20 -14 9 -17 -20 -16 0 11 15 21 19 18 17 13 -20 -20 -20 -20 -20 -20 -20
15 12 9 12 -20 -20 -20 -20 -20 -20 -20 -18 -13 -20 5 6 -11 -20 -20 -20 -20 -20 -20 -20 -20 -20 -20 4 -2 -12 -3 -20 -15 -11 7 1 11 12 15 -10 -19 -20 -20 -20 -20 -20 -20
16 32 19 16 -16 14 8 5 -20 -20 -20 8 6 -20 -17 6 -4 -20 -20 -20 -20 -20 -20 -20 -19 -20 -20 2 -5 -13 18 -9 10 17 34 21 -20 -20 -20 -20 -20 -20 -20 -20 -20 -20 -20

GFSGBSN_prec_radar_147.txt.gz
Reflectivity
22 -20 -20 2 -20 -20 -20 -20 -20 -20 -20 -20 -20 -20 -20 -20 -20 -20 -20 -19 -19 -5 -8 -13 -20 -20 -20 -20 -20 -20 -20 -20 -20 -20 -20 -20 -20 -20 -20 -20 -20 -20 -20 -20 -20 -20 -20
20 17 -7 -4 2 11 -2 -1 1 -20 -20 -20 -20 -20 -20 -20 -20 -20 -20 -16 -15 -10 -13 -7 -12 6 -20 -19 -20 -15 -20 -20 -20 -20 -20 -20 -20 -20 -20 -20 -20 -20 -20 -20 -20 -20 -20
27 37 32 19 1 10 16 -16 12 -18 -5 -19 -20 -20 -20 -20 -20 -20 -3 -20 -6 12 4 -4 -20 -20 -20 -20 -20 -20 -20 -20 -20 -20 -20 -20 -20 -20 -20 -20 -20 -20 -20 -20 -20 -20 -20
25 24 34 23 20 26 14 -0 -18 -7 22 -17 -20 8 2 -5 -15 -18 20 13 1 5 5 3 -20 -20 -20 -20 -20 -20 -20 -20 -20 -20 -20 -20 -20 -20 -20 -20 -20 -20 -20 -20 -20 -20 -20
-3 23 28 21 34 33 31 -4 -20 -20 -20 9 -20 -20 20 15 26 6 17 20 15 11 -12 -20 -20 -20 -20 -20 -20 -20 -20 -20 -20 -20 -20 -20 -20 -20 -20 -20 -20 -20 -20 -20 -20 -20 -20
11 11 -10 22 26 23 31 24 16 9 -8 12 11 13 18 33 19 14 -12 9 12 -19 -20 -20 -20 -20 -20 -20 -20 -20 -20 -20 -20 -20 -20 -20 -20 -20 -20 -20 -20 -20 -20 -20 -20 -20 -20
6 10 4 -4 3 14 27 20 20 14 24 27 19 24 24 26 25 16 4 -20 -20 -20 -20 -20 -20 -20 -20 -20 -20 -20 -20 -20 -20 -20 -20 -20 -20 -20 -20 -20 -20 -20 -20 -20 -20 -20 -20
24 -14 22 15 19 -20 -12 19 27 16 24 23 24 27 24 29 11 -0 -13 -6 -15 -18 -20 -20 -20 -20 -20 -20 -20 -20 -20 -20 -20 -20 -20 -20 -20 -20 -20 -20 -20 -20 -20 -20 -20 -20 -20
-15 1 14 -20 -4 -3 -20 24 18 8 22 32 30 32 30 34 33 30 18 -0 0 3 -16 -20 -20 -20 -20 -20 -20 -20 -20 -20 -20 -20 -20 -20 -20 -20 -20 -20 -20 -20 -20 -20 -20 -20 -20
23 -4 7 -1 -20 15 -20 8 14 12 2 17 26 35 31 28 19 8 25 22 15 14 12 -20 -9 -13 -20 -20 -20 -20 -20 -20 -20 -20 -20 -20 -20 -20 -20 -20 -20 -20 -20 -20 -20 -20 -20
10 -20 10 2 10 -19 -20 -11 -20 -20 6 13 2 13 15 8 8 -20 2 9 -0 10 8 -8 -20 -20 -15 -20 -15 -13 -20 0 -20 -20 -20 -20 -20 -20 -20 -20 -20 -20 -20 -20 -20 -20 -20
-20 14 13 10 -12 -20 -17 -19 -20 9 14 -4 -16 -10 -8 -12 -8 -19 -1 -20 -3 3 -20 -20 -20 -14 -2 3 3 4 -2 -14 -20 -20 -20 -20 -20 -20 -20 -20 -20 -20 -20 -20 -20 -20 -20
-19 4 -13 -20 -20 -20 -20 12 -20 -20 -20 15 15 22 17 -5 -2 -16 -19 -20 -20 -20 -20 -20 -20 -20 -20 -20 -16 -7 1 -14 -20 -8 -2 -10 -18 -20 -20 -20 -20 -20 -20 -20 -20 -20 -20
-16 7 7 10 11 -6 -20 -20 -20 -20 -20 -19 23 21 15 -20 -20 -20 -20 -16 -20 -20 -20 -20 -20 -20 -20 -20 -20 -20 -20 -20 -20 -20 -20 -20 -20 -20 -20 -20 -9 4 -16 -16 -20 -13 -20
-18 -18 -1 7 -4 -8 -20 -20 -20 -20 -20 -4 10 26 -4 -19 -20 -20 -16 1 -20 -20 -20 -20 -20 -20 -20 -20 -20 -20 -20 -8 -13 -20 -20 -20 -20 -20 -20 -20 -20 -20 -16 4 27 27 18
19 -12 -20 -17 -20 -20 -20 -20 -20 -20 -20 -4 3 20 17 0 20 27 6 8 -20 -20 -20 -20 -20 -20 -20 -20 -20 -20 -20 -20 -20 -20 -20 -20 -20 -20 -20 -20 -20 -20 3 -14 8 8 4
-19 -20 -20 -20 -20 -20 -20 -20 -20 -20 -20 -0 -20 22 17 33 36 25 12 -13 -20 -20 -20 -20 -20 -20 -20 -20 -20 -20 -20 -20 -20 -20 -20 -20 -20 -20 -20 -20 -20 -13 -20 -20 0 23 17
-20 -20 -20 -20 -20 -20 -20 -20 -20 -20 -20 -20 -1 -8 16 32 32 29 14 1 -9 -20 -20 -20 -20 -20 -20 -20 -20 -20 -20 -20 -20 -20 -20 -20 -20 -20 -20 -20 -20 -20 -20 -20 -3 14 28
-20 -20 -6 3 -6 -17 -20 -20 -20 -20 -20 -20 -20 -4 -1 24 9 7 20 -0 -11 -20 -20 -20 -20 -20 -20 -20 -20 -20 -20 -20 -20 -20 -20 -20 -7 -20 -20 -20 -20 -20 -20 -20 -0 33 21
-20 -15 1 -13 -20 2 -13 -20 -10 -20 -20 -20 -20 -20 -20 31 17 7 -7 -13 -11 -20 -20 -20 -20 -20 -16 -17 -20 -20 -20 -20 -20 -8 4 -0 -4 -20 -20 -20 -20 -20 -20 -20 -20 -20 -17
-20 9 8 5 6 5 -20 -20 -20 -20 -20 -20 -20 -20 -20 -20 -20 -20 -20 -20 -20 -20 -20 -20 -20 -20 -20 -6 -20 -20 -20 -20 -7 0 -20 14 -20 -20 -20 -20 -20 -20 -20 -20 -20 -20 -19
-20 -20 -20 -20 -20 3 -11 -20 -20 -20 -20 -20 -20 -20 -20 -20 -20 -20 -20 -20 -20 -20 -20 -20 -20 -20 -20 -20 1 -20 -9 -13 -20 -20 20 26 -7 -20 -20 -20 -20 -20 -20 -20 -20 -12 -20
-20 -20 -20 -20 -20 -20 -20 -20 -20 -20 -20 -20 -20 -20 -20 -20 -20 -20 -20 -20 -20 -20 -20 -20 -20 -20 -20 -20 -20 -20 -20 -20 -20 -20 2 5 5 11 -15 -20 -19 9 -20 -20 -20 -20 -20
-5 -20 -20 -20 -20 -20 -20 -20 -20 -20 -20 -20 -20 -20 -20 -20 -20 -20 -20 -20 -20 -20 -20 -20 -20 -20 -20 -20 -20 -20 -20 -20 -20 -20 -20 -20 7 13 4 18 18 -20 -20 -20 -20 -20 -20
-15 -20 -4 -20 -20 -20 -20 -20 -20 -1 -20 -20 -20 -20 -20 -20 -20 -20 -20 -20 -20 -20 -20 -20 -20 -20 -20 -20 -20 -20 -20 -20 -20 -20 -20 -20 -6 12 16 13 -11 -20 -20 -20 -20 -20 -20
-20 8 -17 0 -20 -20 -20 -20 -20 -20 -20 -20 -20 -20 -20 -20 -20 -20 -20 -20 -20 -20 -20 -20 -20 -20 -20 -20 -20 -20 -20 -20 -20 -14 -20 -15 11 20 5 19 10 -20 -20 -20 -20 -20 -20
5 -8 -1 -5 -20 -20 -20 -20 -20 -20 -2 -20 -20 -20 -20 -20 -20 -20 -20 -20 -20 -20 -20 -20 -20 -20 -20 -20 -9 -7 -20 -20 -20 -20 -20 -0 6 10 1 13 -17 -20 -20 -20 -20 -20 -20
13 15 2 -20 2 -20 -20 -20 -20 -20 -10 -20 -20 -20 -3 -15 -20 -20 -20 -20 -20 -20 -20 -20 -20 -20 -20 -6 -14 -20 -20 -20 -20 -20 -20 -20 -14 27 25 23 18 -20 -20 1 -14 -20 -20
7 13 -17 -11 14 -20 -20 -20 -20 -20 -20 -20 -17 -20 -8 14 -9 -20 -20 -20 -20 -20 -20 -20 -20 -20 -20 -20 -20 -20 -20 -20 -18 -19 6 -9 -19 -20 -20 -19 6 18 7 -19 -20 -20 -20

GFSGBSN_prec_radar_153.txt.gz
Reflectivity
-14 -20 -20 3 -20 -20 -20 -20 -20 -20 -20 -20 -20 -20 -20 -20 -20 -20 -20 -20 -20 -20 -20 -20 -20 -20 -20 -20 -20 -20 -20 -20 -20 -20 -20 -20 -20 -20 -20 -20 -20 -20 -20 -15 -17 -20 -20
16 7 -20 -20 5 -10 -11 -20 -20 -20 -20 -20 -20 -20 -20 -20 -20 -20 -20 -20 -20 -20 -9 -20 -20 -20 -12 -20 -18 -20 -20 -20 -20 -20 -20 -20 -20 -20 -20 -20 -20 -20 -20 -20 -20 -20 -20
-11 15 15 5 -20 -19 -20 -19 -20 -20 -20 -20 -20 -20 -20 -20 -20 -20 -20 -20 -19 -15 -6 -20 -20 -20 -20 -20 -20 -20 -20 -20 -20 -20 -20 -20 -20 -20 -20 -20 -20 -20 -20 -20 -20 -20 -20
-3 -9 1 9 11 16 -20 -15 7 -14 -3 -20 -20 -20 -20 -20 -20 -20 -18 7 7 4 -5 -20 0 -20 -18 -20 -20 -20 -20 -20 -20 -20 -20 -20 -20 -20 -20 -20 -20 -20 -20 -20 -20 -20 -20
13 16 15 1 23 14 26 18 20 9 5 -4 -20 -15 -17 -20 -16 1 -15 -6 11 -18 -14 -8 -20 -20 -20 -20 -20 -20 -20 -20 -20 -20 -20 -20 -20 -20 -20 -20 -20 -20 -20 -20 -20 -20 -20
-12 10 12 7 5 10 21 11 19 36 26 24 19 21 19 22 -12 17 21 20 6 -20 -17 -20 -20 -20 -20 -20 -20 -20 -20 -20 -20 -20 -20 -20 -20 -20 -20 -20 -20 -20 -20 -20 -20 -20 -20
16 8 -20 5 -20 6 6 19 24 20 16 21 26 26 28 11 -4 2 13 6 -20 -20 -20 -20 -18 -20 -20 -20 -20 -20 -20 -20 -20 -20 -20 -20 -20 -20 -20 -20 -20 -20 -20 -20 -20 -20 -20
-20 -20 -20 -15 -10 4 17 5 25 9 17 29 22 21 21 19 24 22 11 -20 -20 -19 -20 -20 -20 -20 -20 -20 -20 -20 -20 -20 -20 -20 -20 -20 -20 -20 -20 -20 -20 -20 -20 -20 -20 -20 -20
16 -19 -19 -12 21 9 11 14 14 17 -14 25 28 12 23 21 27 18 17 -6 -14 -4 6 -20 -20 -20 -20 -20 -20 -20 -20 -20 -20 -20 -20 -20 -12 -20 -20 -20 -20 -20 -20 -20 -20 -20 -20
18 -18 -20 -20 9 9 14 10 16 14 -20 -20 18 18 33 25 9 22 29 18 22 3 17 -16 -20 -20 -20 -20 -20 -20 -20 -20 -20 -20 -20 -20 -20 -20 -20 -20 -20 -20 -20 -20 -20 -20 -20
24 -1 19 10 -4 21 8 7 -17 -0 17 26 16 15 16 32 -20 4 13 31 17 16 14 -20 -20 -20 -20 -20 -20 -9 4 -12 -20 -20 -20 -20 -20 -20 -20 -20 -20 -20 -20 -20 -20 -20 -20
22 29 30 25 7 -12 9 10 21 2 16 -11 -10 7 14 19 -14 20 25 -2 -20 24 15 -20 -20 -20 -20 -5 7 -13 -17 -20 -20 -20 -20 -20 -20 -20 -20 -11 -12 11 -20 -20 -20 -20 -20
14 2 4 -5 19 20 14 18 29 10 23 19 16 16 9 -12 12 15 27 -7 16 24 -20 -20 -20 -20 -20 6 -4 -19 -20 -15 -17 -20 -20 -20 -20 -20 -20 -20 -20 -5 1 -10 -2 -8 -20
40 41 18 22 3 8 28 34 36 30 10 15 -19 -1 -12 7 2 -20 -2 3 2 -19 -18 -20 -20 -20 -20 -20 -8 10 -4 -17 0 -1 -8 -20 -11 -20 -20 -20 -20 -20 -19 -18 7 3 -11
33 38 41 44 32 13 32 34 37 27 24 11 5 -6 9 -20 -20 -20 11 24 -20 -20 -20 -20 -20 -20 -20 -20 -20 -11 6 2 -16 -20 -20 -20 -20 -19 -20 -20 -20 -20 -20 -20 -11 7 -15
34 33 34 43 33 26 38 31 26 9 25 7 25 8 -20 -10 -12 22 19 -20 -20 -20 -20 -20 -20 -20 -20 -20 -20 -20 -20 -20 -20 -20 -20 -20 -14 -20 -20 -20 -20 -16 -12 -12 4 7 8
7 8 29 27 14 -20 -10 -19 16 12 19 8 19 20 2 13 4 6 19 4 -20 -20 -20 -20 -20 -20 -20 -20 -20 -20 -20 -20 -20 -20 -20 -20 -20 -20 -20 -20 -20 -5 -20 -20 -8 19 12
18 15 4 6 20 -3 -16 -20 -3 -20 -5 3 14 37 22 34 29 35 -7 -20 -20 -14 -20 -20 -20 -20 -20 -20 -20 -20 -20 -20 -20 -20 -20 -20 -19 -4 10 10 -19 -19 -9 4 18 10 16
0 2 2 -2 -8 5 -20 -17 -2 -18 5 19 3 4 27 39 29 32 5 -9 -20 -20 -20 -20 -20 -20 -20 -20 -20 -20 -20 -20 -20 -20 -20 -12 -20 -20 -20 -20 -20 -20 -20 -20 -20 -11 -20
-20 -20 -20 -20 -20 -20 -20 -20 -20 -20 -18 3 -11 -6 26 31 32 -2 2 -3 3 -0 0 -9 -1 -20 -20 -20 -20 -20 -20 -20 -20 -20 -20 -20 -20 -20 -20 -20 20 24 14 -13 -20 8 -5
-20 -20 -20 -20 -20 -20 -16 -20 -20 -10 -16 -20 19 0 -18 -4 26 14 15 2 4 26 -6 -14 -20 -6 12 11 3 -20 -20 2 -20 -20 -20 -20 -17 -20 -20 -20 -20 -20 -20 -20 -20 -20 -15
-20 -20 -20 -20 -7 -20 -20 -20 -20 -7 -20 -20 6 -20 -20 -18 -7 1 14 18 18 19 -17 9 -20 -19 6 1 -18 -14 -20 -17 -20 -14 -20 3 -6 -19 -20 -20 -7 -20 -20 -20 -20 -20 -20
-12 -20 5 -20 -20 -20 6 -19 -20 -20 -20 -13 -20 -17 1 -4 14 13 20 20 23 -7 11 16 16 -20 -18 -19 -18 -20 -20 -20 -20 -20 -20 6 7 3 -20 -20 -1 13 -20 -20 -20 -20 -20
-20 -20 -20 -7 -0 -20 -20 -20 -20 -10 -20 -20 -20 -19 -20 -20 -3 -1 4 -11 -20 -18 1 6 8 -20 -20 -20 -20 -20 -20 -20 -20 -20 -20 -20 -20 -20 -20 -20 2 -20 -20 -20 -20 -20 -20
-20 -20 -20 -20 -20 -20 -20 -20 -20 -20 -20 -16 -20 -20 -20 -20 -20 -20 -20 -20 -20 -20 -20 -20 -20 -20 -20 -20 -20 -20 -20 -20 -20 -20 -20 -20 -20 -20 -20 -20 -20 -20 -20 -20 -20 -20 -20
-20 -20 -20 -20 -20 -20 -20 -20 -20 -20 -20 -20 -20 -20 -20 -20 -20 -20 -20 -20 -20 -20 -20 -20 -20 -20 -20 -20 -20 -20 -20 -20 -20 -20 -20 -20 -20 -20 -20 -9 -15 -20 -20 -20 -20 -18 -20
-19 8 -14 -20 -20 -20 -20 -20 -20 -20 -20 -20 -20 -20 -20 -20 -20 -20 -20 -20 -20 -20 -20 -20 -20 -20 -20 -20 -20 -20 -20 -20 -20 -20 -20 -20 3 -20 -15 -0 -13 -20 -20 -20 -5 -20 -20
11 4 -20 -20 -20 -20 4 8 -20 -20 -20 -20 -20 -20 -20 -20 -20 -20 -20 -20 -20 -20 -20 -20 -20 -20 -8 -2 -20 -20 -20 -20 -20 -20 -20 -20 -17 20 20 20 20 -20 -20 5 -16 33 9
-20 14 -18 -11 -20 -20 -17 -20 -20 -20 -20 -20 -20 -20 -20 -20 -20 -20 -20 -20 -20 -20 -20 -20 -20 -20 -20 -20 -20 -20 -20 -20 -20 -0 -20 -20 -20 -20 -20 -18 -20 -14 -19 -11 15 -20 -20